<?xml version='1.0' encoding='UTF-8'?><gpx version="1.1" creator="JPX - https://github.com/jenetics/jpx" xmlns="http://www.topografix.com/GPX/1/1"><trk><trkseg><trkpt lat="50.248272829300596" lon="5.277343687925574"><ele>228.0</ele><time>2026-04-18T06:42:19Z</time></trkpt><trkpt lat="50.2482584155997" lon="5.277445919467075"><ele>227.99999999999997</ele><time>2026-04-18T06:42:28Z</time></trkpt><trkpt lat="50.24826006642672" lon="5.277565258453671"><ele>228.0</ele><time>2026-04-18T06:42:34Z</time></trkpt><trkpt lat="50.24823596074008" lon="5.2776748550305035"><ele>228.0</ele><time>2026-04-18T06:42:40Z</time></trkpt><trkpt lat="50.248216535477475" lon="5.277771779687749"><ele>227.99999999999997</ele><time>2026-04-18T06:42:46Z</time></trkpt><trkpt lat="50.24826171359016" lon="5.2778518894121165"><ele>228.0</ele><time>2026-04-18T06:42:52Z</time></trkpt><trkpt lat="50.24822329929722" lon="5.277772218093524"><ele>228.0</ele><time>2026-04-18T06:43:03Z</time></trkpt><trkpt lat="50.2482264633233" lon="5.27767210274963"><ele>228.0</ele><time>2026-04-18T06:43:06Z</time></trkpt><trkpt lat="50.248238396114914" lon="5.277562139588491"><ele>227.99999999999997</ele><time>2026-04-18T06:43:14Z</time></trkpt><trkpt lat="50.24823730061704" lon="5.2774389807363535"><ele>228.0</ele><time>2026-04-18T06:43:18Z</time></trkpt><trkpt lat="50.248173431347254" lon="5.2774151312265865"><ele>228.0</ele><time>2026-04-18T06:43:23Z</time></trkpt><trkpt lat="50.248113115777585" lon="5.2774478927413515"><ele>227.99999999999997</ele><time>2026-04-18T06:43:28Z</time></trkpt><trkpt lat="50.24815941135243" lon="5.2775324310366445"><ele>228.0</ele><time>2026-04-18T06:43:34Z</time></trkpt><trkpt lat="50.248186709799896" lon="5.2776283973783675"><ele>228.0</ele><time>2026-04-18T06:43:49Z</time></trkpt><trkpt lat="50.24820684182848" lon="5.277738400480002"><ele>228.0</ele><time>2026-04-18T06:43:54Z</time></trkpt><trkpt lat="50.248250798479766" lon="5.277816828276952"><ele>227.99999999999997</ele><time>2026-04-18T06:43:58Z</time></trkpt><trkpt lat="50.248307423554316" lon="5.2779000680300845"><ele>228.0</ele><time>2026-04-18T06:44:03Z</time></trkpt><trkpt lat="50.248346090305105" lon="5.277982528480787"><ele>228.0</ele><time>2026-04-18T06:44:08Z</time></trkpt><trkpt lat="50.24839484667973" lon="5.278055631355909"><ele>227.99999999999997</ele><time>2026-04-18T06:44:13Z</time></trkpt><trkpt lat="50.24843332125692" lon="5.278154280542717"><ele>228.0</ele><time>2026-04-18T06:44:18Z</time></trkpt><trkpt lat="50.24848290847913" lon="5.278242046783181"><ele>228.0</ele><time>2026-04-18T06:44:24Z</time></trkpt><trkpt lat="50.24852712280943" lon="5.278333305713371"><ele>227.7142857142857</ele><time>2026-04-18T06:44:29Z</time></trkpt><trkpt lat="50.24857769755629" lon="5.2784116023514605"><ele>227.4285714285714</ele><time>2026-04-18T06:44:34Z</time></trkpt><trkpt lat="50.248630349012096" lon="5.278501376146097"><ele>227.14285714285714</ele><time>2026-04-18T06:44:40Z</time></trkpt><trkpt lat="50.24866967801249" lon="5.278586714165335"><ele>226.85714285714283</ele><time>2026-04-18T06:44:45Z</time></trkpt><trkpt lat="50.24870017031773" lon="5.278675992516945"><ele>226.57142857142856</ele><time>2026-04-18T06:44:50Z</time></trkpt><trkpt lat="50.248751975008716" lon="5.278753558043517"><ele>226.28571428571428</ele><time>2026-04-18T06:44:55Z</time></trkpt><trkpt lat="50.24878876651013" lon="5.278843514615588"><ele>226.0</ele><time>2026-04-18T06:45:01Z</time></trkpt><trkpt lat="50.24881886375649" lon="5.278946623652275"><ele>225.85714285714286</ele><time>2026-04-18T06:45:06Z</time></trkpt><trkpt lat="50.24884082623164" lon="5.279064393953746"><ele>225.71428571428572</ele><time>2026-04-18T06:45:12Z</time></trkpt><trkpt lat="50.248867399760606" lon="5.279160822740294"><ele>225.57142857142858</ele><time>2026-04-18T06:45:17Z</time></trkpt><trkpt lat="50.24891400879739" lon="5.279232593754485"><ele>225.42857142857144</ele><time>2026-04-18T06:45:22Z</time></trkpt><trkpt lat="50.24896066659552" lon="5.279323941407457"><ele>225.28571428571428</ele><time>2026-04-18T06:45:27Z</time></trkpt><trkpt lat="50.248990329001316" lon="5.279426959628937"><ele>225.14285714285717</ele><time>2026-04-18T06:45:32Z</time></trkpt><trkpt lat="50.24900719061322" lon="5.2795392023242185"><ele>225.00000000000003</ele><time>2026-04-18T06:45:37Z</time></trkpt><trkpt lat="50.249054898372584" lon="5.279611011372035"><ele>225.00000000000003</ele><time>2026-04-18T06:45:42Z</time></trkpt><trkpt lat="50.24909510476611" lon="5.279708168177352"><ele>225.0</ele><time>2026-04-18T06:45:48Z</time></trkpt><trkpt lat="50.24911191206524" lon="5.2798061196385495"><ele>225.00000000000003</ele><time>2026-04-18T06:45:53Z</time></trkpt><trkpt lat="50.249102685370225" lon="5.279914952210384"><ele>225.00000000000003</ele><time>2026-04-18T06:45:59Z</time></trkpt><trkpt lat="50.24904274945087" lon="5.279955154888374"><ele>225.0</ele><time>2026-04-18T06:46:04Z</time></trkpt><trkpt lat="50.248981400824256" lon="5.280029343515541"><ele>225.00000000000003</ele><time>2026-04-18T06:46:10Z</time></trkpt><trkpt lat="50.24892778749214" lon="5.2801095498055295"><ele>225.00000000000003</ele><time>2026-04-18T06:46:15Z</time></trkpt><trkpt lat="50.24890999300101" lon="5.280223191846171"><ele>224.71428571428575</ele><time>2026-04-18T06:46:20Z</time></trkpt><trkpt lat="50.24891975019083" lon="5.280327665166596"><ele>224.42857142857144</ele><time>2026-04-18T06:46:24Z</time></trkpt><trkpt lat="50.24894671516751" lon="5.280436387895158"><ele>224.14285714285717</ele><time>2026-04-18T06:46:30Z</time></trkpt><trkpt lat="50.24899918783107" lon="5.280504775176826"><ele>223.8571428571429</ele><time>2026-04-18T06:46:33Z</time></trkpt><trkpt lat="50.24900797505804" lon="5.2806052047209535"><ele>223.57142857142856</ele><time>2026-04-18T06:46:38Z</time></trkpt><trkpt lat="50.24900941349895" lon="5.2807301081902995"><ele>223.28571428571428</ele><time>2026-04-18T06:46:45Z</time></trkpt><trkpt lat="50.24900302331857" lon="5.280839558924074"><ele>223.0</ele><time>2026-04-18T06:46:50Z</time></trkpt><trkpt lat="50.24900309270187" lon="5.28095044280416"><ele>222.57142857142856</ele><time>2026-04-18T06:46:55Z</time></trkpt><trkpt lat="50.24901605143959" lon="5.281061593962399"><ele>222.14285714285714</ele><time>2026-04-18T06:47:01Z</time></trkpt><trkpt lat="50.24903601291705" lon="5.281158584961699"><ele>221.71428571428572</ele><time>2026-04-18T06:47:06Z</time></trkpt><trkpt lat="50.24906186012698" lon="5.281258052654967"><ele>221.28571428571428</ele><time>2026-04-18T06:47:11Z</time></trkpt><trkpt lat="50.249100380494845" lon="5.281340035420411"><ele>220.85714285714286</ele><time>2026-04-18T06:47:16Z</time></trkpt><trkpt lat="50.24914267564366" lon="5.281419966729023"><ele>220.42857142857142</ele><time>2026-04-18T06:47:21Z</time></trkpt><trkpt lat="50.249180281745794" lon="5.281502577011135"><ele>220.0</ele><time>2026-04-18T06:47:26Z</time></trkpt><trkpt lat="50.24921075688196" lon="5.281590635732467"><ele>219.57142857142856</ele><time>2026-04-18T06:47:31Z</time></trkpt><trkpt lat="50.24925080956828" lon="5.281668227339791"><ele>219.14285714285714</ele><time>2026-04-18T06:47:36Z</time></trkpt><trkpt lat="50.24929938243005" lon="5.281736313388907"><ele>218.71428571428572</ele><time>2026-04-18T06:47:41Z</time></trkpt><trkpt lat="50.2493480689342" lon="5.281822819215056"><ele>218.28571428571428</ele><time>2026-04-18T06:47:46Z</time></trkpt><trkpt lat="50.24939374971935" lon="5.281896743837026"><ele>217.85714285714286</ele><time>2026-04-18T06:47:51Z</time></trkpt><trkpt lat="50.24943363967743" lon="5.281977075553"><ele>217.42857142857142</ele><time>2026-04-18T06:47:56Z</time></trkpt><trkpt lat="50.24947847732899" lon="5.282051758754673"><ele>217.0</ele><time>2026-04-18T06:48:01Z</time></trkpt><trkpt lat="50.24953109614669" lon="5.2821342839781575"><ele>217.0</ele><time>2026-04-18T06:48:07Z</time></trkpt><trkpt lat="50.2495771663457" lon="5.282223984520566"><ele>217.0</ele><time>2026-04-18T06:48:13Z</time></trkpt><trkpt lat="50.249614662334594" lon="5.28232239411112"><ele>217.0</ele><time>2026-04-18T06:48:19Z</time></trkpt><trkpt lat="50.249657352554244" lon="5.282401178002845"><ele>217.0</ele><time>2026-04-18T06:48:24Z</time></trkpt><trkpt lat="50.24969451431096" lon="5.282500459834099"><ele>217.0</ele><time>2026-04-18T06:48:30Z</time></trkpt><trkpt lat="50.24974011045188" lon="5.2825818757760175"><ele>217.0</ele><time>2026-04-18T06:48:36Z</time></trkpt><trkpt lat="50.249787174201145" lon="5.2826644311790165"><ele>217.0</ele><time>2026-04-18T06:48:41Z</time></trkpt><trkpt lat="50.249833061307584" lon="5.282743377922274"><ele>216.85714285714286</ele><time>2026-04-18T06:48:46Z</time></trkpt><trkpt lat="50.24988600157128" lon="5.282821039108426"><ele>216.71428571428572</ele><time>2026-04-18T06:48:52Z</time></trkpt><trkpt lat="50.24994512300547" lon="5.282873156726139"><ele>216.57142857142856</ele><time>2026-04-18T06:48:57Z</time></trkpt><trkpt lat="50.25000520606396" lon="5.282910228973419"><ele>216.42857142857144</ele><time>2026-04-18T06:49:02Z</time></trkpt><trkpt lat="50.25006644995469" lon="5.282949139643419"><ele>216.28571428571428</ele><time>2026-04-18T06:49:07Z</time></trkpt><trkpt lat="50.250131172470006" lon="5.282966752532575"><ele>216.14285714285714</ele><time>2026-04-18T06:49:12Z</time></trkpt><trkpt lat="50.250204611602385" lon="5.2829640536621"><ele>216.0</ele><time>2026-04-18T06:49:18Z</time></trkpt><trkpt lat="50.25027290384888" lon="5.282946480169261"><ele>216.0</ele><time>2026-04-18T06:49:23Z</time></trkpt><trkpt lat="50.25033592370927" lon="5.282922063804864"><ele>216.0</ele><time>2026-04-18T06:49:27Z</time></trkpt><trkpt lat="50.25040089804701" lon="5.282870579726505"><ele>216.0</ele><time>2026-04-18T06:49:32Z</time></trkpt><trkpt lat="50.25046888627576" lon="5.282833734584198"><ele>216.0</ele><time>2026-04-18T06:49:37Z</time></trkpt><trkpt lat="50.25053706662006" lon="5.282776902842574"><ele>216.0</ele><time>2026-04-18T06:49:43Z</time></trkpt><trkpt lat="50.250592553196185" lon="5.282723103321913"><ele>216.0</ele><time>2026-04-18T06:49:48Z</time></trkpt><trkpt lat="50.25065261992366" lon="5.282690867899541"><ele>216.0</ele><time>2026-04-18T06:49:53Z</time></trkpt><trkpt lat="50.25071011066026" lon="5.282629011076723"><ele>216.28571428571428</ele><time>2026-04-18T06:49:58Z</time></trkpt><trkpt lat="50.25076703397292" lon="5.2825852285571235"><ele>216.57142857142856</ele><time>2026-04-18T06:50:03Z</time></trkpt><trkpt lat="50.25082816090773" lon="5.282521350679851"><ele>216.85714285714286</ele><time>2026-04-18T06:50:08Z</time></trkpt><trkpt lat="50.25088383817722" lon="5.282469882489058"><ele>217.14285714285714</ele><time>2026-04-18T06:50:13Z</time></trkpt><trkpt lat="50.250940838946704" lon="5.282421383737119"><ele>217.42857142857144</ele><time>2026-04-18T06:50:18Z</time></trkpt><trkpt lat="50.250997757969" lon="5.28236040795334"><ele>217.71428571428572</ele><time>2026-04-18T06:50:23Z</time></trkpt><trkpt lat="50.25105614601715" lon="5.282310172951808"><ele>218.0</ele><time>2026-04-18T06:50:29Z</time></trkpt><trkpt lat="50.251104328333575" lon="5.282238715571582"><ele>218.16666666666669</ele><time>2026-04-18T06:50:33Z</time></trkpt><trkpt lat="50.25113382944085" lon="5.282133363602879"><ele>218.33333333333334</ele><time>2026-04-18T06:50:38Z</time></trkpt><trkpt lat="50.25116686849328" lon="5.282046410407144"><ele>218.5</ele><time>2026-04-18T06:50:43Z</time></trkpt><trkpt lat="50.251133602433825" lon="5.281895555076082"><ele>218.66666666666669</ele><time>2026-04-18T06:50:50Z</time></trkpt><trkpt lat="50.251096612716424" lon="5.281796912356233"><ele>218.83333333333334</ele><time>2026-04-18T06:50:56Z</time></trkpt><trkpt lat="50.25106812231244" lon="5.281692655865775"><ele>219.0</ele><time>2026-04-18T06:51:02Z</time></trkpt><trkpt lat="50.25104017221274" lon="5.281602742440182"><ele>219.0</ele><time>2026-04-18T06:51:07Z</time></trkpt><trkpt lat="50.25100508818243" lon="5.281513241643979"><ele>219.0</ele><time>2026-04-18T06:51:13Z</time></trkpt><trkpt lat="50.25097654445313" lon="5.281398004227068"><ele>219.0</ele><time>2026-04-18T06:51:19Z</time></trkpt><trkpt lat="50.250958654761384" lon="5.2812850404905145"><ele>219.0</ele><time>2026-04-18T06:51:25Z</time></trkpt><trkpt lat="50.25093076171999" lon="5.281181101700006"><ele>219.0</ele><time>2026-04-18T06:51:32Z</time></trkpt><trkpt lat="50.251008978804805" lon="5.281053357390859"><ele>219.0</ele><time>2026-04-18T06:51:39Z</time></trkpt><trkpt lat="50.25106415663031" lon="5.280984138620609"><ele>219.14285714285714</ele><time>2026-04-18T06:51:46Z</time></trkpt><trkpt lat="50.25110553015881" lon="5.280905515627945"><ele>219.28571428571428</ele><time>2026-04-18T06:51:52Z</time></trkpt><trkpt lat="50.25115101260227" lon="5.280829743105839"><ele>219.42857142857142</ele><time>2026-04-18T06:51:58Z</time></trkpt><trkpt lat="50.25120080565229" lon="5.280755788160252"><ele>219.57142857142856</ele><time>2026-04-18T06:52:03Z</time></trkpt><trkpt lat="50.25124561258014" lon="5.280679195464227"><ele>219.71428571428572</ele><time>2026-04-18T06:52:08Z</time></trkpt><trkpt lat="50.25129657549734" lon="5.280604196340898"><ele>219.85714285714283</ele><time>2026-04-18T06:52:14Z</time></trkpt><trkpt lat="50.25134646303414" lon="5.280537650646934"><ele>220.0</ele><time>2026-04-18T06:52:19Z</time></trkpt><trkpt lat="50.25139782603957" lon="5.280442915237661"><ele>220.28571428571428</ele><time>2026-04-18T06:52:25Z</time></trkpt><trkpt lat="50.25144366843974" lon="5.28035337566775"><ele>220.57142857142856</ele><time>2026-04-18T06:52:31Z</time></trkpt><trkpt lat="50.25149833311103" lon="5.280273898434627"><ele>220.85714285714283</ele><time>2026-04-18T06:52:37Z</time></trkpt><trkpt lat="50.25154801820148" lon="5.280196635760189"><ele>221.14285714285714</ele><time>2026-04-18T06:52:43Z</time></trkpt><trkpt lat="50.25159187086045" lon="5.280120499679517"><ele>221.42857142857144</ele><time>2026-04-18T06:52:49Z</time></trkpt><trkpt lat="50.25163558210247" lon="5.2800306955238065"><ele>221.7142857142857</ele><time>2026-04-18T06:52:56Z</time></trkpt><trkpt lat="50.25168101374435" lon="5.279952233932135"><ele>222.0</ele><time>2026-04-18T06:53:02Z</time></trkpt><trkpt lat="50.25172527770671" lon="5.27986085881772"><ele>222.85714285714283</ele><time>2026-04-18T06:53:08Z</time></trkpt><trkpt lat="50.2517580741413" lon="5.279756361595211"><ele>223.71428571428572</ele><time>2026-04-18T06:53:14Z</time></trkpt><trkpt lat="50.25180985520902" lon="5.279680177149758"><ele>224.57142857142856</ele><time>2026-04-18T06:53:21Z</time></trkpt><trkpt lat="50.2518515078536" lon="5.2795816632888"><ele>225.42857142857142</ele><time>2026-04-18T06:53:27Z</time></trkpt><trkpt lat="50.25189705899785" lon="5.279494401003515"><ele>226.28571428571428</ele><time>2026-04-18T06:53:32Z</time></trkpt><trkpt lat="50.25192841173909" lon="5.279405335255578"><ele>227.14285714285714</ele><time>2026-04-18T06:53:37Z</time></trkpt><trkpt lat="50.25197694836578" lon="5.279314579845862"><ele>228.0</ele><time>2026-04-18T06:53:43Z</time></trkpt><trkpt lat="50.25199927127254" lon="5.279210367180186"><ele>228.0</ele><time>2026-04-18T06:53:50Z</time></trkpt><trkpt lat="50.25204847940142" lon="5.279122011263996"><ele>227.99999999999997</ele><time>2026-04-18T06:53:56Z</time></trkpt><trkpt lat="50.25209017260476" lon="5.2790284788008774"><ele>228.0</ele><time>2026-04-18T06:54:02Z</time></trkpt><trkpt lat="50.252131658565304" lon="5.278950051599873"><ele>228.0</ele><time>2026-04-18T06:54:07Z</time></trkpt><trkpt lat="50.25217727814885" lon="5.2788717370735085"><ele>227.99999999999997</ele><time>2026-04-18T06:54:12Z</time></trkpt><trkpt lat="50.25222933414962" lon="5.278787621796791"><ele>228.0</ele><time>2026-04-18T06:54:18Z</time></trkpt><trkpt lat="50.25227441626643" lon="5.278711118386011"><ele>228.0</ele><time>2026-04-18T06:54:25Z</time></trkpt><trkpt lat="50.25236551066824" lon="5.278709214307786"><ele>228.57142857142856</ele><time>2026-04-18T06:54:32Z</time></trkpt><trkpt lat="50.25244052817598" lon="5.278675443508501"><ele>229.1428571428571</ele><time>2026-04-18T06:54:39Z</time></trkpt><trkpt lat="50.252508584985904" lon="5.278668156031457"><ele>229.71428571428572</ele><time>2026-04-18T06:54:45Z</time></trkpt><trkpt lat="50.25258127915987" lon="5.278647062032652"><ele>230.28571428571428</ele><time>2026-04-18T06:54:52Z</time></trkpt><trkpt lat="50.25265498226407" lon="5.278640589414995"><ele>230.85714285714286</ele><time>2026-04-18T06:54:58Z</time></trkpt><trkpt lat="50.25271938845504" lon="5.278630333547474"><ele>231.42857142857144</ele><time>2026-04-18T06:55:03Z</time></trkpt><trkpt lat="50.252786216747886" lon="5.278624918387934"><ele>232.00000000000003</ele><time>2026-04-18T06:55:08Z</time></trkpt><trkpt lat="50.252849830981305" lon="5.278624492232606"><ele>232.00000000000003</ele><time>2026-04-18T06:55:14Z</time></trkpt><trkpt lat="50.25291998947069" lon="5.278610358382274"><ele>232.0</ele><time>2026-04-18T06:55:20Z</time></trkpt><trkpt lat="50.252981832297685" lon="5.2785761004505805"><ele>232.00000000000003</ele><time>2026-04-18T06:55:24Z</time></trkpt><trkpt lat="50.25304657277236" lon="5.278548521523604"><ele>232.00000000000003</ele><time>2026-04-18T06:55:29Z</time></trkpt><trkpt lat="50.25311801860585" lon="5.278526352210163"><ele>232.0</ele><time>2026-04-18T06:55:35Z</time></trkpt><trkpt lat="50.253181531360106" lon="5.278535714574338"><ele>232.00000000000003</ele><time>2026-04-18T06:55:42Z</time></trkpt><trkpt lat="50.25324426388562" lon="5.278523373501679"><ele>232.00000000000003</ele><time>2026-04-18T06:55:48Z</time></trkpt><trkpt lat="50.253307421339585" lon="5.2784983457178685"><ele>232.00000000000003</ele><time>2026-04-18T06:55:53Z</time></trkpt><trkpt lat="50.25337913359238" lon="5.278469104362006"><ele>232.0</ele><time>2026-04-18T06:55:59Z</time></trkpt><trkpt lat="50.25344638954967" lon="5.278455787353599"><ele>232.00000000000003</ele><time>2026-04-18T06:56:05Z</time></trkpt><trkpt lat="50.253513127464714" lon="5.2784285350131634"><ele>232.00000000000003</ele><time>2026-04-18T06:56:10Z</time></trkpt><trkpt lat="50.25358142303994" lon="5.278396321778297"><ele>232.0</ele><time>2026-04-18T06:56:16Z</time></trkpt><trkpt lat="50.25364758040813" lon="5.278378286546329"><ele>232.00000000000003</ele><time>2026-04-18T06:56:22Z</time></trkpt><trkpt lat="50.253718085124625" lon="5.278352584378795"><ele>232.00000000000003</ele><time>2026-04-18T06:56:28Z</time></trkpt><trkpt lat="50.253778730969366" lon="5.278320188836742"><ele>232.00000000000003</ele><time>2026-04-18T06:56:34Z</time></trkpt><trkpt lat="50.25384745864783" lon="5.278288828242956"><ele>232.0</ele><time>2026-04-18T06:56:41Z</time></trkpt><trkpt lat="50.253915295946534" lon="5.2782615295764845"><ele>232.00000000000003</ele><time>2026-04-18T06:56:48Z</time></trkpt><trkpt lat="50.2539825018774" lon="5.27822883248391"><ele>232.00000000000003</ele><time>2026-04-18T06:56:54Z</time></trkpt><trkpt lat="50.254045626104926" lon="5.27818882639792"><ele>232.0</ele><time>2026-04-18T06:56:59Z</time></trkpt><trkpt lat="50.25411059029085" lon="5.278142548701836"><ele>232.00000000000003</ele><time>2026-04-18T06:57:05Z</time></trkpt><trkpt lat="50.254171165149096" lon="5.278092265981567"><ele>232.00000000000003</ele><time>2026-04-18T06:57:11Z</time></trkpt><trkpt lat="50.25423161430136" lon="5.278028972197971"><ele>232.42857142857144</ele><time>2026-04-18T06:57:18Z</time></trkpt><trkpt lat="50.25428805431377" lon="5.277981090870774"><ele>232.85714285714286</ele><time>2026-04-18T06:57:23Z</time></trkpt><trkpt lat="50.2543507560955" lon="5.2779362221872335"><ele>233.28571428571428</ele><time>2026-04-18T06:57:29Z</time></trkpt><trkpt lat="50.254408294926776" lon="5.277878572621299"><ele>233.71428571428572</ele><time>2026-04-18T06:57:35Z</time></trkpt><trkpt lat="50.25447518873263" lon="5.277851090560287"><ele>234.1428571428571</ele><time>2026-04-18T06:57:41Z</time></trkpt><trkpt lat="50.25452990703963" lon="5.277775441517649"><ele>234.57142857142856</ele><time>2026-04-18T06:57:47Z</time></trkpt><trkpt lat="50.25457657019817" lon="5.2777058072669565"><ele>235.0</ele><time>2026-04-18T06:57:52Z</time></trkpt><trkpt lat="50.25461868584205" lon="5.277632163087346"><ele>235.0</ele><time>2026-04-18T06:57:57Z</time></trkpt><trkpt lat="50.25464623274507" lon="5.27754091781105"><ele>234.99999999999997</ele><time>2026-04-18T06:58:04Z</time></trkpt><trkpt lat="50.254672517415855" lon="5.277447801635926"><ele>235.0</ele><time>2026-04-18T06:58:09Z</time></trkpt><trkpt lat="50.25468671436138" lon="5.2773413162157485"><ele>235.0</ele><time>2026-04-18T06:58:14Z</time></trkpt><trkpt lat="50.25472419181662" lon="5.2772358036772316"><ele>234.99999999999997</ele><time>2026-04-18T06:58:20Z</time></trkpt><trkpt lat="50.25477344511837" lon="5.27716148777641"><ele>235.0</ele><time>2026-04-18T06:58:25Z</time></trkpt><trkpt lat="50.254827641033984" lon="5.277093748452019"><ele>235.0</ele><time>2026-04-18T06:58:30.999Z</time></trkpt><trkpt lat="50.25488860991809" lon="5.277042022209677"><ele>235.28571428571428</ele><time>2026-04-18T06:58:37.999Z</time></trkpt><trkpt lat="50.25495245923148" lon="5.276988325086884"><ele>235.57142857142856</ele><time>2026-04-18T06:58:44Z</time></trkpt><trkpt lat="50.25501540675568" lon="5.276952506343825"><ele>235.85714285714283</ele><time>2026-04-18T06:58:50Z</time></trkpt><trkpt lat="50.255080814458395" lon="5.276910021511469"><ele>236.1428571428571</ele><time>2026-04-18T06:58:56Z</time></trkpt><trkpt lat="50.25512302917333" lon="5.276836389618076"><ele>236.42857142857142</ele><time>2026-04-18T06:59:02Z</time></trkpt><trkpt lat="50.255184661685625" lon="5.276807382494747"><ele>236.71428571428567</ele><time>2026-04-18T06:59:20Z</time></trkpt><trkpt lat="50.25524454171014" lon="5.276758396271827"><ele>236.99999999999997</ele><time>2026-04-18T06:59:30Z</time></trkpt><trkpt lat="50.25528280214444" lon="5.276676156987141"><ele>236.99999999999997</ele><time>2026-04-18T06:59:34Z</time></trkpt><trkpt lat="50.25534077236689" lon="5.27663012873272"><ele>237.0</ele><time>2026-04-18T06:59:40Z</time></trkpt><trkpt lat="50.2553893638347" lon="5.276553037274706"><ele>236.99999999999997</ele><time>2026-04-18T06:59:45Z</time></trkpt><trkpt lat="50.25545359702283" lon="5.276512735009668"><ele>236.99999999999997</ele><time>2026-04-18T06:59:53Z</time></trkpt><trkpt lat="50.2555236689183" lon="5.276470162286295"><ele>237.0</ele><time>2026-04-18T07:00:01Z</time></trkpt><trkpt lat="50.25558598441592" lon="5.276417194389384"><ele>236.99999999999997</ele><time>2026-04-18T07:00:07Z</time></trkpt><trkpt lat="50.255644546721776" lon="5.2763480445755"><ele>236.99999999999997</ele><time>2026-04-18T07:00:13Z</time></trkpt><trkpt lat="50.25569641669857" lon="5.276266889359108"><ele>238.57142857142856</ele><time>2026-04-18T07:00:20Z</time></trkpt><trkpt lat="50.255755879277444" lon="5.276218434510131"><ele>240.14285714285714</ele><time>2026-04-18T07:00:25Z</time></trkpt><trkpt lat="50.25581700032229" lon="5.276149792825404"><ele>241.71428571428572</ele><time>2026-04-18T07:00:32Z</time></trkpt><trkpt lat="50.2558663405241" lon="5.276084498023311"><ele>243.28571428571428</ele><time>2026-04-18T07:00:38.999Z</time></trkpt><trkpt lat="50.25592149444491" lon="5.276017294678208"><ele>244.8571428571429</ele><time>2026-04-18T07:00:45Z</time></trkpt><trkpt lat="50.25597848529979" lon="5.275961692091726"><ele>246.42857142857144</ele><time>2026-04-18T07:01:42Z</time></trkpt><trkpt lat="50.25603009748106" lon="5.275889812059754"><ele>248.0</ele><time>2026-04-18T07:01:49.999Z</time></trkpt><trkpt lat="50.256081192198906" lon="5.27583217718284"><ele>248.0</ele><time>2026-04-18T07:01:55.999Z</time></trkpt><trkpt lat="50.25613834621652" lon="5.275772460434144"><ele>248.00000000000003</ele><time>2026-04-18T07:02:02.999Z</time></trkpt><trkpt lat="50.256197352073976" lon="5.275699719806883"><ele>248.0</ele><time>2026-04-18T07:02:08.999Z</time></trkpt><trkpt lat="50.256251888870324" lon="5.275643606174389"><ele>248.0</ele><time>2026-04-18T07:02:14.999Z</time></trkpt><trkpt lat="50.2562964412624" lon="5.275554314714883"><ele>248.00000000000003</ele><time>2026-04-18T07:02:19.999Z</time></trkpt><trkpt lat="50.25635886607813" lon="5.27549446270204"><ele>248.0</ele><time>2026-04-18T07:02:26.999Z</time></trkpt><trkpt lat="50.25641430561906" lon="5.275446612327078"><ele>248.0</ele><time>2026-04-18T07:02:31.999Z</time></trkpt><trkpt lat="50.25646374837428" lon="5.275378956479939"><ele>248.85714285714286</ele><time>2026-04-18T07:02:36.999Z</time></trkpt><trkpt lat="50.25651457381026" lon="5.275319438859831"><ele>249.71428571428572</ele><time>2026-04-18T07:02:43.999Z</time></trkpt><trkpt lat="50.25656126417884" lon="5.275253321092473"><ele>250.57142857142858</ele><time>2026-04-18T07:02:52Z</time></trkpt><trkpt lat="50.25661300886869" lon="5.275193153641045"><ele>251.42857142857144</ele><time>2026-04-18T07:02:57Z</time></trkpt><trkpt lat="50.25666300875246" lon="5.275128750559508"><ele>252.28571428571428</ele><time>2026-04-18T07:03:02Z</time></trkpt><trkpt lat="50.256710173763786" lon="5.275060940139142"><ele>253.14285714285717</ele><time>2026-04-18T07:03:08Z</time></trkpt><trkpt lat="50.25676723682642" lon="5.274998896385701"><ele>254.0</ele><time>2026-04-18T07:03:15Z</time></trkpt><trkpt lat="50.25682507510787" lon="5.27492677107097"><ele>254.0</ele><time>2026-04-18T07:03:21Z</time></trkpt><trkpt lat="50.25688646522788" lon="5.274863449951346"><ele>254.0</ele><time>2026-04-18T07:03:27Z</time></trkpt><trkpt lat="50.256940697748234" lon="5.274806091098393"><ele>254.0</ele><time>2026-04-18T07:03:33Z</time></trkpt><trkpt lat="50.25699490597856" lon="5.274721530624407"><ele>254.0</ele><time>2026-04-18T07:03:39Z</time></trkpt><trkpt lat="50.257047883534824" lon="5.274644142976078"><ele>254.0</ele><time>2026-04-18T07:03:46Z</time></trkpt><trkpt lat="50.257103585709906" lon="5.274577519970571"><ele>254.0</ele><time>2026-04-18T07:03:52Z</time></trkpt><trkpt lat="50.25715271166953" lon="5.274497014587273"><ele>254.0</ele><time>2026-04-18T07:03:59Z</time></trkpt><trkpt lat="50.257206877313564" lon="5.274424423127381"><ele>254.57142857142858</ele><time>2026-04-18T07:04:05Z</time></trkpt><trkpt lat="50.25725671190516" lon="5.27436026774304"><ele>255.1428571428571</ele><time>2026-04-18T07:04:10.999Z</time></trkpt><trkpt lat="50.25730845169188" lon="5.2742825315229265"><ele>255.7142857142857</ele><time>2026-04-18T07:04:15.999Z</time></trkpt><trkpt lat="50.257363255063055" lon="5.274222768889555"><ele>256.2857142857143</ele><time>2026-04-18T07:04:21.999Z</time></trkpt><trkpt lat="50.257416911491184" lon="5.274155904053141"><ele>256.85714285714283</ele><time>2026-04-18T07:04:27.999Z</time></trkpt><trkpt lat="50.25746466250365" lon="5.274081530895332"><ele>257.4285714285714</ele><time>2026-04-18T07:04:33.999Z</time></trkpt><trkpt lat="50.257516170726305" lon="5.2740015966395335"><ele>258.0</ele><time>2026-04-18T07:04:39.999Z</time></trkpt><trkpt lat="50.2575534685532" lon="5.273912942233055"><ele>258.85714285714283</ele><time>2026-04-18T07:04:46.999Z</time></trkpt><trkpt lat="50.257608417031264" lon="5.273834904383957"><ele>259.7142857142857</ele><time>2026-04-18T07:04:53.999Z</time></trkpt><trkpt lat="50.257660084214955" lon="5.273757833954788"><ele>260.57142857142856</ele><time>2026-04-18T07:05:01Z</time></trkpt><trkpt lat="50.25771047958228" lon="5.273679293153282"><ele>261.42857142857144</ele><time>2026-04-18T07:05:08Z</time></trkpt><trkpt lat="50.257766927901024" lon="5.273595810353118"><ele>262.2857142857143</ele><time>2026-04-18T07:05:16Z</time></trkpt><trkpt lat="50.257817373009416" lon="5.2735164022113565"><ele>263.1428571428571</ele><time>2026-04-18T07:05:23Z</time></trkpt><trkpt lat="50.257867872050554" lon="5.273444800749457"><ele>264.0</ele><time>2026-04-18T07:05:31Z</time></trkpt><trkpt lat="50.25791275942569" lon="5.27336987816221"><ele>264.0</ele><time>2026-04-18T07:05:37Z</time></trkpt><trkpt lat="50.25797242783851" lon="5.273311428077541"><ele>264.0</ele><time>2026-04-18T07:05:43Z</time></trkpt><trkpt lat="50.25804562305917" lon="5.273273977702721"><ele>264.0</ele><time>2026-04-18T07:05:50Z</time></trkpt><trkpt lat="50.258109378542194" lon="5.273261473962036"><ele>264.0</ele><time>2026-04-18T07:05:57Z</time></trkpt><trkpt lat="50.258173157799604" lon="5.27326659022002"><ele>264.0</ele><time>2026-04-18T07:06:03Z</time></trkpt><trkpt lat="50.25824865241917" lon="5.273271492262326"><ele>264.0</ele><time>2026-04-18T07:06:10Z</time></trkpt><trkpt lat="50.25832198136159" lon="5.273251648411219"><ele>264.0</ele><time>2026-04-18T07:06:17Z</time></trkpt><trkpt lat="50.25839251884713" lon="5.2732626790316806"><ele>264.2857142857143</ele><time>2026-04-18T07:06:23Z</time></trkpt><trkpt lat="50.25845998892318" lon="5.273240236065346"><ele>264.57142857142856</ele><time>2026-04-18T07:06:28Z</time></trkpt><trkpt lat="50.25852737152224" lon="5.273228108344254"><ele>264.8571428571429</ele><time>2026-04-18T07:06:34Z</time></trkpt><trkpt lat="50.25859148537761" lon="5.273225445418189"><ele>265.1428571428571</ele><time>2026-04-18T07:06:38.999Z</time></trkpt><trkpt lat="50.25866077037244" lon="5.273239437071975"><ele>265.42857142857144</ele><time>2026-04-18T07:06:45.999Z</time></trkpt><trkpt lat="50.25872667389569" lon="5.2732403796693355"><ele>265.7142857142857</ele><time>2026-04-18T07:06:52.999Z</time></trkpt><trkpt lat="50.25879996800819" lon="5.273229741037796"><ele>266.0</ele><time>2026-04-18T07:06:58.999Z</time></trkpt><trkpt lat="50.258863714986255" lon="5.273249030351685"><ele>266.0</ele><time>2026-04-18T07:07:05Z</time></trkpt><trkpt lat="50.25892831858109" lon="5.27323930933906"><ele>266.0</ele><time>2026-04-18T07:07:11Z</time></trkpt><trkpt lat="50.258995328848314" lon="5.273240627991923"><ele>266.0</ele><time>2026-04-18T07:07:17Z</time></trkpt><trkpt lat="50.25906308532302" lon="5.273251147462979"><ele>266.0</ele><time>2026-04-18T07:07:23Z</time></trkpt><trkpt lat="50.25913002948573" lon="5.273234428862186"><ele>266.0</ele><time>2026-04-18T07:07:30Z</time></trkpt><trkpt lat="50.25919634153835" lon="5.273221695151083"><ele>266.0</ele><time>2026-04-18T07:07:35Z</time></trkpt><trkpt lat="50.25927214615323" lon="5.273232388084344"><ele>266.0</ele><time>2026-04-18T07:07:42Z</time></trkpt><trkpt lat="50.25934362943991" lon="5.273246914654819"><ele>266.42857142857144</ele><time>2026-04-18T07:07:49Z</time></trkpt><trkpt lat="50.25941062949945" lon="5.273261315613553"><ele>266.8571428571429</ele><time>2026-04-18T07:07:56Z</time></trkpt><trkpt lat="50.25947898959984" lon="5.273267638632875"><ele>267.2857142857143</ele><time>2026-04-18T07:08:02Z</time></trkpt><trkpt lat="50.25954527290997" lon="5.273260930628455"><ele>267.7142857142857</ele><time>2026-04-18T07:08:07Z</time></trkpt><trkpt lat="50.25961152330639" lon="5.273280440319319"><ele>268.14285714285717</ele><time>2026-04-18T07:08:14.999Z</time></trkpt><trkpt lat="50.25967381495102" lon="5.273296483640562"><ele>268.57142857142856</ele><time>2026-04-18T07:08:20.999Z</time></trkpt><trkpt lat="50.25974389528144" lon="5.273309169451564"><ele>269.0</ele><time>2026-04-18T07:08:27.999Z</time></trkpt><trkpt lat="50.2598076730454" lon="5.273331079810327"><ele>270.42857142857144</ele><time>2026-04-18T07:08:32.999Z</time></trkpt><trkpt lat="50.25988445617861" lon="5.2733451206937145"><ele>271.8571428571429</ele><time>2026-04-18T07:08:39.999Z</time></trkpt><trkpt lat="50.25994963456579" lon="5.2733646635695575"><ele>273.2857142857143</ele><time>2026-04-18T07:08:44.999Z</time></trkpt><trkpt lat="50.26001688010546" lon="5.273394870091531"><ele>274.7142857142857</ele><time>2026-04-18T07:08:51.999Z</time></trkpt><trkpt lat="50.260089732026536" lon="5.273416884181756"><ele>276.1428571428571</ele><time>2026-04-18T07:08:58.999Z</time></trkpt><trkpt lat="50.26015302546654" lon="5.273444574484197"><ele>277.57142857142856</ele><time>2026-04-18T07:09:04.999Z</time></trkpt><trkpt lat="50.26021869979255" lon="5.273465028127456"><ele>279.0</ele><time>2026-04-18T07:09:11Z</time></trkpt><trkpt lat="50.26029231937479" lon="5.273490677613769"><ele>278.99999999999994</ele><time>2026-04-18T07:09:18Z</time></trkpt><trkpt lat="50.26035815774294" lon="5.273511690124006"><ele>279.0</ele><time>2026-04-18T07:09:24Z</time></trkpt><trkpt lat="50.260417929444564" lon="5.273547788456349"><ele>279.0</ele><time>2026-04-18T07:09:30Z</time></trkpt><trkpt lat="50.26048158036064" lon="5.2735575918978075"><ele>279.0</ele><time>2026-04-18T07:09:35Z</time></trkpt><trkpt lat="50.260547999123574" lon="5.273601192267636"><ele>279.0</ele><time>2026-04-18T07:09:43Z</time></trkpt><trkpt lat="50.26061424417244" lon="5.273631073197736"><ele>278.99999999999994</ele><time>2026-04-18T07:09:50Z</time></trkpt><trkpt lat="50.260685440576694" lon="5.2736501613812345"><ele>279.0</ele><time>2026-04-18T07:09:55Z</time></trkpt><trkpt lat="50.26075705307642" lon="5.273645078399305"><ele>280.2857142857143</ele><time>2026-04-18T07:10:01Z</time></trkpt><trkpt lat="50.26078907837087" lon="5.273557938007649"><ele>281.57142857142856</ele><time>2026-04-18T07:10:14.999Z</time></trkpt><trkpt lat="50.26078675275666" lon="5.27345665257844"><ele>282.8571428571429</ele><time>2026-04-18T07:10:21.999Z</time></trkpt><trkpt lat="50.26076690090772" lon="5.273354422024392"><ele>284.1428571428571</ele><time>2026-04-18T07:10:29.999Z</time></trkpt><trkpt lat="50.26074476205162" lon="5.2732517915929655"><ele>285.42857142857144</ele><time>2026-04-18T07:10:35.999Z</time></trkpt><trkpt lat="50.26075457036241" lon="5.273151316317137"><ele>286.7142857142857</ele><time>2026-04-18T07:10:40.999Z</time></trkpt><trkpt lat="50.260738750430114" lon="5.273047127018891"><ele>288.0</ele><time>2026-04-18T07:10:46.999Z</time></trkpt><trkpt lat="50.26073595818024" lon="5.272933486896388"><ele>288.7142857142857</ele><time>2026-04-18T07:10:53.999Z</time></trkpt><trkpt lat="50.2607706540203" lon="5.2728361225584734"><ele>289.42857142857144</ele><time>2026-04-18T07:11:02.999Z</time></trkpt><trkpt lat="50.26083427920126" lon="5.272813062908139"><ele>290.1428571428571</ele><time>2026-04-18T07:11:11.999Z</time></trkpt><trkpt lat="50.26090108739927" lon="5.272812627185919"><ele>290.8571428571429</ele><time>2026-04-18T07:11:18Z</time></trkpt><trkpt lat="50.26096790044284" lon="5.272817471086333"><ele>291.57142857142856</ele><time>2026-04-18T07:11:24Z</time></trkpt><trkpt lat="50.26103049325771" lon="5.272846209652911"><ele>292.2857142857143</ele><time>2026-04-18T07:11:32Z</time></trkpt><trkpt lat="50.2610996641425" lon="5.272846962764921"><ele>293.0</ele><time>2026-04-18T07:11:38Z</time></trkpt><trkpt lat="50.26116483066052" lon="5.272853120754061"><ele>292.99999999999994</ele><time>2026-04-18T07:11:43Z</time></trkpt><trkpt lat="50.26123601413959" lon="5.272832683142271"><ele>293.0</ele><time>2026-04-18T07:11:49Z</time></trkpt><trkpt lat="50.261309692196086" lon="5.272809919446914"><ele>293.0</ele><time>2026-04-18T07:11:56.999Z</time></trkpt><trkpt lat="50.26137279845856" lon="5.272790079620933"><ele>293.0</ele><time>2026-04-18T07:12:03.999Z</time></trkpt><trkpt lat="50.261446247638254" lon="5.27279474092707"><ele>293.0</ele><time>2026-04-18T07:12:09.999Z</time></trkpt><trkpt lat="50.26151355998862" lon="5.272755936306597"><ele>292.99999999999994</ele><time>2026-04-18T07:12:16.999Z</time></trkpt><trkpt lat="50.261581279897804" lon="5.272731499140253"><ele>293.0</ele><time>2026-04-18T07:12:23.999Z</time></trkpt><trkpt lat="50.261647315177754" lon="5.272698103786439"><ele>293.85714285714283</ele><time>2026-04-18T07:12:29.999Z</time></trkpt><trkpt lat="50.26171993364321" lon="5.272658075436091"><ele>294.7142857142857</ele><time>2026-04-18T07:12:37.999Z</time></trkpt><trkpt lat="50.261778489534805" lon="5.272608201634713"><ele>295.57142857142856</ele><time>2026-04-18T07:12:43.999Z</time></trkpt><trkpt lat="50.26184478064997" lon="5.272577439734608"><ele>296.42857142857144</ele><time>2026-04-18T07:12:50.999Z</time></trkpt><trkpt lat="50.26189720824649" lon="5.272515634887563"><ele>297.2857142857143</ele><time>2026-04-18T07:12:55.999Z</time></trkpt><trkpt lat="50.26195179343291" lon="5.272450695918125"><ele>298.1428571428571</ele><time>2026-04-18T07:13:03.999Z</time></trkpt><trkpt lat="50.26201353808714" lon="5.272397208872642"><ele>299.0</ele><time>2026-04-18T07:13:09.999Z</time></trkpt><trkpt lat="50.26208016491746" lon="5.272346049833783"><ele>299.0</ele><time>2026-04-18T07:13:15.999Z</time></trkpt><trkpt lat="50.26213658284326" lon="5.272282153488007"><ele>299.0</ele><time>2026-04-18T07:13:22Z</time></trkpt><trkpt lat="50.26220043035407" lon="5.27224237296098"><ele>299.0</ele><time>2026-04-18T07:13:27Z</time></trkpt><trkpt lat="50.262253979301335" lon="5.27218472099862"><ele>299.0</ele><time>2026-04-18T07:13:33Z</time></trkpt><trkpt lat="50.26232598172195" lon="5.272135697558415"><ele>299.0</ele><time>2026-04-18T07:13:41Z</time></trkpt><trkpt lat="50.262389236706234" lon="5.272070509942508"><ele>299.0</ele><time>2026-04-18T07:13:49.999Z</time></trkpt><trkpt lat="50.26245346305175" lon="5.272004785718261"><ele>299.0</ele><time>2026-04-18T07:13:54.999Z</time></trkpt><trkpt lat="50.26250840699204" lon="5.271947576609312"><ele>299.85714285714283</ele><time>2026-04-18T07:14:01.999Z</time></trkpt><trkpt lat="50.262567406435295" lon="5.271902185860679"><ele>300.7142857142857</ele><time>2026-04-18T07:14:07.999Z</time></trkpt><trkpt lat="50.26262616214228" lon="5.271827157195021"><ele>301.57142857142856</ele><time>2026-04-18T07:14:13.999Z</time></trkpt><trkpt lat="50.262689392210596" lon="5.271757607418898"><ele>302.42857142857144</ele><time>2026-04-18T07:14:19.999Z</time></trkpt><trkpt lat="50.262752625917585" lon="5.271775815891441"><ele>303.2857142857143</ele><time>2026-04-18T07:14:25.999Z</time></trkpt><trkpt lat="50.26279109572028" lon="5.271860350494985"><ele>304.14285714285717</ele><time>2026-04-18T07:14:34.999Z</time></trkpt><trkpt lat="50.2628189325054" lon="5.271967299970221"><ele>305.0</ele><time>2026-04-18T07:14:42.999Z</time></trkpt><trkpt lat="50.26285843101173" lon="5.272044545736019"><ele>305.0</ele><time>2026-04-18T07:14:47.999Z</time></trkpt><trkpt lat="50.26289765543662" lon="5.272135202727455"><ele>305.0</ele><time>2026-04-18T07:14:54.999Z</time></trkpt><trkpt lat="50.26293998357026" lon="5.272223142127369"><ele>305.0</ele><time>2026-04-18T07:14:59.999Z</time></trkpt><trkpt lat="50.26298642422035" lon="5.272291551960871"><ele>305.0</ele><time>2026-04-18T07:15:05.999Z</time></trkpt><trkpt lat="50.263004704199616" lon="5.272405120999264"><ele>305.0</ele><time>2026-04-18T07:15:12.999Z</time></trkpt><trkpt lat="50.26303191258211" lon="5.27249632088893"><ele>305.0</ele><time>2026-04-18T07:15:18.999Z</time></trkpt><trkpt lat="50.263061069743195" lon="5.2725875471116375"><ele>305.0</ele><time>2026-04-18T07:15:23.999Z</time></trkpt><trkpt lat="50.26308771803447" lon="5.272694260358423"><ele>304.7142857142857</ele><time>2026-04-18T07:15:30.999Z</time></trkpt><trkpt lat="50.2630915906962" lon="5.272797798910144"><ele>304.4285714285714</ele><time>2026-04-18T07:15:37.999Z</time></trkpt><trkpt lat="50.26312531462062" lon="5.272904760072966"><ele>304.1428571428571</ele><time>2026-04-18T07:15:43.999Z</time></trkpt><trkpt lat="50.26316765595724" lon="5.273005478433596"><ele>303.8571428571429</ele><time>2026-04-18T07:15:49.999Z</time></trkpt><trkpt lat="50.26318674240112" lon="5.273118150248454"><ele>303.57142857142856</ele><time>2026-04-18T07:15:56Z</time></trkpt><trkpt lat="50.26320462578025" lon="5.27321325013189"><ele>303.2857142857143</ele><time>2026-04-18T07:16:02Z</time></trkpt><trkpt lat="50.26321601599518" lon="5.273318701285258"><ele>303.0</ele><time>2026-04-18T07:16:08Z</time></trkpt><trkpt lat="50.263239424616685" lon="5.273411665763561"><ele>302.57142857142856</ele><time>2026-04-18T07:16:13Z</time></trkpt><trkpt lat="50.26326551415179" lon="5.273505956746062"><ele>302.1428571428571</ele><time>2026-04-18T07:16:18Z</time></trkpt><trkpt lat="50.263294926880796" lon="5.273604688999397"><ele>301.71428571428567</ele><time>2026-04-18T07:16:24Z</time></trkpt><trkpt lat="50.26332652767159" lon="5.273701072847862"><ele>301.2857142857143</ele><time>2026-04-18T07:16:29Z</time></trkpt><trkpt lat="50.26336520540208" lon="5.273789816100129"><ele>300.85714285714283</ele><time>2026-04-18T07:16:34Z</time></trkpt><trkpt lat="50.26339798907165" lon="5.2738864757577355"><ele>300.4285714285714</ele><time>2026-04-18T07:16:40Z</time></trkpt><trkpt lat="50.26343480976235" lon="5.273982504834735"><ele>300.0</ele><time>2026-04-18T07:16:45Z</time></trkpt><trkpt lat="50.263464346996265" lon="5.274076731243951"><ele>299.85714285714283</ele><time>2026-04-18T07:16:51Z</time></trkpt><trkpt lat="50.26349075654623" lon="5.274183398077742"><ele>299.7142857142857</ele><time>2026-04-18T07:16:58Z</time></trkpt><trkpt lat="50.26352221030863" lon="5.274285978594687"><ele>299.57142857142856</ele><time>2026-04-18T07:17:04Z</time></trkpt><trkpt lat="50.26355126034508" lon="5.27437897520029"><ele>299.42857142857144</ele><time>2026-04-18T07:17:11Z</time></trkpt><trkpt lat="50.263584887228554" lon="5.274464068119741"><ele>299.2857142857143</ele><time>2026-04-18T07:17:16Z</time></trkpt><trkpt lat="50.263611881912865" lon="5.2745638364605405"><ele>299.1428571428571</ele><time>2026-04-18T07:17:21Z</time></trkpt><trkpt lat="50.26364908046682" lon="5.274653112569725"><ele>299.0</ele><time>2026-04-18T07:17:26Z</time></trkpt><trkpt lat="50.26366135554003" lon="5.274764487160263"><ele>299.57142857142856</ele><time>2026-04-18T07:17:33Z</time></trkpt><trkpt lat="50.26367809379126" lon="5.27487917303587"><ele>300.14285714285717</ele><time>2026-04-18T07:17:39Z</time></trkpt><trkpt lat="50.26370127809743" lon="5.274982693450429"><ele>300.7142857142857</ele><time>2026-04-18T07:17:45Z</time></trkpt><trkpt lat="50.2637358509742" lon="5.275087905494211"><ele>301.2857142857143</ele><time>2026-04-18T07:17:52Z</time></trkpt><trkpt lat="50.26373984591473" lon="5.275189497982472"><ele>301.85714285714283</ele><time>2026-04-18T07:17:57Z</time></trkpt><trkpt lat="50.26376403438727" lon="5.275295023466073"><ele>302.42857142857144</ele><time>2026-04-18T07:18:02Z</time></trkpt><trkpt lat="50.26377006758976" lon="5.275418819154288"><ele>303.0</ele><time>2026-04-18T07:18:08Z</time></trkpt><trkpt lat="50.26379511672302" lon="5.275530480190845"><ele>303.2857142857143</ele><time>2026-04-18T07:18:14Z</time></trkpt><trkpt lat="50.26380625596061" lon="5.2756298380147015"><ele>303.57142857142856</ele><time>2026-04-18T07:18:20Z</time></trkpt><trkpt lat="50.26381314143852" lon="5.275736373011493"><ele>303.8571428571429</ele><time>2026-04-18T07:18:26Z</time></trkpt><trkpt lat="50.263823843669925" lon="5.275854815652854"><ele>304.1428571428571</ele><time>2026-04-18T07:18:32Z</time></trkpt><trkpt lat="50.2638660621143" lon="5.27594698882511"><ele>304.4285714285714</ele><time>2026-04-18T07:18:38Z</time></trkpt><trkpt lat="50.26388858236733" lon="5.276052675917382"><ele>304.7142857142857</ele><time>2026-04-18T07:18:43Z</time></trkpt><trkpt lat="50.26392010335378" lon="5.27614710146864"><ele>305.0</ele><time>2026-04-18T07:18:48Z</time></trkpt><trkpt lat="50.263948697371816" lon="5.276249976124649"><ele>304.2857142857143</ele><time>2026-04-18T07:18:55Z</time></trkpt><trkpt lat="50.26396771908155" lon="5.276346327365192"><ele>303.57142857142856</ele><time>2026-04-18T07:19:00Z</time></trkpt><trkpt lat="50.26400756428173" lon="5.276429697854525"><ele>302.85714285714283</ele><time>2026-04-18T07:19:05Z</time></trkpt><trkpt lat="50.264046658295086" lon="5.276522076974288"><ele>302.1428571428571</ele><time>2026-04-18T07:19:10Z</time></trkpt><trkpt lat="50.26408949521194" lon="5.276620492943729"><ele>301.42857142857144</ele><time>2026-04-18T07:19:20Z</time></trkpt><trkpt lat="50.26413107471841" lon="5.276716584239955"><ele>300.71428571428567</ele><time>2026-04-18T07:19:26Z</time></trkpt><trkpt lat="50.26417262539511" lon="5.27680326563937"><ele>300.0</ele><time>2026-04-18T07:19:32Z</time></trkpt><trkpt lat="50.26420715934408" lon="5.276894290449244"><ele>299.71428571428567</ele><time>2026-04-18T07:19:38Z</time></trkpt><trkpt lat="50.26421664344503" lon="5.2769987029155905"><ele>299.42857142857144</ele><time>2026-04-18T07:19:44Z</time></trkpt><trkpt lat="50.26420541034415" lon="5.277096176595834"><ele>299.1428571428571</ele><time>2026-04-18T07:19:51Z</time></trkpt><trkpt lat="50.26423387526464" lon="5.277190013439459"><ele>298.85714285714283</ele><time>2026-04-18T07:19:56Z</time></trkpt><trkpt lat="50.264245374115895" lon="5.277293248910438"><ele>298.57142857142856</ele><time>2026-04-18T07:20:02Z</time></trkpt><trkpt lat="50.26426428209309" lon="5.27739438529559"><ele>298.2857142857143</ele><time>2026-04-18T07:20:09Z</time></trkpt><trkpt lat="50.264277606871204" lon="5.277512478207279"><ele>298.0</ele><time>2026-04-18T07:20:15Z</time></trkpt><trkpt lat="50.264282300675376" lon="5.27761351127648"><ele>297.7142857142857</ele><time>2026-04-18T07:20:20Z</time></trkpt><trkpt lat="50.264298203164685" lon="5.277714555553538"><ele>297.4285714285714</ele><time>2026-04-18T07:20:25Z</time></trkpt><trkpt lat="50.26432269942044" lon="5.277807242379919"><ele>297.1428571428571</ele><time>2026-04-18T07:20:30Z</time></trkpt><trkpt lat="50.26432813538589" lon="5.277923600762667"><ele>296.85714285714283</ele><time>2026-04-18T07:20:36Z</time></trkpt><trkpt lat="50.264327339302646" lon="5.278022890758042"><ele>296.57142857142856</ele><time>2026-04-18T07:20:41Z</time></trkpt><trkpt lat="50.26433643373532" lon="5.2781391770509725"><ele>296.2857142857143</ele><time>2026-04-18T07:20:47Z</time></trkpt><trkpt lat="50.26433261590553" lon="5.27824976330381"><ele>296.0</ele><time>2026-04-18T07:20:53Z</time></trkpt><trkpt lat="50.264345767254795" lon="5.278362018011531"><ele>296.57142857142856</ele><time>2026-04-18T07:20:58Z</time></trkpt><trkpt lat="50.264351204963134" lon="5.278473073357459"><ele>297.1428571428571</ele><time>2026-04-18T07:21:03Z</time></trkpt><trkpt lat="50.26438467770858" lon="5.278584461732323"><ele>297.71428571428567</ele><time>2026-04-18T07:21:08Z</time></trkpt><trkpt lat="50.264352378420355" lon="5.278669794719787"><ele>298.2857142857143</ele><time>2026-04-18T07:21:14Z</time></trkpt><trkpt lat="50.26434742296552" lon="5.2787697694536595"><ele>298.85714285714283</ele><time>2026-04-18T07:21:20Z</time></trkpt><trkpt lat="50.26431686021395" lon="5.27886834846072"><ele>299.4285714285714</ele><time>2026-04-18T07:21:27Z</time></trkpt><trkpt lat="50.26432855552283" lon="5.278968781265222"><ele>300.0</ele><time>2026-04-18T07:21:31Z</time></trkpt><trkpt lat="50.26436692199963" lon="5.279065135804755"><ele>300.2857142857143</ele><time>2026-04-18T07:21:38Z</time></trkpt><trkpt lat="50.26435310203037" lon="5.2791854614476375"><ele>300.57142857142856</ele><time>2026-04-18T07:21:44Z</time></trkpt><trkpt lat="50.264383400676934" lon="5.279275000783015"><ele>300.8571428571429</ele><time>2026-04-18T07:21:49Z</time></trkpt><trkpt lat="50.26444274779582" lon="5.279310290882475"><ele>301.1428571428571</ele><time>2026-04-18T07:21:54Z</time></trkpt><trkpt lat="50.264491024972074" lon="5.27937921841107"><ele>301.42857142857144</ele><time>2026-04-18T07:21:59Z</time></trkpt><trkpt lat="50.264527447592144" lon="5.279463247645544"><ele>301.7142857142857</ele><time>2026-04-18T07:22:04Z</time></trkpt><trkpt lat="50.26456389407087" lon="5.279544494414637"><ele>302.0</ele><time>2026-04-18T07:22:09Z</time></trkpt><trkpt lat="50.26461805266185" lon="5.279608381577955"><ele>302.00000000000006</ele><time>2026-04-18T07:22:15Z</time></trkpt><trkpt lat="50.26465677153412" lon="5.279711141209174"><ele>302.0</ele><time>2026-04-18T07:22:20Z</time></trkpt><trkpt lat="50.264681007564604" lon="5.279838001627587"><ele>302.0</ele><time>2026-04-18T07:22:27Z</time></trkpt><trkpt lat="50.264732586312626" lon="5.279916063157626"><ele>302.0</ele><time>2026-04-18T07:22:32Z</time></trkpt><trkpt lat="50.264773616155864" lon="5.280013749919418"><ele>302.0</ele><time>2026-04-18T07:22:39Z</time></trkpt><trkpt lat="50.2648100182749" lon="5.280094874510835"><ele>302.00000000000006</ele><time>2026-04-18T07:22:44Z</time></trkpt><trkpt lat="50.264849848611085" lon="5.280181714832405"><ele>302.0</ele><time>2026-04-18T07:22:49Z</time></trkpt><trkpt lat="50.264881218226904" lon="5.280275222600593"><ele>301.5714285714286</ele><time>2026-04-18T07:22:55Z</time></trkpt><trkpt lat="50.264913531362424" lon="5.2803710764151495"><ele>301.14285714285717</ele><time>2026-04-18T07:23:02Z</time></trkpt><trkpt lat="50.26494526594891" lon="5.280457537777075"><ele>300.7142857142857</ele><time>2026-04-18T07:23:07Z</time></trkpt><trkpt lat="50.26498606588837" lon="5.280550077072808"><ele>300.28571428571433</ele><time>2026-04-18T07:23:12Z</time></trkpt><trkpt lat="50.265019901473934" lon="5.280637881998844"><ele>299.8571428571429</ele><time>2026-04-18T07:23:17Z</time></trkpt><trkpt lat="50.26506388765416" lon="5.280716954520165"><ele>299.42857142857144</ele><time>2026-04-18T07:23:22Z</time></trkpt><trkpt lat="50.26509791127058" lon="5.280818967778674"><ele>299.0</ele><time>2026-04-18T07:23:29Z</time></trkpt><trkpt lat="50.26512329516502" lon="5.280916038740188"><ele>299.0</ele><time>2026-04-18T07:23:35Z</time></trkpt><trkpt lat="50.265168547610386" lon="5.281006559441908"><ele>299.0</ele><time>2026-04-18T07:23:40Z</time></trkpt><trkpt lat="50.26521452424137" lon="5.281088470666604"><ele>299.0</ele><time>2026-04-18T07:23:45Z</time></trkpt><trkpt lat="50.26525903138844" lon="5.281167043607246"><ele>299.0</ele><time>2026-04-18T07:23:51Z</time></trkpt><trkpt lat="50.26529189332198" lon="5.281266478196887"><ele>299.0</ele><time>2026-04-18T07:23:57Z</time></trkpt><trkpt lat="50.265335721238806" lon="5.281341846399216"><ele>299.0</ele><time>2026-04-18T07:24:02Z</time></trkpt><trkpt lat="50.26537100133155" lon="5.281433211704828"><ele>299.0</ele><time>2026-04-18T07:24:08Z</time></trkpt><trkpt lat="50.26539333500365" lon="5.281543841685554"><ele>299.0</ele><time>2026-04-18T07:24:14Z</time></trkpt><trkpt lat="50.265436139641515" lon="5.2816321229634005"><ele>299.0</ele><time>2026-04-18T07:24:20Z</time></trkpt><trkpt lat="50.265477524447704" lon="5.281723862281394"><ele>299.0</ele><time>2026-04-18T07:24:25Z</time></trkpt><trkpt lat="50.26552132561274" lon="5.281803429789224"><ele>299.0</ele><time>2026-04-18T07:24:30Z</time></trkpt><trkpt lat="50.26556284605423" lon="5.2818860925403905"><ele>299.0</ele><time>2026-04-18T07:24:35Z</time></trkpt><trkpt lat="50.26559753864365" lon="5.281973056760037"><ele>299.0</ele><time>2026-04-18T07:24:40Z</time></trkpt><trkpt lat="50.26564272788375" lon="5.2820467609050334"><ele>299.0</ele><time>2026-04-18T07:24:45Z</time></trkpt><trkpt lat="50.26567370383366" lon="5.282136168691449"><ele>299.0</ele><time>2026-04-18T07:24:51Z</time></trkpt><trkpt lat="50.265721086191746" lon="5.2822078472817005"><ele>299.0</ele><time>2026-04-18T07:24:56Z</time></trkpt><trkpt lat="50.26575416720145" lon="5.282305010105402"><ele>299.0</ele><time>2026-04-18T07:25:03Z</time></trkpt><trkpt lat="50.2657841188112" lon="5.282402604067253"><ele>299.0</ele><time>2026-04-18T07:25:09Z</time></trkpt><trkpt lat="50.26583002902935" lon="5.282489702054264"><ele>299.0</ele><time>2026-04-18T07:25:14Z</time></trkpt><trkpt lat="50.26587761326375" lon="5.282599656818817"><ele>299.0</ele><time>2026-04-18T07:25:21Z</time></trkpt><trkpt lat="50.26592651050634" lon="5.282683800004765"><ele>299.0</ele><time>2026-04-18T07:25:26Z</time></trkpt><trkpt lat="50.265976599759476" lon="5.282775875358042"><ele>299.0</ele><time>2026-04-18T07:25:34Z</time></trkpt><trkpt lat="50.2660112467811" lon="5.282860867820138"><ele>299.0</ele><time>2026-04-18T07:25:41Z</time></trkpt><trkpt lat="50.26604186833062" lon="5.2829549562492595"><ele>299.0</ele><time>2026-04-18T07:25:46Z</time></trkpt><trkpt lat="50.26608205697075" lon="5.2830362545855545"><ele>299.0</ele><time>2026-04-18T07:25:51Z</time></trkpt><trkpt lat="50.26610909918597" lon="5.283135837653591"><ele>299.0</ele><time>2026-04-18T07:25:57Z</time></trkpt><trkpt lat="50.26612691604188" lon="5.283234585050644"><ele>299.0</ele><time>2026-04-18T07:26:03Z</time></trkpt><trkpt lat="50.26617615470143" lon="5.283305429377045"><ele>299.0</ele><time>2026-04-18T07:26:08Z</time></trkpt><trkpt lat="50.26622180833085" lon="5.283380875601927"><ele>299.0</ele><time>2026-04-18T07:26:12Z</time></trkpt><trkpt lat="50.266267933121995" lon="5.283457206307562"><ele>299.0</ele><time>2026-04-18T07:26:17Z</time></trkpt><trkpt lat="50.266321337553784" lon="5.283537546539973"><ele>299.0</ele><time>2026-04-18T07:26:23Z</time></trkpt><trkpt lat="50.26637220884618" lon="5.283624899833193"><ele>299.0</ele><time>2026-04-18T07:26:29Z</time></trkpt><trkpt lat="50.266404748555146" lon="5.2837323980883255"><ele>299.0</ele><time>2026-04-18T07:26:35Z</time></trkpt><trkpt lat="50.2664372999666" lon="5.283829679095614"><ele>299.0</ele><time>2026-04-18T07:26:41Z</time></trkpt><trkpt lat="50.26645937642162" lon="5.28392668593917"><ele>299.0</ele><time>2026-04-18T07:26:47Z</time></trkpt><trkpt lat="50.26649638905679" lon="5.284025072427413"><ele>299.42857142857144</ele><time>2026-04-18T07:26:53Z</time></trkpt><trkpt lat="50.266537955174336" lon="5.284107977901553"><ele>299.8571428571429</ele><time>2026-04-18T07:26:58Z</time></trkpt><trkpt lat="50.26657874912064" lon="5.284184847062136"><ele>300.28571428571433</ele><time>2026-04-18T07:27:03Z</time></trkpt><trkpt lat="50.266607812006434" lon="5.284285157980573"><ele>300.7142857142857</ele><time>2026-04-18T07:27:08Z</time></trkpt><trkpt lat="50.26664775110614" lon="5.284367235173367"><ele>301.14285714285717</ele><time>2026-04-18T07:27:14Z</time></trkpt><trkpt lat="50.26669738567845" lon="5.28444088935365"><ele>301.5714285714286</ele><time>2026-04-18T07:27:18Z</time></trkpt><trkpt lat="50.26673308952928" lon="5.2845326278033795"><ele>302.0</ele><time>2026-04-18T07:27:25Z</time></trkpt><trkpt lat="50.26677424820512" lon="5.284621929661133"><ele>302.00000000000006</ele><time>2026-04-18T07:27:30Z</time></trkpt><trkpt lat="50.2668088158671" lon="5.284721082659027"><ele>302.0</ele><time>2026-04-18T07:27:36Z</time></trkpt><trkpt lat="50.26684345417054" lon="5.284826484996761"><ele>302.0</ele><time>2026-04-18T07:27:42Z</time></trkpt><trkpt lat="50.2668746385158" lon="5.284916608010709"><ele>302.0</ele><time>2026-04-18T07:27:48Z</time></trkpt><trkpt lat="50.2669131947302" lon="5.285019447255813"><ele>302.0</ele><time>2026-04-18T07:27:53Z</time></trkpt><trkpt lat="50.266955392946926" lon="5.285113029511028"><ele>302.00000000000006</ele><time>2026-04-18T07:27:58Z</time></trkpt><trkpt lat="50.26699718115512" lon="5.285190811412968"><ele>302.0</ele><time>2026-04-18T07:28:04Z</time></trkpt><trkpt lat="50.26703150634044" lon="5.285279979412728"><ele>302.00000000000006</ele><time>2026-04-18T07:28:10Z</time></trkpt><trkpt lat="50.26707257794664" lon="5.285373720930122"><ele>302.0</ele><time>2026-04-18T07:28:15Z</time></trkpt><trkpt lat="50.267085456800814" lon="5.285480939981852"><ele>302.0</ele><time>2026-04-18T07:28:20Z</time></trkpt><trkpt lat="50.267125862069015" lon="5.285557763587268"><ele>302.0</ele><time>2026-04-18T07:28:25Z</time></trkpt><trkpt lat="50.26717945327159" lon="5.285628041699275"><ele>302.0</ele><time>2026-04-18T07:28:30Z</time></trkpt><trkpt lat="50.26721771780719" lon="5.285707296249094"><ele>302.00000000000006</ele><time>2026-04-18T07:28:35Z</time></trkpt><trkpt lat="50.26725824081021" lon="5.285795067273868"><ele>302.0</ele><time>2026-04-18T07:28:41Z</time></trkpt><trkpt lat="50.26730610898783" lon="5.285864880243172"><ele>301.8571428571429</ele><time>2026-04-18T07:28:47Z</time></trkpt><trkpt lat="50.26734235177487" lon="5.2859761610062135"><ele>301.7142857142857</ele><time>2026-04-18T07:28:52Z</time></trkpt><trkpt lat="50.26738519068825" lon="5.286051753995486"><ele>301.57142857142856</ele><time>2026-04-18T07:28:57Z</time></trkpt><trkpt lat="50.26743673798006" lon="5.28613414575311"><ele>301.42857142857144</ele><time>2026-04-18T07:29:03Z</time></trkpt><trkpt lat="50.26747890587348" lon="5.286223408068825"><ele>301.2857142857143</ele><time>2026-04-18T07:29:08Z</time></trkpt><trkpt lat="50.26752389668295" lon="5.2863122801956335"><ele>301.14285714285717</ele><time>2026-04-18T07:29:13Z</time></trkpt><trkpt lat="50.267547743493225" lon="5.286415593340062"><ele>301.0</ele><time>2026-04-18T07:29:19Z</time></trkpt><trkpt lat="50.26759303446953" lon="5.286497469788226"><ele>301.0</ele><time>2026-04-18T07:29:25Z</time></trkpt><trkpt lat="50.267625313483805" lon="5.286585014768512"><ele>301.0</ele><time>2026-04-18T07:29:30Z</time></trkpt><trkpt lat="50.26765560286757" lon="5.286692515893978"><ele>301.0</ele><time>2026-04-18T07:29:36Z</time></trkpt><trkpt lat="50.267703514996604" lon="5.286766127241521"><ele>301.0</ele><time>2026-04-18T07:29:41Z</time></trkpt><trkpt lat="50.26773580698518" lon="5.286861968854493"><ele>301.0</ele><time>2026-04-18T07:29:47Z</time></trkpt><trkpt lat="50.2677901679902" lon="5.286940328443278"><ele>301.0</ele><time>2026-04-18T07:29:52Z</time></trkpt><trkpt lat="50.26781373045735" lon="5.287039823509285"><ele>301.0</ele><time>2026-04-18T07:29:58Z</time></trkpt><trkpt lat="50.26785387144036" lon="5.287122800331123"><ele>301.0</ele><time>2026-04-18T07:30:03Z</time></trkpt><trkpt lat="50.2678869162605" lon="5.287221326732306"><ele>301.0</ele><time>2026-04-18T07:30:09Z</time></trkpt><trkpt lat="50.267917741212685" lon="5.287307325065688"><ele>301.0</ele><time>2026-04-18T07:30:14Z</time></trkpt><trkpt lat="50.26796938769673" lon="5.287390016724427"><ele>301.0</ele><time>2026-04-18T07:30:20Z</time></trkpt><trkpt lat="50.26801040558853" lon="5.28747402948382"><ele>301.0</ele><time>2026-04-18T07:30:25Z</time></trkpt><trkpt lat="50.268049613877665" lon="5.2875597152707545"><ele>301.0</ele><time>2026-04-18T07:30:29Z</time></trkpt><trkpt lat="50.26808448209347" lon="5.287662347797869"><ele>301.0</ele><time>2026-04-18T07:30:35Z</time></trkpt><trkpt lat="50.26812046033388" lon="5.28774493143654"><ele>300.57142857142856</ele><time>2026-04-18T07:30:39Z</time></trkpt><trkpt lat="50.268164851354385" lon="5.287826545039857"><ele>300.1428571428571</ele><time>2026-04-18T07:30:46Z</time></trkpt><trkpt lat="50.26819235159941" lon="5.287931320553737"><ele>299.7142857142857</ele><time>2026-04-18T07:30:51Z</time></trkpt><trkpt lat="50.26822613062779" lon="5.288016496208758"><ele>299.2857142857143</ele><time>2026-04-18T07:30:57Z</time></trkpt><trkpt lat="50.268267415243216" lon="5.288126632173233"><ele>298.85714285714283</ele><time>2026-04-18T07:31:03Z</time></trkpt><trkpt lat="50.268308507685084" lon="5.288208685614015"><ele>298.42857142857144</ele><time>2026-04-18T07:31:07Z</time></trkpt><trkpt lat="50.26835439885737" lon="5.288287215010371"><ele>298.0</ele><time>2026-04-18T07:31:12Z</time></trkpt><trkpt lat="50.268387546580946" lon="5.288387205962177"><ele>297.85714285714283</ele><time>2026-04-18T07:31:19Z</time></trkpt><trkpt lat="50.26842388674741" lon="5.28846899548381"><ele>297.71428571428567</ele><time>2026-04-18T07:31:24Z</time></trkpt><trkpt lat="50.26847879722337" lon="5.288546823598788"><ele>297.57142857142856</ele><time>2026-04-18T07:31:29Z</time></trkpt><trkpt lat="50.268511039762984" lon="5.28863244338338"><ele>297.42857142857144</ele><time>2026-04-18T07:31:33Z</time></trkpt><trkpt lat="50.26855416441425" lon="5.288738264279608"><ele>297.28571428571433</ele><time>2026-04-18T07:31:39Z</time></trkpt><trkpt lat="50.26859622899466" lon="5.28881313182926"><ele>297.14285714285717</ele><time>2026-04-18T07:31:44Z</time></trkpt><trkpt lat="50.268634506893775" lon="5.288894240401259"><ele>297.0</ele><time>2026-04-18T07:31:49Z</time></trkpt><trkpt lat="50.26867166798706" lon="5.288973931996627"><ele>296.2857142857143</ele><time>2026-04-18T07:31:54Z</time></trkpt><trkpt lat="50.2686988259417" lon="5.289068272751667"><ele>295.5714285714286</ele><time>2026-04-18T07:31:58Z</time></trkpt><trkpt lat="50.26873835879268" lon="5.289156716959192"><ele>294.8571428571429</ele><time>2026-04-18T07:32:04Z</time></trkpt><trkpt lat="50.268790410223886" lon="5.289229908296376"><ele>294.14285714285717</ele><time>2026-04-18T07:32:08Z</time></trkpt><trkpt lat="50.268835209404195" lon="5.28931444288591"><ele>293.42857142857144</ele><time>2026-04-18T07:32:14Z</time></trkpt><trkpt lat="50.2688810075731" lon="5.289388506168315"><ele>292.7142857142857</ele><time>2026-04-18T07:32:29Z</time></trkpt><trkpt lat="50.26888519430623" lon="5.289501509104041"><ele>292.0</ele><time>2026-04-18T07:32:36Z</time></trkpt><trkpt lat="50.26887995054251" lon="5.289602959519208"><ele>292.0</ele><time>2026-04-18T07:32:41Z</time></trkpt><trkpt lat="50.26889398687717" lon="5.289709310766097"><ele>292.0</ele><time>2026-04-18T07:32:47Z</time></trkpt><trkpt lat="50.26891602132626" lon="5.289804970315857"><ele>292.0</ele><time>2026-04-18T07:32:53Z</time></trkpt><trkpt lat="50.26892899403177" lon="5.2899089192988145"><ele>292.0</ele><time>2026-04-18T07:32:58Z</time></trkpt><trkpt lat="50.26895546177698" lon="5.290020020975222"><ele>292.0</ele><time>2026-04-18T07:33:03Z</time></trkpt><trkpt lat="50.26896649985451" lon="5.2901268319063295"><ele>292.0</ele><time>2026-04-18T07:33:09Z</time></trkpt><trkpt lat="50.26897118359669" lon="5.290230048226517"><ele>292.0</ele><time>2026-04-18T07:33:14Z</time></trkpt><trkpt lat="50.26898830952307" lon="5.290326020733905"><ele>291.42857142857144</ele><time>2026-04-18T07:33:20Z</time></trkpt><trkpt lat="50.26900572393685" lon="5.2904328467261275"><ele>290.8571428571429</ele><time>2026-04-18T07:33:25Z</time></trkpt><trkpt lat="50.269017782817876" lon="5.290542359497739"><ele>290.28571428571433</ele><time>2026-04-18T07:33:30Z</time></trkpt><trkpt lat="50.26901786931917" lon="5.290659800802248"><ele>289.7142857142857</ele><time>2026-04-18T07:33:35Z</time></trkpt><trkpt lat="50.269034288627125" lon="5.290758486536794"><ele>289.14285714285717</ele><time>2026-04-18T07:33:40Z</time></trkpt><trkpt lat="50.26906063843946" lon="5.290864021161759"><ele>288.5714285714286</ele><time>2026-04-18T07:33:45Z</time></trkpt><trkpt lat="50.26907236280606" lon="5.290971805700823"><ele>288.0</ele><time>2026-04-18T07:33:50Z</time></trkpt><trkpt lat="50.26908924039839" lon="5.291066891410186"><ele>287.8571428571429</ele><time>2026-04-18T07:33:55Z</time></trkpt><trkpt lat="50.26910885595176" lon="5.291161147584724"><ele>287.7142857142857</ele><time>2026-04-18T07:34:00Z</time></trkpt><trkpt lat="50.26911260220171" lon="5.2912702693089715"><ele>287.57142857142856</ele><time>2026-04-18T07:34:06Z</time></trkpt><trkpt lat="50.26911525397712" lon="5.291391338255223"><ele>287.42857142857144</ele><time>2026-04-18T07:34:12Z</time></trkpt><trkpt lat="50.26913086362019" lon="5.291496060381235"><ele>287.2857142857143</ele><time>2026-04-18T07:34:17Z</time></trkpt><trkpt lat="50.26914084812216" lon="5.291596838679006"><ele>287.14285714285717</ele><time>2026-04-18T07:34:22Z</time></trkpt><trkpt lat="50.26915089918173" lon="5.291711594902399"><ele>287.0</ele><time>2026-04-18T07:34:28Z</time></trkpt><trkpt lat="50.2691574922143" lon="5.291817230874814"><ele>286.57142857142856</ele><time>2026-04-18T07:34:33Z</time></trkpt><trkpt lat="50.269158824712235" lon="5.291922654137231"><ele>286.1428571428571</ele><time>2026-04-18T07:34:38Z</time></trkpt><trkpt lat="50.26917790227705" lon="5.292020712612057"><ele>285.7142857142857</ele><time>2026-04-18T07:34:43Z</time></trkpt><trkpt lat="50.26920166961399" lon="5.292137025928416"><ele>285.2857142857143</ele><time>2026-04-18T07:34:48Z</time></trkpt><trkpt lat="50.2692120648791" lon="5.292239978642921"><ele>284.85714285714283</ele><time>2026-04-18T07:34:53Z</time></trkpt><trkpt lat="50.26923567000568" lon="5.292356432309259"><ele>284.42857142857144</ele><time>2026-04-18T07:34:59Z</time></trkpt><trkpt lat="50.26924568174284" lon="5.292458477002352"><ele>284.0</ele><time>2026-04-18T07:35:05Z</time></trkpt><trkpt lat="50.26926181121956" lon="5.292571924151306"><ele>283.85714285714283</ele><time>2026-04-18T07:35:10Z</time></trkpt><trkpt lat="50.269283424988686" lon="5.292690055430489"><ele>283.71428571428567</ele><time>2026-04-18T07:35:17Z</time></trkpt><trkpt lat="50.2693000190263" lon="5.292795449282743"><ele>283.57142857142856</ele><time>2026-04-18T07:35:22Z</time></trkpt><trkpt lat="50.269312847532916" lon="5.29290512329154"><ele>283.42857142857144</ele><time>2026-04-18T07:35:29Z</time></trkpt><trkpt lat="50.269338530684294" lon="5.293012567366773"><ele>283.28571428571433</ele><time>2026-04-18T07:35:34Z</time></trkpt><trkpt lat="50.26934676520555" lon="5.293132579525952"><ele>283.14285714285717</ele><time>2026-04-18T07:35:39Z</time></trkpt><trkpt lat="50.269354654597635" lon="5.2932329870684445"><ele>283.0</ele><time>2026-04-18T07:35:44Z</time></trkpt><trkpt lat="50.26937828316999" lon="5.293347428189335"><ele>283.0</ele><time>2026-04-18T07:35:51Z</time></trkpt><trkpt lat="50.26944154645198" lon="5.293387867944639"><ele>283.0</ele><time>2026-04-18T07:35:57Z</time></trkpt><trkpt lat="50.269498532199755" lon="5.293317535083299"><ele>283.0</ele><time>2026-04-18T07:36:03Z</time></trkpt><trkpt lat="50.26952453579062" lon="5.293210275857575"><ele>283.0</ele><time>2026-04-18T07:36:14Z</time></trkpt><trkpt lat="50.26956727450516" lon="5.293122738096722"><ele>283.0</ele><time>2026-04-18T07:36:20Z</time></trkpt><trkpt lat="50.26958667189633" lon="5.293012701670055"><ele>283.0</ele><time>2026-04-18T07:36:26Z</time></trkpt><trkpt lat="50.2696155012669" lon="5.29290600836591"><ele>283.0</ele><time>2026-04-18T07:36:35Z</time></trkpt><trkpt lat="50.269615884924825" lon="5.292805457651869"><ele>283.0</ele><time>2026-04-18T07:36:41Z</time></trkpt><trkpt lat="50.26963128829828" lon="5.292697369323706"><ele>283.0</ele><time>2026-04-18T07:36:46Z</time></trkpt><trkpt lat="50.269668887676886" lon="5.292605062740776"><ele>283.0</ele><time>2026-04-18T07:36:51Z</time></trkpt><trkpt lat="50.2696800195071" lon="5.2924957041437155"><ele>283.0</ele><time>2026-04-18T07:36:57Z</time></trkpt><trkpt lat="50.26969974533859" lon="5.292389711638347"><ele>283.0</ele><time>2026-04-18T07:37:02Z</time></trkpt><trkpt lat="50.26972685861714" lon="5.292287832497074"><ele>283.0</ele><time>2026-04-18T07:37:08Z</time></trkpt><trkpt lat="50.269748688872525" lon="5.292190230134267"><ele>283.0</ele><time>2026-04-18T07:37:14Z</time></trkpt><trkpt lat="50.26976869501855" lon="5.292076445970442"><ele>283.14285714285717</ele><time>2026-04-18T07:37:20Z</time></trkpt><trkpt lat="50.269800208867615" lon="5.2919782200131715"><ele>283.28571428571433</ele><time>2026-04-18T07:37:25Z</time></trkpt><trkpt lat="50.26982801694785" lon="5.2918868946446995"><ele>283.42857142857144</ele><time>2026-04-18T07:37:31Z</time></trkpt><trkpt lat="50.26986181814396" lon="5.291798754232821"><ele>283.57142857142856</ele><time>2026-04-18T07:37:37Z</time></trkpt><trkpt lat="50.269872106799895" lon="5.291687670924098"><ele>283.71428571428567</ele><time>2026-04-18T07:37:44Z</time></trkpt><trkpt lat="50.26990027983002" lon="5.291583142234187"><ele>283.85714285714283</ele><time>2026-04-18T07:37:49Z</time></trkpt><trkpt lat="50.269929215154484" lon="5.291482058854066"><ele>284.0</ele><time>2026-04-18T07:37:54Z</time></trkpt><trkpt lat="50.26994653496802" lon="5.291373407388647"><ele>284.0</ele><time>2026-04-18T07:38:01Z</time></trkpt><trkpt lat="50.269980154887634" lon="5.2912788179195624"><ele>284.0</ele><time>2026-04-18T07:38:07Z</time></trkpt><trkpt lat="50.27001164900337" lon="5.291177330857899"><ele>284.0</ele><time>2026-04-18T07:38:13Z</time></trkpt><trkpt lat="50.27004938629645" lon="5.2910814164093845"><ele>284.0</ele><time>2026-04-18T07:38:19Z</time></trkpt><trkpt lat="50.270088626891756" lon="5.290999544155226"><ele>284.0</ele><time>2026-04-18T07:38:25Z</time></trkpt><trkpt lat="50.27014651618" lon="5.2909500354466985"><ele>284.0</ele><time>2026-04-18T07:38:31Z</time></trkpt><trkpt lat="50.27021486277828" lon="5.290906726838704"><ele>284.0</ele><time>2026-04-18T07:38:38Z</time></trkpt><trkpt lat="50.27027888858445" lon="5.2909156932386585"><ele>284.0</ele><time>2026-04-18T07:38:44Z</time></trkpt><trkpt lat="50.27034163961034" lon="5.290924429834171"><ele>284.0</ele><time>2026-04-18T07:38:50Z</time></trkpt><trkpt lat="50.27041563770113" lon="5.290934865478898"><ele>284.0</ele><time>2026-04-18T07:38:56Z</time></trkpt><trkpt lat="50.270494500746416" lon="5.2909424602879405"><ele>284.0</ele><time>2026-04-18T07:39:02Z</time></trkpt><trkpt lat="50.27056954866864" lon="5.2909465017299535"><ele>284.0</ele><time>2026-04-18T07:39:07Z</time></trkpt><trkpt lat="50.270644349043955" lon="5.290939938313133"><ele>284.0</ele><time>2026-04-18T07:39:13Z</time></trkpt><trkpt lat="50.27071024852285" lon="5.2909150945480485"><ele>284.0</ele><time>2026-04-18T07:39:20Z</time></trkpt><trkpt lat="50.27077826608232" lon="5.290862562000337"><ele>283.1428571428571</ele><time>2026-04-18T07:39:26Z</time></trkpt><trkpt lat="50.270825020653554" lon="5.290791753656159"><ele>282.2857142857143</ele><time>2026-04-18T07:39:32Z</time></trkpt><trkpt lat="50.27086949975348" lon="5.290709656715508"><ele>281.42857142857144</ele><time>2026-04-18T07:39:39Z</time></trkpt><trkpt lat="50.270935549129966" lon="5.290713309798539"><ele>280.57142857142856</ele><time>2026-04-18T07:39:44Z</time></trkpt><trkpt lat="50.27099768666283" lon="5.290643390918667"><ele>279.7142857142857</ele><time>2026-04-18T07:39:49Z</time></trkpt><trkpt lat="50.27102626288493" lon="5.2905528164082805"><ele>278.85714285714283</ele><time>2026-04-18T07:39:54Z</time></trkpt><trkpt lat="50.271064051942176" lon="5.290455343735735"><ele>278.0</ele><time>2026-04-18T07:40:00Z</time></trkpt><trkpt lat="50.271084735513455" lon="5.29035116470086"><ele>278.0</ele><time>2026-04-18T07:40:07Z</time></trkpt><trkpt lat="50.271128611542615" lon="5.290277923670493"><ele>278.0</ele><time>2026-04-18T07:40:11Z</time></trkpt><trkpt lat="50.27116061677479" lon="5.29018485718629"><ele>278.0</ele><time>2026-04-18T07:40:16Z</time></trkpt><trkpt lat="50.27121000584219" lon="5.290111442313124"><ele>278.0</ele><time>2026-04-18T07:40:22Z</time></trkpt><trkpt lat="50.27126232709212" lon="5.290030103879981"><ele>278.0</ele><time>2026-04-18T07:40:29Z</time></trkpt><trkpt lat="50.27131311400258" lon="5.28996945075497"><ele>278.0</ele><time>2026-04-18T07:40:33Z</time></trkpt><trkpt lat="50.27137601542011" lon="5.28992908897773"><ele>278.0</ele><time>2026-04-18T07:40:41Z</time></trkpt><trkpt lat="50.27144495392645" lon="5.289893401306842"><ele>277.7142857142857</ele><time>2026-04-18T07:40:47Z</time></trkpt><trkpt lat="50.27152152304598" lon="5.289840361307858"><ele>277.42857142857144</ele><time>2026-04-18T07:40:52Z</time></trkpt><trkpt lat="50.271584119521464" lon="5.289782709586356"><ele>277.14285714285717</ele><time>2026-04-18T07:40:57Z</time></trkpt><trkpt lat="50.27165306519656" lon="5.28976079962075"><ele>276.8571428571429</ele><time>2026-04-18T07:41:03Z</time></trkpt><trkpt lat="50.27171728906758" lon="5.289763304072643"><ele>276.5714285714286</ele><time>2026-04-18T07:41:10Z</time></trkpt><trkpt lat="50.27178816572256" lon="5.289778944522616"><ele>276.2857142857143</ele><time>2026-04-18T07:41:17Z</time></trkpt><trkpt lat="50.2718618570686" lon="5.289802963036903"><ele>276.0</ele><time>2026-04-18T07:41:23Z</time></trkpt><trkpt lat="50.27192528636744" lon="5.289826969026419"><ele>276.0</ele><time>2026-04-18T07:41:30Z</time></trkpt><trkpt lat="50.27199404012028" lon="5.289845323606255"><ele>276.0</ele><time>2026-04-18T07:41:36Z</time></trkpt><trkpt lat="50.27207556002144" lon="5.289863843231106"><ele>276.0</ele><time>2026-04-18T07:41:42Z</time></trkpt><trkpt lat="50.272144794625056" lon="5.289882618561648"><ele>276.0</ele><time>2026-04-18T07:41:47Z</time></trkpt><trkpt lat="50.272206591975255" lon="5.289918787083905"><ele>276.0</ele><time>2026-04-18T07:41:52Z</time></trkpt><trkpt lat="50.272271058899236" lon="5.289955053690076"><ele>276.0</ele><time>2026-04-18T07:41:57Z</time></trkpt><trkpt lat="50.272338175412166" lon="5.28997194545128"><ele>276.0</ele><time>2026-04-18T07:42:03Z</time></trkpt><trkpt lat="50.27241032718709" lon="5.290007234257632"><ele>275.7142857142857</ele><time>2026-04-18T07:42:08Z</time></trkpt><trkpt lat="50.27248225938278" lon="5.290033532720774"><ele>275.42857142857144</ele><time>2026-04-18T07:42:14Z</time></trkpt><trkpt lat="50.27255062524467" lon="5.290044429025699"><ele>275.14285714285717</ele><time>2026-04-18T07:42:20Z</time></trkpt><trkpt lat="50.27261711049375" lon="5.29007850796139"><ele>274.8571428571429</ele><time>2026-04-18T07:42:26Z</time></trkpt><trkpt lat="50.272682824646964" lon="5.290094789495139"><ele>274.57142857142856</ele><time>2026-04-18T07:42:31Z</time></trkpt><trkpt lat="50.27275744028902" lon="5.29012948953396"><ele>274.28571428571433</ele><time>2026-04-18T07:42:37Z</time></trkpt><trkpt lat="50.27282609741263" lon="5.2901681309812165"><ele>274.0</ele><time>2026-04-18T07:42:42Z</time></trkpt><trkpt lat="50.27290105168786" lon="5.2901926667215315"><ele>274.00000000000006</ele><time>2026-04-18T07:42:48Z</time></trkpt><trkpt lat="50.27296465700207" lon="5.290212797444597"><ele>274.0</ele><time>2026-04-18T07:42:53Z</time></trkpt><trkpt lat="50.27303269360966" lon="5.290262147333591"><ele>274.0</ele><time>2026-04-18T07:42:58Z</time></trkpt><trkpt lat="50.273092540799176" lon="5.290325601320407"><ele>274.0</ele><time>2026-04-18T07:43:03Z</time></trkpt><trkpt lat="50.27315521400165" lon="5.290370587885587"><ele>274.0</ele><time>2026-04-18T07:43:08Z</time></trkpt><trkpt lat="50.2732285976638" lon="5.290412866529624"><ele>274.00000000000006</ele><time>2026-04-18T07:43:14Z</time></trkpt><trkpt lat="50.27329167155258" lon="5.290472039666754"><ele>274.0</ele><time>2026-04-18T07:43:20Z</time></trkpt><trkpt lat="50.273360406654426" lon="5.290506075242911"><ele>273.28571428571433</ele><time>2026-04-18T07:43:26Z</time></trkpt><trkpt lat="50.27342762895286" lon="5.290539557385213"><ele>272.57142857142856</ele><time>2026-04-18T07:43:33Z</time></trkpt><trkpt lat="50.273494524981025" lon="5.290575035773197"><ele>271.8571428571429</ele><time>2026-04-18T07:43:38Z</time></trkpt><trkpt lat="50.27355883915052" lon="5.2906019457601134"><ele>271.14285714285717</ele><time>2026-04-18T07:43:43Z</time></trkpt><trkpt lat="50.273616314329765" lon="5.2906485055949215"><ele>270.42857142857144</ele><time>2026-04-18T07:43:48Z</time></trkpt><trkpt lat="50.27367842262951" lon="5.290678409414007"><ele>269.7142857142857</ele><time>2026-04-18T07:43:53Z</time></trkpt><trkpt lat="50.27374081137902" lon="5.29071421123779"><ele>269.0</ele><time>2026-04-18T07:43:58Z</time></trkpt><trkpt lat="50.273801734343174" lon="5.290769838105836"><ele>269.0</ele><time>2026-04-18T07:44:04Z</time></trkpt><trkpt lat="50.273870352025476" lon="5.290795173260316"><ele>269.0</ele><time>2026-04-18T07:44:09Z</time></trkpt><trkpt lat="50.27392899702037" lon="5.290850920469272"><ele>269.0</ele><time>2026-04-18T07:44:14Z</time></trkpt><trkpt lat="50.273994457416876" lon="5.290911717930298"><ele>269.0</ele><time>2026-04-18T07:44:20Z</time></trkpt><trkpt lat="50.274059272077146" lon="5.290939296270264"><ele>269.0</ele><time>2026-04-18T07:44:26Z</time></trkpt><trkpt lat="50.27412114711434" lon="5.290983976684939"><ele>269.0</ele><time>2026-04-18T07:44:32Z</time></trkpt><trkpt lat="50.27419157654881" lon="5.291005139717392"><ele>269.0</ele><time>2026-04-18T07:44:39Z</time></trkpt><trkpt lat="50.27425553364318" lon="5.291020878918098"><ele>268.2857142857143</ele><time>2026-04-18T07:44:45Z</time></trkpt><trkpt lat="50.27432538896425" lon="5.291036076376456"><ele>267.5714285714286</ele><time>2026-04-18T07:44:50Z</time></trkpt><trkpt lat="50.27439175792747" lon="5.291037540375306"><ele>266.8571428571429</ele><time>2026-04-18T07:44:56Z</time></trkpt><trkpt lat="50.27446387271493" lon="5.291054456616194"><ele>266.14285714285717</ele><time>2026-04-18T07:45:02Z</time></trkpt><trkpt lat="50.27453534021953" lon="5.291050567622328"><ele>265.42857142857144</ele><time>2026-04-18T07:45:07Z</time></trkpt><trkpt lat="50.274598144785564" lon="5.291040111948261"><ele>264.7142857142857</ele><time>2026-04-18T07:45:12Z</time></trkpt><trkpt lat="50.274666726735234" lon="5.291027215214453"><ele>264.0</ele><time>2026-04-18T07:45:17Z</time></trkpt><trkpt lat="50.274738283767086" lon="5.290986009461365"><ele>263.0</ele><time>2026-04-18T07:45:22Z</time></trkpt><trkpt lat="50.27480280439947" lon="5.2909566992105805"><ele>262.0</ele><time>2026-04-18T07:45:27Z</time></trkpt><trkpt lat="50.274875675034174" lon="5.290920532478022"><ele>261.0</ele><time>2026-04-18T07:45:33Z</time></trkpt><trkpt lat="50.274941472673326" lon="5.29090734135578"><ele>260.0</ele><time>2026-04-18T07:45:39Z</time></trkpt><trkpt lat="50.27500704196207" lon="5.290874169551304"><ele>259.0</ele><time>2026-04-18T07:45:43Z</time></trkpt><trkpt lat="50.27507256224081" lon="5.2908734253415375"><ele>258.0</ele><time>2026-04-18T07:45:49Z</time></trkpt><trkpt lat="50.27514570337335" lon="5.290886837168315"><ele>257.0</ele><time>2026-04-18T07:45:55Z</time></trkpt><trkpt lat="50.27521224323389" lon="5.290889416452326"><ele>257.0</ele><time>2026-04-18T07:46:00Z</time></trkpt><trkpt lat="50.27527789190787" lon="5.29090421999559"><ele>257.0</ele><time>2026-04-18T07:46:05Z</time></trkpt><trkpt lat="50.27534442816198" lon="5.290903955820124"><ele>257.0</ele><time>2026-04-18T07:46:10Z</time></trkpt><trkpt lat="50.275410442870616" lon="5.290948022419922"><ele>257.0</ele><time>2026-04-18T07:46:16Z</time></trkpt><trkpt lat="50.275479331038134" lon="5.290974669786293"><ele>257.0</ele><time>2026-04-18T07:46:21Z</time></trkpt><trkpt lat="50.275545226705745" lon="5.291030856604127"><ele>257.0</ele><time>2026-04-18T07:46:27Z</time></trkpt><trkpt lat="50.27560421611029" lon="5.291101804085375"><ele>257.0</ele><time>2026-04-18T07:46:33Z</time></trkpt><trkpt lat="50.275670406168494" lon="5.291157092252617"><ele>255.85714285714283</ele><time>2026-04-18T07:46:39Z</time></trkpt><trkpt lat="50.27572421621983" lon="5.291221449836234"><ele>254.71428571428572</ele><time>2026-04-18T07:46:45Z</time></trkpt><trkpt lat="50.275789523590475" lon="5.291293900656214"><ele>253.57142857142856</ele><time>2026-04-18T07:46:51Z</time></trkpt><trkpt lat="50.27583377655886" lon="5.291367450447371"><ele>252.42857142857142</ele><time>2026-04-18T07:46:56Z</time></trkpt><trkpt lat="50.27588573291826" lon="5.291439104815951"><ele>251.28571428571428</ele><time>2026-04-18T07:47:01Z</time></trkpt><trkpt lat="50.27593126252076" lon="5.291508066121953"><ele>250.14285714285714</ele><time>2026-04-18T07:47:05Z</time></trkpt><trkpt lat="50.27597828892452" lon="5.291575791716834"><ele>249.0</ele><time>2026-04-18T07:47:10Z</time></trkpt><trkpt lat="50.27603238735439" lon="5.291632172121539"><ele>249.0</ele><time>2026-04-18T07:47:15Z</time></trkpt><trkpt lat="50.27607177787657" lon="5.2917303046555535"><ele>248.99999999999997</ele><time>2026-04-18T07:47:21Z</time></trkpt><trkpt lat="50.27612796564277" lon="5.291801205913755"><ele>249.0</ele><time>2026-04-18T07:47:26Z</time></trkpt><trkpt lat="50.27618172451828" lon="5.291878539043932"><ele>249.0</ele><time>2026-04-18T07:47:33Z</time></trkpt><trkpt lat="50.276233339415555" lon="5.291950232631258"><ele>248.99999999999997</ele><time>2026-04-18T07:47:38Z</time></trkpt><trkpt lat="50.27627215875858" lon="5.292033588976381"><ele>249.0</ele><time>2026-04-18T07:47:43Z</time></trkpt><trkpt lat="50.27631039998256" lon="5.292121500329605"><ele>249.0</ele><time>2026-04-18T07:47:48Z</time></trkpt><trkpt lat="50.276366071228466" lon="5.29218157285673"><ele>249.28571428571428</ele><time>2026-04-18T07:47:53Z</time></trkpt><trkpt lat="50.27642166892622" lon="5.292259038081293"><ele>249.57142857142856</ele><time>2026-04-18T07:47:57Z</time></trkpt><trkpt lat="50.27646205103568" lon="5.2923416822234906"><ele>249.85714285714283</ele><time>2026-04-18T07:48:03Z</time></trkpt><trkpt lat="50.27651319073514" lon="5.292417014592249"><ele>250.1428571428571</ele><time>2026-04-18T07:48:09Z</time></trkpt><trkpt lat="50.276552718662835" lon="5.29250619574529"><ele>250.42857142857142</ele><time>2026-04-18T07:48:15Z</time></trkpt><trkpt lat="50.276601375637156" lon="5.29258430981455"><ele>250.71428571428567</ele><time>2026-04-18T07:48:20Z</time></trkpt><trkpt lat="50.27664409407131" lon="5.292664900330723"><ele>250.99999999999997</ele><time>2026-04-18T07:48:26Z</time></trkpt><trkpt lat="50.27668738672282" lon="5.292741372626479"><ele>249.71428571428567</ele><time>2026-04-18T07:48:32Z</time></trkpt><trkpt lat="50.27674181971511" lon="5.292806333370881"><ele>248.42857142857142</ele><time>2026-04-18T07:48:38Z</time></trkpt><trkpt lat="50.27679519747132" lon="5.292860629436822"><ele>247.1428571428571</ele><time>2026-04-18T07:48:43Z</time></trkpt><trkpt lat="50.27685678574149" lon="5.292909991576194"><ele>245.85714285714283</ele><time>2026-04-18T07:48:49Z</time></trkpt><trkpt lat="50.27692248240528" lon="5.292945377742426"><ele>244.57142857142856</ele><time>2026-04-18T07:48:53Z</time></trkpt><trkpt lat="50.276986163408026" lon="5.29299413787739"><ele>243.28571428571428</ele><time>2026-04-18T07:48:58Z</time></trkpt><trkpt lat="50.2770455519682" lon="5.293047745717871"><ele>242.0</ele><time>2026-04-18T07:49:03Z</time></trkpt><trkpt lat="50.27710531007021" lon="5.293095142908974"><ele>241.7142857142857</ele><time>2026-04-18T07:49:08Z</time></trkpt><trkpt lat="50.277163061946794" lon="5.293147477705769"><ele>241.4285714285714</ele><time>2026-04-18T07:49:13Z</time></trkpt><trkpt lat="50.27722269368064" lon="5.293202220234328"><ele>241.14285714285714</ele><time>2026-04-18T07:49:18Z</time></trkpt><trkpt lat="50.27727328890356" lon="5.293264004884485"><ele>240.85714285714283</ele><time>2026-04-18T07:49:24Z</time></trkpt><trkpt lat="50.27732968043883" lon="5.293325902594389"><ele>240.57142857142856</ele><time>2026-04-18T07:49:30Z</time></trkpt><trkpt lat="50.277373731391265" lon="5.293402211353645"><ele>240.28571428571428</ele><time>2026-04-18T07:49:35Z</time></trkpt><trkpt lat="50.27742590350615" lon="5.293459237529294"><ele>240.0</ele><time>2026-04-18T07:49:40Z</time></trkpt><trkpt lat="50.277472306084945" lon="5.293535580855501"><ele>239.0</ele><time>2026-04-18T07:49:46Z</time></trkpt><trkpt lat="50.27752749563098" lon="5.293608997981752"><ele>238.0</ele><time>2026-04-18T07:49:51Z</time></trkpt><trkpt lat="50.27756653019556" lon="5.293693732941592"><ele>237.0</ele><time>2026-04-18T07:49:56Z</time></trkpt><trkpt lat="50.27761610018059" lon="5.293775593805218"><ele>236.0</ele><time>2026-04-18T07:50:01Z</time></trkpt><trkpt lat="50.27765438786655" lon="5.293856852632466"><ele>235.0</ele><time>2026-04-18T07:50:06Z</time></trkpt><trkpt lat="50.27770032006684" lon="5.2939454861652075"><ele>234.0</ele><time>2026-04-18T07:50:12Z</time></trkpt><trkpt lat="50.27774940791894" lon="5.294008811980687"><ele>233.0</ele><time>2026-04-18T07:50:16Z</time></trkpt><trkpt lat="50.277815038207585" lon="5.2940735923916735"><ele>233.0</ele><time>2026-04-18T07:50:22Z</time></trkpt><trkpt lat="50.277873779201876" lon="5.2941319578128585"><ele>233.0</ele><time>2026-04-18T07:50:29Z</time></trkpt><trkpt lat="50.27792943861619" lon="5.294194187469152"><ele>233.0</ele><time>2026-04-18T07:50:35Z</time></trkpt><trkpt lat="50.277967088866994" lon="5.294298882071302"><ele>233.0</ele><time>2026-04-18T07:50:41Z</time></trkpt><trkpt lat="50.278021984106395" lon="5.29437592062044"><ele>233.0</ele><time>2026-04-18T07:50:47Z</time></trkpt><trkpt lat="50.278074244777066" lon="5.294450522841607"><ele>233.0</ele><time>2026-04-18T07:50:53Z</time></trkpt><trkpt lat="50.27812426373176" lon="5.294518333792415"><ele>233.0</ele><time>2026-04-18T07:50:57Z</time></trkpt><trkpt lat="50.27817843001509" lon="5.29460218030125"><ele>232.16666666666669</ele><time>2026-04-18T07:51:03Z</time></trkpt><trkpt lat="50.27823244194636" lon="5.294691846433819"><ele>231.33333333333334</ele><time>2026-04-18T07:51:10Z</time></trkpt><trkpt lat="50.27827556344385" lon="5.294792517824179"><ele>230.5</ele><time>2026-04-18T07:51:15Z</time></trkpt><trkpt lat="50.27830773471154" lon="5.294887090968964"><ele>229.66666666666669</ele><time>2026-04-18T07:51:20Z</time></trkpt><trkpt lat="50.278339087709" lon="5.29497408967336"><ele>228.83333333333334</ele><time>2026-04-18T07:51:26Z</time></trkpt><trkpt lat="50.27840345329626" lon="5.295053832803544"><ele>228.0</ele><time>2026-04-18T07:51:33Z</time></trkpt><trkpt lat="50.27845855527227" lon="5.295142377229777"><ele>228.0</ele><time>2026-04-18T07:51:38Z</time></trkpt><trkpt lat="50.27851240135305" lon="5.29519617426963"><ele>227.99999999999997</ele><time>2026-04-18T07:51:42Z</time></trkpt><trkpt lat="50.27858753653194" lon="5.295224072842894"><ele>228.0</ele><time>2026-04-18T07:51:47Z</time></trkpt><trkpt lat="50.27865754300585" lon="5.295234432391605"><ele>228.0</ele><time>2026-04-18T07:51:51.999Z</time></trkpt><trkpt lat="50.27873331028469" lon="5.295247728678852"><ele>227.99999999999997</ele><time>2026-04-18T07:51:56.999Z</time></trkpt><trkpt lat="50.278803917791784" lon="5.29526532560254"><ele>228.0</ele><time>2026-04-18T07:52:01.999Z</time></trkpt><trkpt lat="50.278824846842824" lon="5.295377607994894"><ele>228.0</ele><time>2026-04-18T07:52:07.999Z</time></trkpt><trkpt lat="50.278808556454536" lon="5.295491185986607"><ele>228.7142857142857</ele><time>2026-04-18T07:52:13.999Z</time></trkpt><trkpt lat="50.27879039357385" lon="5.2955885469590935"><ele>229.4285714285714</ele><time>2026-04-18T07:52:19.999Z</time></trkpt><trkpt lat="50.278737750690865" lon="5.29567142873133"><ele>230.14285714285714</ele><time>2026-04-18T07:52:24.999Z</time></trkpt><trkpt lat="50.278675294861536" lon="5.295733922492802"><ele>230.85714285714283</ele><time>2026-04-18T07:52:29.999Z</time></trkpt><trkpt lat="50.27864583534696" lon="5.295836090101731"><ele>231.57142857142856</ele><time>2026-04-18T07:52:37.999Z</time></trkpt><trkpt lat="50.27870754271843" lon="5.295881412140218"><ele>232.28571428571428</ele><time>2026-04-18T07:52:52.999Z</time></trkpt><trkpt lat="50.27875104669708" lon="5.295962252037847"><ele>233.0</ele><time>2026-04-18T07:52:58.999Z</time></trkpt><trkpt lat="50.27881746687903" lon="5.29598519333921"><ele>233.0</ele><time>2026-04-18T07:53:03.999Z</time></trkpt><trkpt lat="50.27882929405262" lon="5.296087133101396"><ele>233.0</ele><time>2026-04-18T07:53:09.999Z</time></trkpt><trkpt lat="50.278853761294684" lon="5.296204837026298"><ele>233.0</ele><time>2026-04-18T07:53:14.999Z</time></trkpt><trkpt lat="50.27889856076885" lon="5.2963015011390215"><ele>233.0</ele><time>2026-04-18T07:53:21.999Z</time></trkpt><trkpt lat="50.278937686630016" lon="5.296390189455259"><ele>233.0</ele><time>2026-04-18T07:53:26.999Z</time></trkpt><trkpt lat="50.27899947664078" lon="5.296445163186277"><ele>233.0</ele><time>2026-04-18T07:53:31.999Z</time></trkpt><trkpt lat="50.27904006039282" lon="5.296529165248553"><ele>233.0</ele><time>2026-04-18T07:53:38Z</time></trkpt><trkpt lat="50.27909606319858" lon="5.2965756611811745"><ele>231.85714285714286</ele><time>2026-04-18T07:53:45Z</time></trkpt><trkpt lat="50.27914689871649" lon="5.29665181184401"><ele>230.71428571428572</ele><time>2026-04-18T07:53:53Z</time></trkpt><trkpt lat="50.27917930459579" lon="5.296737688666953"><ele>229.57142857142858</ele><time>2026-04-18T07:54:00Z</time></trkpt><trkpt lat="50.27923177640623" lon="5.296795979348735"><ele>228.42857142857144</ele><time>2026-04-18T07:54:05Z</time></trkpt><trkpt lat="50.27929473906107" lon="5.2968661240065815"><ele>227.28571428571428</ele><time>2026-04-18T07:54:13Z</time></trkpt><trkpt lat="50.2793295181785" lon="5.296958696946932"><ele>226.14285714285717</ele><time>2026-04-18T07:54:18Z</time></trkpt><trkpt lat="50.27938295242044" lon="5.297040037399063"><ele>225.00000000000003</ele><time>2026-04-18T07:54:24Z</time></trkpt><trkpt lat="50.27943384675787" lon="5.297120265145493"><ele>225.00000000000003</ele><time>2026-04-18T07:54:30.999Z</time></trkpt><trkpt lat="50.279496198465445" lon="5.297181128997012"><ele>225.0</ele><time>2026-04-18T07:54:34.999Z</time></trkpt><trkpt lat="50.279552775443904" lon="5.2972419981936785"><ele>225.00000000000003</ele><time>2026-04-18T07:54:40.999Z</time></trkpt><trkpt lat="50.27959631833965" lon="5.297328862355083"><ele>225.00000000000003</ele><time>2026-04-18T07:54:46.999Z</time></trkpt><trkpt lat="50.27963053451261" lon="5.297416838492988"><ele>225.0</ele><time>2026-04-18T07:54:52.999Z</time></trkpt><trkpt lat="50.27968412572098" lon="5.297487865095738"><ele>225.00000000000003</ele><time>2026-04-18T07:54:58.999Z</time></trkpt><trkpt lat="50.27973613271307" lon="5.297567945590683"><ele>225.00000000000003</ele><time>2026-04-18T07:55:03.999Z</time></trkpt><trkpt lat="50.27978328941146" lon="5.297653189409473"><ele>225.14285714285717</ele><time>2026-04-18T07:55:09.999Z</time></trkpt><trkpt lat="50.27981914805903" lon="5.297744583617325"><ele>225.28571428571428</ele><time>2026-04-18T07:55:15.999Z</time></trkpt><trkpt lat="50.27986128989466" lon="5.297827103917335"><ele>225.42857142857144</ele><time>2026-04-18T07:55:20.999Z</time></trkpt><trkpt lat="50.27991901024296" lon="5.297884986430976"><ele>225.57142857142858</ele><time>2026-04-18T07:55:26.999Z</time></trkpt><trkpt lat="50.27997452032006" lon="5.297963807057381"><ele>225.71428571428572</ele><time>2026-04-18T07:55:32.999Z</time></trkpt><trkpt lat="50.280027918421204" lon="5.298043041172006"><ele>225.85714285714286</ele><time>2026-04-18T07:55:38.999Z</time></trkpt><trkpt lat="50.280077648871476" lon="5.298120529905596"><ele>226.0</ele><time>2026-04-18T07:55:45.999Z</time></trkpt><trkpt lat="50.28012846308989" lon="5.298192333230464"><ele>226.0</ele><time>2026-04-18T07:55:50.999Z</time></trkpt><trkpt lat="50.28018713287987" lon="5.298263568175892"><ele>226.0</ele><time>2026-04-18T07:55:56.999Z</time></trkpt><trkpt lat="50.28023319569482" lon="5.29834683707583"><ele>226.0</ele><time>2026-04-18T07:56:01.999Z</time></trkpt><trkpt lat="50.28027474775522" lon="5.298438844096026"><ele>226.0</ele><time>2026-04-18T07:56:07.999Z</time></trkpt><trkpt lat="50.280313493873756" lon="5.298522092931166"><ele>226.0</ele><time>2026-04-18T07:56:12.999Z</time></trkpt><trkpt lat="50.28036568882906" lon="5.298582373058437"><ele>226.0</ele><time>2026-04-18T07:56:18.999Z</time></trkpt><trkpt lat="50.28041021033859" lon="5.298687810677441"><ele>226.0</ele><time>2026-04-18T07:56:24.999Z</time></trkpt><trkpt lat="50.280447447320945" lon="5.298779389550844"><ele>226.0</ele><time>2026-04-18T07:56:30.999Z</time></trkpt><trkpt lat="50.28049127405582" lon="5.298857187143306"><ele>226.0</ele><time>2026-04-18T07:56:36.999Z</time></trkpt><trkpt lat="50.28054349264481" lon="5.2989146247300365"><ele>226.0</ele><time>2026-04-18T07:56:40.999Z</time></trkpt><trkpt lat="50.28058604277445" lon="5.298995356941299"><ele>226.0</ele><time>2026-04-18T07:56:45.999Z</time></trkpt><trkpt lat="50.28062646798722" lon="5.2990759041856075"><ele>226.0</ele><time>2026-04-18T07:56:49.999Z</time></trkpt><trkpt lat="50.280664517049296" lon="5.299156090808359"><ele>226.0</ele><time>2026-04-18T07:56:54.999Z</time></trkpt><trkpt lat="50.280725087578105" lon="5.299220927290583"><ele>226.0</ele><time>2026-04-18T07:57:12.999Z</time></trkpt><trkpt lat="50.28078772417063" lon="5.299231035184721"><ele>225.0</ele><time>2026-04-18T07:57:21.999Z</time></trkpt><trkpt lat="50.28084775641022" lon="5.299185903342445"><ele>224.0</ele><time>2026-04-18T07:57:27.999Z</time></trkpt><trkpt lat="50.28090268530819" lon="5.299129594009748"><ele>223.0</ele><time>2026-04-18T07:57:32Z</time></trkpt><trkpt lat="50.28097129766184" lon="5.299072806816983"><ele>222.0</ele><time>2026-04-18T07:57:37Z</time></trkpt><trkpt lat="50.281024277294" lon="5.299006567900416"><ele>221.0</ele><time>2026-04-18T07:57:42Z</time></trkpt><trkpt lat="50.28106156522359" lon="5.298918756732258"><ele>220.0</ele><time>2026-04-18T07:57:47Z</time></trkpt><trkpt lat="50.28110562079691" lon="5.298828790814936"><ele>219.0</ele><time>2026-04-18T07:57:56Z</time></trkpt><trkpt lat="50.28117211857437" lon="5.298831109802424"><ele>219.0</ele><time>2026-04-18T07:58:09Z</time></trkpt><trkpt lat="50.28121873923136" lon="5.298913569915845"><ele>219.0</ele><time>2026-04-18T07:58:17Z</time></trkpt><trkpt lat="50.28128615475272" lon="5.298964766387278"><ele>219.0</ele><time>2026-04-18T07:58:22Z</time></trkpt><trkpt lat="50.28135269207646" lon="5.299011895810747"><ele>219.0</ele><time>2026-04-18T07:58:29Z</time></trkpt><trkpt lat="50.28141773906682" lon="5.29905686175027"><ele>219.0</ele><time>2026-04-18T07:58:35Z</time></trkpt><trkpt lat="50.28148003112235" lon="5.299089072593508"><ele>219.0</ele><time>2026-04-18T07:58:40Z</time></trkpt><trkpt lat="50.281537800784115" lon="5.299130245471068"><ele>219.0</ele><time>2026-04-18T07:58:47Z</time></trkpt><trkpt lat="50.28159947036487" lon="5.2991713717226"><ele>219.0</ele><time>2026-04-18T07:58:54Z</time></trkpt><trkpt lat="50.28166046643363" lon="5.299212315605109"><ele>219.0</ele><time>2026-04-18T07:59:00Z</time></trkpt><trkpt lat="50.28171970265718" lon="5.299258051475591"><ele>219.0</ele><time>2026-04-18T07:59:06.999Z</time></trkpt><trkpt lat="50.2817652058515" lon="5.299328592555949"><ele>219.0</ele><time>2026-04-18T07:59:13.999Z</time></trkpt><trkpt lat="50.2818256570954" lon="5.29935649146985"><ele>219.0</ele><time>2026-04-18T07:59:20.999Z</time></trkpt><trkpt lat="50.28190679456202" lon="5.299335015338295"><ele>219.0</ele><time>2026-04-18T07:59:27.999Z</time></trkpt><trkpt lat="50.28195916073608" lon="5.299275166983658"><ele>219.0</ele><time>2026-04-18T07:59:49Z</time></trkpt><trkpt lat="50.28200819547203" lon="5.2991929562094"><ele>219.0</ele><time>2026-04-18T07:59:59Z</time></trkpt><trkpt lat="50.2820617451232" lon="5.299117935129877"><ele>219.0</ele><time>2026-04-18T08:00:07Z</time></trkpt><trkpt lat="50.282113038374774" lon="5.299050657567231"><ele>219.0</ele><time>2026-04-18T08:00:17Z</time></trkpt><trkpt lat="50.2821663721335" lon="5.298982054058103"><ele>219.0</ele><time>2026-04-18T08:00:26Z</time></trkpt><trkpt lat="50.28220608056912" lon="5.2988950479460675"><ele>219.0</ele><time>2026-04-18T08:00:34Z</time></trkpt><trkpt lat="50.28226722802544" lon="5.298826859903486"><ele>219.0</ele><time>2026-04-18T08:00:42Z</time></trkpt><trkpt lat="50.28231680619202" lon="5.298762276944815"><ele>219.0</ele><time>2026-04-18T08:00:48Z</time></trkpt><trkpt lat="50.2823837949709" lon="5.298693166815838"><ele>220.28571428571428</ele><time>2026-04-18T08:00:56Z</time></trkpt><trkpt lat="50.282454776101126" lon="5.298639763823654"><ele>221.57142857142856</ele><time>2026-04-18T08:01:05Z</time></trkpt><trkpt lat="50.28252052670783" lon="5.2986005962342775"><ele>222.85714285714283</ele><time>2026-04-18T08:01:12.999Z</time></trkpt><trkpt lat="50.28257285300679" lon="5.298535154462074"><ele>224.14285714285714</ele><time>2026-04-18T08:01:19.999Z</time></trkpt><trkpt lat="50.28262789149244" lon="5.298476667873191"><ele>225.4285714285714</ele><time>2026-04-18T08:01:25.999Z</time></trkpt><trkpt lat="50.282687507323594" lon="5.2984229299186865"><ele>226.7142857142857</ele><time>2026-04-18T08:01:34.999Z</time></trkpt><trkpt lat="50.28274084274377" lon="5.298360954051559"><ele>228.0</ele><time>2026-04-18T08:01:44Z</time></trkpt><trkpt lat="50.282798471978154" lon="5.298316064221563"><ele>228.0</ele><time>2026-04-18T08:01:51Z</time></trkpt><trkpt lat="50.282852213547294" lon="5.298263701432569"><ele>227.99999999999997</ele><time>2026-04-18T08:01:56Z</time></trkpt><trkpt lat="50.28289937203608" lon="5.298197913349134"><ele>228.0</ele><time>2026-04-18T08:02:03Z</time></trkpt><trkpt lat="50.2829480539485" lon="5.298128097165064"><ele>228.0</ele><time>2026-04-18T08:02:15Z</time></trkpt><trkpt lat="50.28301202981273" lon="5.298089193101047"><ele>227.99999999999997</ele><time>2026-04-18T08:02:22Z</time></trkpt><trkpt lat="50.28308284228343" lon="5.298087010881448"><ele>228.0</ele><time>2026-04-18T08:04:52.999Z</time></trkpt><trkpt lat="50.283152883498666" lon="5.298059111669309"><ele>228.0</ele><time>2026-04-18T08:04:59.999Z</time></trkpt><trkpt lat="50.28322497717135" lon="5.2980363707053355"><ele>229.28571428571428</ele><time>2026-04-18T08:05:05.999Z</time></trkpt><trkpt lat="50.283291456210726" lon="5.297996380167379"><ele>230.57142857142856</ele><time>2026-04-18T08:05:12.999Z</time></trkpt><trkpt lat="50.283362797144896" lon="5.297965341232758"><ele>231.85714285714283</ele><time>2026-04-18T08:05:18.999Z</time></trkpt><trkpt lat="50.283428801533674" lon="5.297962396174457"><ele>233.1428571428571</ele><time>2026-04-18T08:05:25.999Z</time></trkpt><trkpt lat="50.28349931387231" lon="5.297935046784207"><ele>234.42857142857142</ele><time>2026-04-18T08:05:32.999Z</time></trkpt><trkpt lat="50.283567856766346" lon="5.297938719899814"><ele>235.71428571428567</ele><time>2026-04-18T08:05:39.999Z</time></trkpt><trkpt lat="50.28362910740653" lon="5.297961683377266"><ele>236.99999999999997</ele><time>2026-04-18T08:05:45.999Z</time></trkpt><trkpt lat="50.28369389130392" lon="5.297983287081433"><ele>236.99999999999997</ele><time>2026-04-18T08:05:52.999Z</time></trkpt><trkpt lat="50.28375750470924" lon="5.298002509794064"><ele>237.0</ele><time>2026-04-18T08:05:59.999Z</time></trkpt><trkpt lat="50.28382155197073" lon="5.298033766911181"><ele>236.99999999999997</ele><time>2026-04-18T08:06:06.999Z</time></trkpt><trkpt lat="50.28388652075873" lon="5.2980604032399015"><ele>236.99999999999997</ele><time>2026-04-18T08:06:14.999Z</time></trkpt><trkpt lat="50.28394777810815" lon="5.298110224800273"><ele>237.0</ele><time>2026-04-18T08:06:22Z</time></trkpt><trkpt lat="50.284003720960285" lon="5.298171000501185"><ele>236.99999999999997</ele><time>2026-04-18T08:06:29Z</time></trkpt><trkpt lat="50.2840676068737" lon="5.298213192370628"><ele>236.99999999999997</ele><time>2026-04-18T08:06:36Z</time></trkpt><trkpt lat="50.28413580047159" lon="5.298248279092505"><ele>237.85714285714283</ele><time>2026-04-18T08:06:42Z</time></trkpt><trkpt lat="50.284204864330704" lon="5.298279245560249"><ele>238.71428571428572</ele><time>2026-04-18T08:06:47Z</time></trkpt><trkpt lat="50.28427061846818" lon="5.298311468923642"><ele>239.57142857142856</ele><time>2026-04-18T08:06:53Z</time></trkpt><trkpt lat="50.28434054265568" lon="5.2983298206544545"><ele>240.42857142857142</ele><time>2026-04-18T08:06:59Z</time></trkpt><trkpt lat="50.28440666303414" lon="5.298335752124059"><ele>241.28571428571428</ele><time>2026-04-18T08:07:04Z</time></trkpt><trkpt lat="50.28447456242478" lon="5.298318869421719"><ele>242.14285714285714</ele><time>2026-04-18T08:07:10Z</time></trkpt><trkpt lat="50.28453936806149" lon="5.298310633829755"><ele>243.0</ele><time>2026-04-18T08:07:16Z</time></trkpt><trkpt lat="50.284600040574134" lon="5.298261966678822"><ele>243.0</ele><time>2026-04-18T08:07:20Z</time></trkpt><trkpt lat="50.284663741923936" lon="5.298228295059449"><ele>243.0</ele><time>2026-04-18T08:07:24.999Z</time></trkpt><trkpt lat="50.284735687542344" lon="5.2982036805260435"><ele>243.0</ele><time>2026-04-18T08:07:30.999Z</time></trkpt><trkpt lat="50.28480900492994" lon="5.298198401520557"><ele>243.0</ele><time>2026-04-18T08:07:36.999Z</time></trkpt><trkpt lat="50.28488021522834" lon="5.298186057729697"><ele>243.0</ele><time>2026-04-18T08:07:42.999Z</time></trkpt><trkpt lat="50.28494479210148" lon="5.298169784086611"><ele>243.0</ele><time>2026-04-18T08:07:49.999Z</time></trkpt><trkpt lat="50.285019834873786" lon="5.29818747977437"><ele>243.0</ele><time>2026-04-18T08:07:57Z</time></trkpt><trkpt lat="50.2850846313913" lon="5.298170334640081"><ele>243.57142857142856</ele><time>2026-04-18T08:08:02Z</time></trkpt><trkpt lat="50.285145846768735" lon="5.298131721455681"><ele>244.14285714285717</ele><time>2026-04-18T08:08:07.999Z</time></trkpt><trkpt lat="50.285210084262886" lon="5.298117720423787"><ele>244.71428571428572</ele><time>2026-04-18T08:08:13.999Z</time></trkpt><trkpt lat="50.28527648319098" lon="5.298084752907951"><ele>245.28571428571428</ele><time>2026-04-18T08:08:19Z</time></trkpt><trkpt lat="50.28534664711464" lon="5.298056514106785"><ele>245.85714285714283</ele><time>2026-04-18T08:08:26Z</time></trkpt><trkpt lat="50.28540988452041" lon="5.298040495287886"><ele>246.42857142857144</ele><time>2026-04-18T08:08:31Z</time></trkpt><trkpt lat="50.28547245914364" lon="5.298019248000528"><ele>247.0</ele><time>2026-04-18T08:08:36Z</time></trkpt><trkpt lat="50.28553838816101" lon="5.29799473578911"><ele>248.14285714285717</ele><time>2026-04-18T08:08:43Z</time></trkpt><trkpt lat="50.28561032834554" lon="5.297967954590255"><ele>249.28571428571428</ele><time>2026-04-18T08:08:49Z</time></trkpt><trkpt lat="50.28567235981825" lon="5.297947593147716"><ele>250.42857142857144</ele><time>2026-04-18T08:08:55Z</time></trkpt><trkpt lat="50.285742534547296" lon="5.2979078125183685"><ele>251.57142857142858</ele><time>2026-04-18T08:09:00.999Z</time></trkpt><trkpt lat="50.285805519123564" lon="5.297870243771627"><ele>252.71428571428572</ele><time>2026-04-18T08:09:05.999Z</time></trkpt><trkpt lat="50.28586887529075" lon="5.297842248556545"><ele>253.85714285714286</ele><time>2026-04-18T08:09:11.999Z</time></trkpt><trkpt lat="50.28593594487159" lon="5.297796534733313"><ele>255.0</ele><time>2026-04-18T08:09:17.999Z</time></trkpt><trkpt lat="50.28600049390399" lon="5.297764352070599"><ele>255.0</ele><time>2026-04-18T08:09:22.999Z</time></trkpt><trkpt lat="50.28606375043694" lon="5.297735418352997"><ele>255.00000000000003</ele><time>2026-04-18T08:09:28.999Z</time></trkpt><trkpt lat="50.28613312710802" lon="5.29769377783133"><ele>255.0</ele><time>2026-04-18T08:09:34.999Z</time></trkpt><trkpt lat="50.28619637038731" lon="5.297650822938006"><ele>255.0</ele><time>2026-04-18T08:09:40.999Z</time></trkpt><trkpt lat="50.28625664780913" lon="5.297583562863353"><ele>255.00000000000003</ele><time>2026-04-18T08:09:46.999Z</time></trkpt><trkpt lat="50.28631289112478" lon="5.2975152060550625"><ele>255.0</ele><time>2026-04-18T08:09:51.999Z</time></trkpt><trkpt lat="50.28636912743428" lon="5.297464045635149"><ele>255.0</ele><time>2026-04-18T08:09:57.999Z</time></trkpt><trkpt lat="50.28637407281778" lon="5.297562948184308"><ele>255.0</ele><time>2026-04-18T08:10:04Z</time></trkpt><trkpt lat="50.28635184179825" lon="5.297665166204366"><ele>255.00000000000003</ele><time>2026-04-18T08:10:09.999Z</time></trkpt><trkpt lat="50.28630838291011" lon="5.29776341953189"><ele>255.0</ele><time>2026-04-18T08:10:15.999Z</time></trkpt><trkpt lat="50.28626921177733" lon="5.297845981134369"><ele>255.0</ele><time>2026-04-18T08:10:21.999Z</time></trkpt><trkpt lat="50.28621524734977" lon="5.297911745656943"><ele>255.00000000000003</ele><time>2026-04-18T08:10:28.999Z</time></trkpt><trkpt lat="50.28615631813451" lon="5.297962378982009"><ele>255.0</ele><time>2026-04-18T08:10:34.999Z</time></trkpt><trkpt lat="50.28609495413642" lon="5.298047597528039"><ele>255.0</ele><time>2026-04-18T08:10:40.999Z</time></trkpt><trkpt lat="50.28603955004883" lon="5.298124980355979"><ele>254.71428571428572</ele><time>2026-04-18T08:10:46.999Z</time></trkpt><trkpt lat="50.28599482897812" lon="5.29820760474035"><ele>254.42857142857144</ele><time>2026-04-18T08:10:51.999Z</time></trkpt><trkpt lat="50.28593706971945" lon="5.298279550491537"><ele>254.14285714285717</ele><time>2026-04-18T08:10:57.999Z</time></trkpt><trkpt lat="50.285907434879185" lon="5.298370563092045"><ele>253.8571428571429</ele><time>2026-04-18T08:11:02.999Z</time></trkpt><trkpt lat="50.28585767050494" lon="5.29843766497023"><ele>253.57142857142858</ele><time>2026-04-18T08:11:07.999Z</time></trkpt><trkpt lat="50.28580913028665" lon="5.298511257082769"><ele>253.28571428571433</ele><time>2026-04-18T08:11:13.999Z</time></trkpt><trkpt lat="50.28576482374773" lon="5.298586887568715"><ele>253.00000000000003</ele><time>2026-04-18T08:11:17.999Z</time></trkpt><trkpt lat="50.28569918074869" lon="5.298651462626881"><ele>253.00000000000003</ele><time>2026-04-18T08:11:22.999Z</time></trkpt><trkpt lat="50.28564897350347" lon="5.298725583636019"><ele>253.0</ele><time>2026-04-18T08:11:28.999Z</time></trkpt><trkpt lat="50.28560550898457" lon="5.298821805834057"><ele>253.00000000000003</ele><time>2026-04-18T08:11:34.999Z</time></trkpt><trkpt lat="50.28556274431073" lon="5.298908229387698"><ele>253.00000000000003</ele><time>2026-04-18T08:11:40Z</time></trkpt><trkpt lat="50.28552919126826" lon="5.298996543735655"><ele>253.0</ele><time>2026-04-18T08:11:45Z</time></trkpt><trkpt lat="50.28548558400406" lon="5.299085147172376"><ele>253.00000000000003</ele><time>2026-04-18T08:11:51Z</time></trkpt><trkpt lat="50.285440769751666" lon="5.299160038535341"><ele>253.00000000000003</ele><time>2026-04-18T08:11:57Z</time></trkpt><trkpt lat="50.28540016281597" lon="5.299245094058783"><ele>252.28571428571433</ele><time>2026-04-18T08:12:02Z</time></trkpt><trkpt lat="50.285341468748186" lon="5.299326309483037"><ele>251.57142857142858</ele><time>2026-04-18T08:12:08Z</time></trkpt><trkpt lat="50.28529368058426" lon="5.29939950004036"><ele>250.8571428571429</ele><time>2026-04-18T08:12:14Z</time></trkpt><trkpt lat="50.28524118960559" lon="5.299459768402696"><ele>250.14285714285717</ele><time>2026-04-18T08:12:20Z</time></trkpt><trkpt lat="50.28519485960697" lon="5.299546544908398"><ele>249.42857142857144</ele><time>2026-04-18T08:12:25Z</time></trkpt><trkpt lat="50.2851415220583" lon="5.29962202783146"><ele>248.71428571428572</ele><time>2026-04-18T08:12:31Z</time></trkpt><trkpt lat="50.28510118911675" lon="5.299708012357794"><ele>248.0</ele><time>2026-04-18T08:12:36Z</time></trkpt><trkpt lat="50.28504920994545" lon="5.299764668334717"><ele>247.85714285714286</ele><time>2026-04-18T08:12:41Z</time></trkpt><trkpt lat="50.2849960960084" lon="5.299861337549473"><ele>247.71428571428572</ele><time>2026-04-18T08:12:47Z</time></trkpt><trkpt lat="50.28493173148397" lon="5.29993657516174"><ele>247.57142857142858</ele><time>2026-04-18T08:12:54Z</time></trkpt><trkpt lat="50.28487788852324" lon="5.300013576248341"><ele>247.42857142857144</ele><time>2026-04-18T08:13:01Z</time></trkpt><trkpt lat="50.28481984181864" lon="5.300059785131617"><ele>247.28571428571428</ele><time>2026-04-18T08:13:06Z</time></trkpt><trkpt lat="50.28476193865133" lon="5.300110430284652"><ele>247.14285714285717</ele><time>2026-04-18T08:13:11Z</time></trkpt><trkpt lat="50.28469244978992" lon="5.3001734981962985"><ele>247.0</ele><time>2026-04-18T08:13:17Z</time></trkpt><trkpt lat="50.28463565687529" lon="5.300227377272943"><ele>246.71428571428572</ele><time>2026-04-18T08:13:23Z</time></trkpt><trkpt lat="50.284573731882084" lon="5.3003007202805925"><ele>246.42857142857142</ele><time>2026-04-18T08:13:28Z</time></trkpt><trkpt lat="50.28452169043492" lon="5.300362345689447"><ele>246.14285714285714</ele><time>2026-04-18T08:13:33Z</time></trkpt><trkpt lat="50.28447189684011" lon="5.30044878677296"><ele>245.85714285714286</ele><time>2026-04-18T08:13:38Z</time></trkpt><trkpt lat="50.284411753371266" lon="5.300511171912625"><ele>245.57142857142856</ele><time>2026-04-18T08:13:44Z</time></trkpt><trkpt lat="50.284378110526795" lon="5.300600111381845"><ele>245.28571428571428</ele><time>2026-04-18T08:13:49Z</time></trkpt><trkpt lat="50.284339572173316" lon="5.300705667218282"><ele>245.0</ele><time>2026-04-18T08:13:55Z</time></trkpt><trkpt lat="50.2843115564697" lon="5.300798802740333"><ele>244.71428571428572</ele><time>2026-04-18T08:13:59Z</time></trkpt><trkpt lat="50.28428010104317" lon="5.300892793099029"><ele>244.42857142857144</ele><time>2026-04-18T08:14:04Z</time></trkpt><trkpt lat="50.28426681224854" lon="5.301012001786988"><ele>244.14285714285714</ele><time>2026-04-18T08:14:10Z</time></trkpt><trkpt lat="50.28426307225609" lon="5.301128781912398"><ele>243.85714285714286</ele><time>2026-04-18T08:14:15.001Z</time></trkpt><trkpt lat="50.28423913681996" lon="5.301239230885339"><ele>243.57142857142858</ele><time>2026-04-18T08:14:21.001Z</time></trkpt><trkpt lat="50.28423732439603" lon="5.301339944615627"><ele>243.28571428571428</ele><time>2026-04-18T08:14:25.001Z</time></trkpt><trkpt lat="50.28423047772249" lon="5.301457448539522"><ele>243.0</ele><time>2026-04-18T08:14:31.001Z</time></trkpt><trkpt lat="50.28422723907359" lon="5.301559445194155"><ele>242.14285714285714</ele><time>2026-04-18T08:14:36Z</time></trkpt><trkpt lat="50.28421601392898" lon="5.301663748997085"><ele>241.28571428571428</ele><time>2026-04-18T08:14:41Z</time></trkpt><trkpt lat="50.28420253928818" lon="5.301772870711925"><ele>240.42857142857142</ele><time>2026-04-18T08:14:47Z</time></trkpt><trkpt lat="50.28419085073168" lon="5.301869904368339"><ele>239.57142857142856</ele><time>2026-04-18T08:14:52Z</time></trkpt><trkpt lat="50.284166733427085" lon="5.30197800752932"><ele>238.71428571428572</ele><time>2026-04-18T08:14:58Z</time></trkpt><trkpt lat="50.2841626657921" lon="5.302091390454123"><ele>237.85714285714283</ele><time>2026-04-18T08:15:04Z</time></trkpt><trkpt lat="50.284153639236756" lon="5.302191934895219"><ele>236.99999999999997</ele><time>2026-04-18T08:15:09Z</time></trkpt><trkpt lat="50.2841216798582" lon="5.302279482241255"><ele>236.4285714285714</ele><time>2026-04-18T08:15:15Z</time></trkpt><trkpt lat="50.28410621286364" lon="5.302389044201538"><ele>235.85714285714283</ele><time>2026-04-18T08:15:21Z</time></trkpt><trkpt lat="50.284088200020484" lon="5.3024839861085615"><ele>235.28571428571428</ele><time>2026-04-18T08:15:26Z</time></trkpt><trkpt lat="50.28405988122784" lon="5.302586597802601"><ele>234.7142857142857</ele><time>2026-04-18T08:15:32Z</time></trkpt><trkpt lat="50.28402831666363" lon="5.302692082840768"><ele>234.1428571428571</ele><time>2026-04-18T08:15:38Z</time></trkpt><trkpt lat="50.28401656016786" lon="5.302810167468672"><ele>233.57142857142858</ele><time>2026-04-18T08:15:43Z</time></trkpt><trkpt lat="50.28398566914873" lon="5.30291916780498"><ele>233.0</ele><time>2026-04-18T08:15:49Z</time></trkpt><trkpt lat="50.28396142574" lon="5.303030102286545"><ele>232.57142857142858</ele><time>2026-04-18T08:15:55Z</time></trkpt><trkpt lat="50.28393431405157" lon="5.303130554196866"><ele>232.1428571428571</ele><time>2026-04-18T08:16:00Z</time></trkpt><trkpt lat="50.28390731598478" lon="5.3032401544238645"><ele>231.7142857142857</ele><time>2026-04-18T08:16:06Z</time></trkpt><trkpt lat="50.28388642153707" lon="5.303356038968213"><ele>231.28571428571428</ele><time>2026-04-18T08:16:12Z</time></trkpt><trkpt lat="50.28386957927348" lon="5.303462280990487"><ele>230.85714285714283</ele><time>2026-04-18T08:16:18Z</time></trkpt><trkpt lat="50.28385597714384" lon="5.303573960922354"><ele>230.4285714285714</ele><time>2026-04-18T08:16:23Z</time></trkpt><trkpt lat="50.28383591403096" lon="5.303686410302844"><ele>229.99999999999997</ele><time>2026-04-18T08:16:29Z</time></trkpt><trkpt lat="50.28382531671278" lon="5.3037947498004305"><ele>228.28571428571425</ele><time>2026-04-18T08:16:35Z</time></trkpt><trkpt lat="50.283814072553724" lon="5.3038917786062845"><ele>226.57142857142856</ele><time>2026-04-18T08:16:40Z</time></trkpt><trkpt lat="50.28380118647018" lon="5.303998221098128"><ele>224.85714285714283</ele><time>2026-04-18T08:16:46Z</time></trkpt><trkpt lat="50.2837864526015" lon="5.304116086854063"><ele>223.1428571428571</ele><time>2026-04-18T08:16:53Z</time></trkpt><trkpt lat="50.28377595910754" lon="5.304214647933635"><ele>221.42857142857144</ele><time>2026-04-18T08:16:58Z</time></trkpt><trkpt lat="50.28376517756988" lon="5.304321238620815"><ele>219.71428571428572</ele><time>2026-04-18T08:17:03Z</time></trkpt><trkpt lat="50.28375651724885" lon="5.304419178350032"><ele>218.0</ele><time>2026-04-18T08:17:08Z</time></trkpt><trkpt lat="50.283730199562264" lon="5.304517690860383"><ele>218.0</ele><time>2026-04-18T08:17:14Z</time></trkpt><trkpt lat="50.283712358784825" lon="5.304616904222397"><ele>218.0</ele><time>2026-04-18T08:17:19Z</time></trkpt><trkpt lat="50.28369487515888" lon="5.304725320779205"><ele>218.0</ele><time>2026-04-18T08:17:25Z</time></trkpt><trkpt lat="50.28367747360019" lon="5.304823227441219"><ele>218.0</ele><time>2026-04-18T08:17:30Z</time></trkpt><trkpt lat="50.28365846936377" lon="5.304927547828128"><ele>218.0</ele><time>2026-04-18T08:17:35Z</time></trkpt><trkpt lat="50.28364440747901" lon="5.305032462062452"><ele>218.0</ele><time>2026-04-18T08:17:41Z</time></trkpt><trkpt lat="50.28362961618081" lon="5.30515117190098"><ele>218.0</ele><time>2026-04-18T08:17:47Z</time></trkpt><trkpt lat="50.28361947056689" lon="5.305255806124649"><ele>217.57142857142858</ele><time>2026-04-18T08:17:52Z</time></trkpt><trkpt lat="50.2836085019188" lon="5.305354585434263"><ele>217.14285714285717</ele><time>2026-04-18T08:17:57Z</time></trkpt><trkpt lat="50.28358772150361" lon="5.305468105507211"><ele>216.71428571428572</ele><time>2026-04-18T08:18:03Z</time></trkpt><trkpt lat="50.283567011334924" lon="5.305576778667482"><ele>216.28571428571428</ele><time>2026-04-18T08:18:09Z</time></trkpt><trkpt lat="50.28355273770552" lon="5.305688229515395"><ele>215.85714285714286</ele><time>2026-04-18T08:18:14Z</time></trkpt><trkpt lat="50.28353767466345" lon="5.3058023712865925"><ele>215.42857142857142</ele><time>2026-04-18T08:18:20Z</time></trkpt><trkpt lat="50.283491799197044" lon="5.305870596165774"><ele>215.0</ele><time>2026-04-18T08:18:25.001Z</time></trkpt><trkpt lat="50.28343460392319" lon="5.305921560682208"><ele>214.7142857142857</ele><time>2026-04-18T08:18:33.001Z</time></trkpt><trkpt lat="50.28336843993772" lon="5.305931161455403"><ele>214.42857142857144</ele><time>2026-04-18T08:18:41Z</time></trkpt><trkpt lat="50.28330295390552" lon="5.305911449268733"><ele>214.14285714285714</ele><time>2026-04-18T08:18:48Z</time></trkpt><trkpt lat="50.283239907593696" lon="5.305902366331063"><ele>213.85714285714283</ele><time>2026-04-18T08:18:56Z</time></trkpt><trkpt lat="50.283177277203706" lon="5.305845791773069"><ele>213.57142857142856</ele><time>2026-04-18T08:19:01Z</time></trkpt><trkpt lat="50.28311874503254" lon="5.3057802363183315"><ele>213.28571428571428</ele><time>2026-04-18T08:19:07Z</time></trkpt><trkpt lat="50.283062262526464" lon="5.305731122847496"><ele>213.0</ele><time>2026-04-18T08:19:11Z</time></trkpt><trkpt lat="50.28299774397633" lon="5.305685227707507"><ele>212.99999999999997</ele><time>2026-04-18T08:19:16Z</time></trkpt><trkpt lat="50.28293669736482" lon="5.305626507810436"><ele>213.0</ele><time>2026-04-18T08:19:22Z</time></trkpt><trkpt lat="50.282867219549445" lon="5.3055858681092145"><ele>213.0</ele><time>2026-04-18T08:19:28Z</time></trkpt><trkpt lat="50.28280557734036" lon="5.305547664378129"><ele>213.0</ele><time>2026-04-18T08:19:34Z</time></trkpt><trkpt lat="50.28274847105407" lon="5.3054877738014765"><ele>213.0</ele><time>2026-04-18T08:19:39Z</time></trkpt><trkpt lat="50.28268206479285" lon="5.305434558200124"><ele>212.99999999999997</ele><time>2026-04-18T08:19:44Z</time></trkpt><trkpt lat="50.28261934235876" lon="5.305411248509378"><ele>213.0</ele><time>2026-04-18T08:19:50Z</time></trkpt><trkpt lat="50.28255444454356" lon="5.305413495608862"><ele>212.99999999999997</ele><time>2026-04-18T08:20:06Z</time></trkpt><trkpt lat="50.28250349786034" lon="5.3053339416957"><ele>213.0</ele><time>2026-04-18T08:20:13Z</time></trkpt><trkpt lat="50.282487654269396" lon="5.305229094046598"><ele>213.0</ele><time>2026-04-18T08:20:21Z</time></trkpt><trkpt lat="50.28247665757807" lon="5.305115909708532"><ele>213.0</ele><time>2026-04-18T08:20:29Z</time></trkpt><trkpt lat="50.28244423287251" lon="5.305023789789642"><ele>213.0</ele><time>2026-04-18T08:20:41Z</time></trkpt><trkpt lat="50.282436182515966" lon="5.304922411357389"><ele>212.99999999999997</ele><time>2026-04-18T08:20:47Z</time></trkpt><trkpt lat="50.2824341782057" lon="5.3048187291022995"><ele>213.0</ele><time>2026-04-18T08:20:54Z</time></trkpt><trkpt lat="50.28241228284033" lon="5.304723867544102"><ele>213.14285714285714</ele><time>2026-04-18T08:21:00Z</time></trkpt><trkpt lat="50.28240709910263" lon="5.304621742894024"><ele>213.28571428571428</ele><time>2026-04-18T08:21:06Z</time></trkpt><trkpt lat="50.282418172712674" lon="5.30450683620968"><ele>213.42857142857144</ele><time>2026-04-18T08:21:11Z</time></trkpt><trkpt lat="50.282411843643466" lon="5.3043997719998925"><ele>213.57142857142856</ele><time>2026-04-18T08:21:18Z</time></trkpt><trkpt lat="50.28241356519538" lon="5.304299841991468"><ele>213.71428571428572</ele><time>2026-04-18T08:21:23Z</time></trkpt><trkpt lat="50.28241360168321" lon="5.3041899993143495"><ele>213.85714285714286</ele><time>2026-04-18T08:21:30Z</time></trkpt><trkpt lat="50.282390334717675" lon="5.304087294732811"><ele>214.0</ele><time>2026-04-18T08:21:36Z</time></trkpt><trkpt lat="50.28239053110463" lon="5.303984371823434"><ele>214.00000000000003</ele><time>2026-04-18T08:21:43Z</time></trkpt><trkpt lat="50.28238255212882" lon="5.3038780911213"><ele>214.0</ele><time>2026-04-18T08:21:49Z</time></trkpt><trkpt lat="50.282386813799185" lon="5.303763738532917"><ele>214.0</ele><time>2026-04-18T08:21:55Z</time></trkpt><trkpt lat="50.28238019533478" lon="5.303665559389315"><ele>214.0</ele><time>2026-04-18T08:22:01Z</time></trkpt><trkpt lat="50.28236508228974" lon="5.303566713291971"><ele>214.0</ele><time>2026-04-18T08:22:06Z</time></trkpt><trkpt lat="50.28232805059129" lon="5.303485058253934"><ele>214.00000000000003</ele><time>2026-04-18T08:22:11Z</time></trkpt><trkpt lat="50.28229217063723" lon="5.303398546190245"><ele>214.0</ele><time>2026-04-18T08:22:17Z</time></trkpt><trkpt lat="50.282246968316365" lon="5.303317183508034"><ele>214.71428571428572</ele><time>2026-04-18T08:22:25Z</time></trkpt><trkpt lat="50.282220975629016" lon="5.303213660403578"><ele>215.42857142857144</ele><time>2026-04-18T08:22:32Z</time></trkpt><trkpt lat="50.28218267841149" lon="5.303123030238818"><ele>216.14285714285717</ele><time>2026-04-18T08:22:40Z</time></trkpt><trkpt lat="50.282122870791504" lon="5.303071831986343"><ele>216.85714285714286</ele><time>2026-04-18T08:22:46Z</time></trkpt><trkpt lat="50.28205807618917" lon="5.303032996186595"><ele>217.57142857142856</ele><time>2026-04-18T08:22:54Z</time></trkpt><trkpt lat="50.2819902467934" lon="5.303034372253593"><ele>218.2857142857143</ele><time>2026-04-18T08:23:05Z</time></trkpt><trkpt lat="50.281920032308435" lon="5.30302399295332"><ele>219.0</ele><time>2026-04-18T08:23:17Z</time></trkpt><trkpt lat="50.28185165428802" lon="5.303014640015316"><ele>219.0</ele><time>2026-04-18T08:23:22Z</time></trkpt><trkpt lat="50.28179134728651" lon="5.303058522533606"><ele>219.0</ele><time>2026-04-18T08:23:29Z</time></trkpt><trkpt lat="50.281724493237846" lon="5.303075296001539"><ele>219.0</ele><time>2026-04-18T08:23:37Z</time></trkpt><trkpt lat="50.28165488925276" lon="5.303112057652731"><ele>219.0</ele><time>2026-04-18T08:23:46Z</time></trkpt><trkpt lat="50.28158890380895" lon="5.303122998250182"><ele>219.0</ele><time>2026-04-18T08:23:53Z</time></trkpt><trkpt lat="50.28152467085784" lon="5.3031183407899185"><ele>219.0</ele><time>2026-04-18T08:23:59Z</time></trkpt><trkpt lat="50.2814590264843" lon="5.303137529508421"><ele>219.0</ele><time>2026-04-18T08:24:07Z</time></trkpt><trkpt lat="50.281389772940095" lon="5.303143599153657"><ele>220.14285714285717</ele><time>2026-04-18T08:24:15Z</time></trkpt><trkpt lat="50.281339151716054" lon="5.30320793959153"><ele>221.28571428571428</ele><time>2026-04-18T08:24:23Z</time></trkpt><trkpt lat="50.28127202020399" lon="5.303228069340772"><ele>222.42857142857144</ele><time>2026-04-18T08:24:32Z</time></trkpt><trkpt lat="50.281204393648615" lon="5.303241903425783"><ele>223.57142857142858</ele><time>2026-04-18T08:24:39Z</time></trkpt><trkpt lat="50.2811401255277" lon="5.303237859928187"><ele>224.71428571428572</ele><time>2026-04-18T08:24:45Z</time></trkpt><trkpt lat="50.28107731992508" lon="5.303277235873925"><ele>225.85714285714286</ele><time>2026-04-18T08:24:51Z</time></trkpt><trkpt lat="50.28101563293991" lon="5.303299870927961"><ele>227.0</ele><time>2026-04-18T08:24:57Z</time></trkpt><trkpt lat="50.28095142188285" lon="5.303326074660044"><ele>227.0</ele><time>2026-04-18T08:25:03Z</time></trkpt><trkpt lat="50.28088908439917" lon="5.303361127366399"><ele>227.00000000000003</ele><time>2026-04-18T08:25:10Z</time></trkpt><trkpt lat="50.28084841203156" lon="5.3034574800183725"><ele>227.0</ele><time>2026-04-18T08:25:25Z</time></trkpt><trkpt lat="50.28078560522854" lon="5.3035103421190035"><ele>227.0</ele><time>2026-04-18T08:25:32Z</time></trkpt><trkpt lat="50.280715578025315" lon="5.303541913063722"><ele>227.00000000000003</ele><time>2026-04-18T08:25:39Z</time></trkpt><trkpt lat="50.280652568727156" lon="5.303592598304824"><ele>227.0</ele><time>2026-04-18T08:25:49Z</time></trkpt><trkpt lat="50.28059750480496" lon="5.303645638711292"><ele>227.0</ele><time>2026-04-18T08:25:54Z</time></trkpt><trkpt lat="50.28053840024173" lon="5.303680288384879"><ele>228.0</ele><time>2026-04-18T08:25:59Z</time></trkpt><trkpt lat="50.28048555875842" lon="5.303736447012021"><ele>229.00000000000003</ele><time>2026-04-18T08:26:04Z</time></trkpt><trkpt lat="50.280430687439335" lon="5.303791215465498"><ele>230.0</ele><time>2026-04-18T08:26:09Z</time></trkpt><trkpt lat="50.280360936658" lon="5.303816711198828"><ele>231.0</ele><time>2026-04-18T08:26:15Z</time></trkpt><trkpt lat="50.28030838405542" lon="5.303885761317337"><ele>232.00000000000003</ele><time>2026-04-18T08:26:20Z</time></trkpt><trkpt lat="50.28025571490915" lon="5.303942280535258"><ele>233.0</ele><time>2026-04-18T08:26:27Z</time></trkpt><trkpt lat="50.28019889666583" lon="5.303990604153051"><ele>234.0</ele><time>2026-04-18T08:26:33Z</time></trkpt><trkpt lat="50.280156450161726" lon="5.304070895725669"><ele>234.42857142857144</ele><time>2026-04-18T08:26:40Z</time></trkpt><trkpt lat="50.28009429467273" lon="5.304131530481353"><ele>234.8571428571429</ele><time>2026-04-18T08:26:46Z</time></trkpt><trkpt lat="50.28003170810099" lon="5.304178882654376"><ele>235.28571428571428</ele><time>2026-04-18T08:26:52Z</time></trkpt><trkpt lat="50.27997695371307" lon="5.30423850180501"><ele>235.71428571428572</ele><time>2026-04-18T08:26:58Z</time></trkpt><trkpt lat="50.27991121585838" lon="5.3042923030046785"><ele>236.14285714285714</ele><time>2026-04-18T08:27:04Z</time></trkpt><trkpt lat="50.27985847422786" lon="5.304367501501795"><ele>236.57142857142856</ele><time>2026-04-18T08:27:10Z</time></trkpt><trkpt lat="50.279791090639016" lon="5.304426697095837"><ele>236.99999999999997</ele><time>2026-04-18T08:27:15Z</time></trkpt><trkpt lat="50.279748483274986" lon="5.3045048302988596"><ele>238.1428571428571</ele><time>2026-04-18T08:27:21Z</time></trkpt><trkpt lat="50.27969254130785" lon="5.304578683465156"><ele>239.28571428571428</ele><time>2026-04-18T08:27:27Z</time></trkpt><trkpt lat="50.27964414601697" lon="5.304666113362682"><ele>240.42857142857142</ele><time>2026-04-18T08:27:33Z</time></trkpt><trkpt lat="50.27960303551537" lon="5.304750005241141"><ele>241.57142857142856</ele><time>2026-04-18T08:27:40Z</time></trkpt><trkpt lat="50.27955345239067" lon="5.304834127126959"><ele>242.71428571428572</ele><time>2026-04-18T08:27:47Z</time></trkpt><trkpt lat="50.27950228829035" lon="5.304894191283953"><ele>243.85714285714286</ele><time>2026-04-18T08:27:54Z</time></trkpt><trkpt lat="50.27947490949292" lon="5.304985757929111"><ele>245.0</ele><time>2026-04-18T08:28:00Z</time></trkpt><trkpt lat="50.279446390067044" lon="5.3050864890516705"><ele>245.28571428571428</ele><time>2026-04-18T08:28:35Z</time></trkpt><trkpt lat="50.279397625684155" lon="5.305159837812555"><ele>245.57142857142856</ele><time>2026-04-18T08:28:43Z</time></trkpt><trkpt lat="50.27933650720539" lon="5.30521261808817"><ele>245.85714285714286</ele><time>2026-04-18T08:28:51Z</time></trkpt><trkpt lat="50.27926898032186" lon="5.305246356750301"><ele>246.14285714285714</ele><time>2026-04-18T08:28:59Z</time></trkpt><trkpt lat="50.27920578127917" lon="5.305296861818662"><ele>246.42857142857142</ele><time>2026-04-18T08:29:07Z</time></trkpt><trkpt lat="50.27915151867202" lon="5.305384375002621"><ele>246.71428571428572</ele><time>2026-04-18T08:29:12Z</time></trkpt><trkpt lat="50.27908849142819" lon="5.305399231039818"><ele>247.0</ele><time>2026-04-18T08:29:18Z</time></trkpt><trkpt lat="50.27902281873482" lon="5.305429299568524"><ele>247.0</ele><time>2026-04-18T08:29:23Z</time></trkpt><trkpt lat="50.27895609666527" lon="5.305454616755622"><ele>247.0</ele><time>2026-04-18T08:29:29Z</time></trkpt><trkpt lat="50.27889569224682" lon="5.305490614988529"><ele>247.0</ele><time>2026-04-18T08:29:35Z</time></trkpt><trkpt lat="50.27883109156511" lon="5.305530673647163"><ele>247.0</ele><time>2026-04-18T08:29:41Z</time></trkpt><trkpt lat="50.27876717816152" lon="5.305584936865452"><ele>247.0</ele><time>2026-04-18T08:29:47Z</time></trkpt><trkpt lat="50.278700908562" lon="5.305631804997201"><ele>247.0</ele><time>2026-04-18T08:29:53Z</time></trkpt><trkpt lat="50.27863885852542" lon="5.305670362182951"><ele>247.0</ele><time>2026-04-18T08:29:59Z</time></trkpt><trkpt lat="50.27858063527762" lon="5.305739578869429"><ele>247.14285714285717</ele><time>2026-04-18T08:30:04Z</time></trkpt><trkpt lat="50.27851712825916" lon="5.305780128194365"><ele>247.28571428571428</ele><time>2026-04-18T08:30:11Z</time></trkpt><trkpt lat="50.27845342342473" lon="5.305728530939768"><ele>247.42857142857144</ele><time>2026-04-18T08:30:18Z</time></trkpt><trkpt lat="50.27840305679064" lon="5.305643512851849"><ele>247.57142857142858</ele><time>2026-04-18T08:30:26Z</time></trkpt><trkpt lat="50.278362507742166" lon="5.305551570062025"><ele>247.71428571428572</ele><time>2026-04-18T08:30:31Z</time></trkpt><trkpt lat="50.27832702335642" lon="5.305456427993339"><ele>247.85714285714286</ele><time>2026-04-18T08:30:37Z</time></trkpt><trkpt lat="50.2783179309815" lon="5.305352998267636"><ele>248.0</ele><time>2026-04-18T08:30:43Z</time></trkpt><trkpt lat="50.27827103865914" lon="5.305263544867176"><ele>248.42857142857144</ele><time>2026-04-18T08:30:49Z</time></trkpt><trkpt lat="50.2782327968002" lon="5.3051780492820795"><ele>248.8571428571429</ele><time>2026-04-18T08:30:54Z</time></trkpt><trkpt lat="50.278202620257304" lon="5.30507648572805"><ele>249.28571428571428</ele><time>2026-04-18T08:31:00Z</time></trkpt><trkpt lat="50.27817946917967" lon="5.3049671763238635"><ele>249.71428571428572</ele><time>2026-04-18T08:31:07Z</time></trkpt><trkpt lat="50.27814833536886" lon="5.304878118192784"><ele>250.14285714285714</ele><time>2026-04-18T08:31:12Z</time></trkpt><trkpt lat="50.278118486162306" lon="5.304789821811961"><ele>250.57142857142856</ele><time>2026-04-18T08:31:17Z</time></trkpt><trkpt lat="50.278078522091526" lon="5.304700983946686"><ele>250.99999999999997</ele><time>2026-04-18T08:31:23Z</time></trkpt><trkpt lat="50.27804557621438" lon="5.304609243601185"><ele>251.71428571428567</ele><time>2026-04-18T08:31:29Z</time></trkpt><trkpt lat="50.278019511077936" lon="5.3045034813136915"><ele>252.42857142857142</ele><time>2026-04-18T08:31:35Z</time></trkpt><trkpt lat="50.27798866279724" lon="5.304415407075481"><ele>253.1428571428571</ele><time>2026-04-18T08:31:40Z</time></trkpt><trkpt lat="50.27795608462313" lon="5.304308717810636"><ele>253.85714285714283</ele><time>2026-04-18T08:31:47Z</time></trkpt><trkpt lat="50.27792457475796" lon="5.304217672861426"><ele>254.57142857142856</ele><time>2026-04-18T08:31:52Z</time></trkpt><trkpt lat="50.2778987947848" lon="5.304127080605528"><ele>255.28571428571428</ele><time>2026-04-18T08:31:58Z</time></trkpt><trkpt lat="50.27786519422599" lon="5.304029601026798"><ele>256.0</ele><time>2026-04-18T08:32:03Z</time></trkpt><trkpt lat="50.27782481229557" lon="5.303939006870533"><ele>256.0</ele><time>2026-04-18T08:32:09Z</time></trkpt><trkpt lat="50.27779728233724" lon="5.303847732868798"><ele>255.99999999999997</ele><time>2026-04-18T08:32:14Z</time></trkpt><trkpt lat="50.27775641322287" lon="5.303762114862421"><ele>256.0</ele><time>2026-04-18T08:32:19Z</time></trkpt><trkpt lat="50.277727716846094" lon="5.303669812062135"><ele>256.0</ele><time>2026-04-18T08:32:25Z</time></trkpt><trkpt lat="50.277705767954096" lon="5.303574830566619"><ele>255.99999999999997</ele><time>2026-04-18T08:32:31Z</time></trkpt><trkpt lat="50.27766864778679" lon="5.303480860715924"><ele>256.0</ele><time>2026-04-18T08:32:38Z</time></trkpt><trkpt lat="50.27764154076384" lon="5.30339023622934"><ele>256.0</ele><time>2026-04-18T08:32:43Z</time></trkpt><trkpt lat="50.277595678078356" lon="5.303317912448575"><ele>256.0</ele><time>2026-04-18T08:32:47Z</time></trkpt><trkpt lat="50.27757640994806" lon="5.303214904401781"><ele>255.99999999999997</ele><time>2026-04-18T08:32:53Z</time></trkpt><trkpt lat="50.27754172105702" lon="5.303127446332387"><ele>256.0</ele><time>2026-04-18T08:34:27.001Z</time></trkpt><trkpt lat="50.2775074017656" lon="5.3030428984631035"><ele>256.0</ele><time>2026-04-18T08:34:32.001Z</time></trkpt><trkpt lat="50.277472050341764" lon="5.302958987253557"><ele>255.99999999999997</ele><time>2026-04-18T08:34:37.001Z</time></trkpt><trkpt lat="50.27744144175111" lon="5.302868752239428"><ele>256.0</ele><time>2026-04-18T08:34:42.001Z</time></trkpt><trkpt lat="50.27739547999496" lon="5.302787872331831"><ele>256.0</ele><time>2026-04-18T08:34:48.001Z</time></trkpt><trkpt lat="50.27735915717632" lon="5.302686877204763"><ele>255.85714285714283</ele><time>2026-04-18T08:34:54.001Z</time></trkpt><trkpt lat="50.277332509139754" lon="5.302593742276676"><ele>255.7142857142857</ele><time>2026-04-18T08:35:00.001Z</time></trkpt><trkpt lat="50.277292768180075" lon="5.30251697502622"><ele>255.57142857142856</ele><time>2026-04-18T08:35:05.001Z</time></trkpt><trkpt lat="50.277259586711345" lon="5.302411924469174"><ele>255.42857142857144</ele><time>2026-04-18T08:35:12Z</time></trkpt><trkpt lat="50.27722673471301" lon="5.302319824214152"><ele>255.2857142857143</ele><time>2026-04-18T08:35:18Z</time></trkpt><trkpt lat="50.27719258414842" lon="5.3022172623339"><ele>255.14285714285717</ele><time>2026-04-18T08:35:25Z</time></trkpt><trkpt lat="50.277160643087875" lon="5.302124238798405"><ele>255.0</ele><time>2026-04-18T08:35:33Z</time></trkpt><trkpt lat="50.27713313016575" lon="5.302033880561914"><ele>255.14285714285717</ele><time>2026-04-18T08:35:39Z</time></trkpt><trkpt lat="50.27710128059365" lon="5.301935433497011"><ele>255.2857142857143</ele><time>2026-04-18T08:35:45Z</time></trkpt><trkpt lat="50.27707182744706" lon="5.301844575747214"><ele>255.42857142857144</ele><time>2026-04-18T08:35:51Z</time></trkpt><trkpt lat="50.2770409986871" lon="5.3017422184023335"><ele>255.57142857142856</ele><time>2026-04-18T08:35:56Z</time></trkpt><trkpt lat="50.27700687872688" lon="5.301648808994322"><ele>255.7142857142857</ele><time>2026-04-18T08:36:02Z</time></trkpt><trkpt lat="50.276980101698044" lon="5.30155106191364"><ele>255.85714285714283</ele><time>2026-04-18T08:36:08Z</time></trkpt><trkpt lat="50.27694086435521" lon="5.301454962369421"><ele>256.0</ele><time>2026-04-18T08:36:14Z</time></trkpt><trkpt lat="50.27691556287202" lon="5.301344984740284"><ele>256.0</ele><time>2026-04-18T08:36:20Z</time></trkpt><trkpt lat="50.27687882607249" lon="5.3012524150741545"><ele>255.99999999999997</ele><time>2026-04-18T08:36:26Z</time></trkpt><trkpt lat="50.276850503772586" lon="5.301157227790138"><ele>256.0</ele><time>2026-04-18T08:36:32Z</time></trkpt><trkpt lat="50.276814404684266" lon="5.301058423761027"><ele>256.0</ele><time>2026-04-18T08:36:37Z</time></trkpt><trkpt lat="50.276785254664794" lon="5.300967310301145"><ele>255.99999999999997</ele><time>2026-04-18T08:36:42Z</time></trkpt><trkpt lat="50.27675475408417" lon="5.300869249652656"><ele>256.0</ele><time>2026-04-18T08:36:48Z</time></trkpt><trkpt lat="50.27671880869556" lon="5.3007762737103485"><ele>256.0</ele><time>2026-04-18T08:36:54Z</time></trkpt><trkpt lat="50.27668907501273" lon="5.300682142632029"><ele>256.0</ele><time>2026-04-18T08:37:00Z</time></trkpt><trkpt lat="50.27665856310349" lon="5.300589324780256"><ele>255.99999999999997</ele><time>2026-04-18T08:37:05Z</time></trkpt><trkpt lat="50.27662152561801" lon="5.300484798865733"><ele>256.0</ele><time>2026-04-18T08:37:11Z</time></trkpt><trkpt lat="50.276590680432" lon="5.300393531139201"><ele>256.0</ele><time>2026-04-18T08:37:17Z</time></trkpt><trkpt lat="50.27656061119876" lon="5.300296990678295"><ele>255.99999999999997</ele><time>2026-04-18T08:37:24Z</time></trkpt><trkpt lat="50.27652820926769" lon="5.300204624240784"><ele>256.0</ele><time>2026-04-18T08:37:30Z</time></trkpt><trkpt lat="50.27651249542231" lon="5.300105788535266"><ele>256.0</ele><time>2026-04-18T08:37:36Z</time></trkpt><trkpt lat="50.27647811225067" lon="5.300005831251318"><ele>256.0</ele><time>2026-04-18T08:37:41Z</time></trkpt><trkpt lat="50.27644493431413" lon="5.299911013843462"><ele>255.99999999999997</ele><time>2026-04-18T08:37:46Z</time></trkpt><trkpt lat="50.27641261435883" lon="5.299818648788634"><ele>256.0</ele><time>2026-04-18T08:37:51Z</time></trkpt><trkpt lat="50.276381255355155" lon="5.299719460864801"><ele>256.0</ele><time>2026-04-18T08:37:57Z</time></trkpt><trkpt lat="50.276366241719906" lon="5.299621371629126"><ele>255.99999999999997</ele><time>2026-04-18T08:38:03Z</time></trkpt><trkpt lat="50.27634954284151" lon="5.29952006914887"><ele>256.0</ele><time>2026-04-18T08:38:09Z</time></trkpt><trkpt lat="50.27632564064305" lon="5.299426707422903"><ele>256.0</ele><time>2026-04-18T08:38:14Z</time></trkpt><trkpt lat="50.27630719755663" lon="5.299331021498152"><ele>256.0</ele><time>2026-04-18T08:38:20Z</time></trkpt><trkpt lat="50.27628797523484" lon="5.299236029073673"><ele>255.99999999999997</ele><time>2026-04-18T08:38:25Z</time></trkpt><trkpt lat="50.27626455392642" lon="5.299132930757391"><ele>256.0</ele><time>2026-04-18T08:38:30Z</time></trkpt><trkpt lat="50.276220744704915" lon="5.299045120681662"><ele>256.0</ele><time>2026-04-18T08:38:36Z</time></trkpt><trkpt lat="50.276155631186796" lon="5.298979863418164"><ele>255.99999999999997</ele><time>2026-04-18T08:38:41Z</time></trkpt><trkpt lat="50.276137507532326" lon="5.298875241834018"><ele>256.0</ele><time>2026-04-18T08:38:46Z</time></trkpt><trkpt lat="50.276105136638655" lon="5.29876588422055"><ele>256.0</ele><time>2026-04-18T08:38:52Z</time></trkpt><trkpt lat="50.27606890276699" lon="5.29867440437482"><ele>255.42857142857142</ele><time>2026-04-18T08:38:58Z</time></trkpt><trkpt lat="50.27605560523723" lon="5.29855947910846"><ele>254.85714285714283</ele><time>2026-04-18T08:39:04Z</time></trkpt><trkpt lat="50.27603445888599" lon="5.298463333329991"><ele>254.28571428571428</ele><time>2026-04-18T08:39:08Z</time></trkpt><trkpt lat="50.27599458851389" lon="5.298376067564715"><ele>253.71428571428572</ele><time>2026-04-18T08:39:15Z</time></trkpt><trkpt lat="50.27594734659038" lon="5.298286340289816"><ele>253.14285714285714</ele><time>2026-04-18T08:39:21Z</time></trkpt><trkpt lat="50.27592456837811" lon="5.298177245588066"><ele>252.57142857142856</ele><time>2026-04-18T08:39:26Z</time></trkpt><trkpt lat="50.27587918933222" lon="5.298103020283076"><ele>252.0</ele><time>2026-04-18T08:39:30Z</time></trkpt><trkpt lat="50.27585661930622" lon="5.297992069413444"><ele>251.85714285714286</ele><time>2026-04-18T08:39:37Z</time></trkpt><trkpt lat="50.275828597337885" lon="5.297887607876242"><ele>251.71428571428572</ele><time>2026-04-18T08:39:43Z</time></trkpt><trkpt lat="50.27579391487675" lon="5.297799832644004"><ele>251.57142857142856</ele><time>2026-04-18T08:39:48Z</time></trkpt><trkpt lat="50.27574446239682" lon="5.297726206929243"><ele>251.42857142857142</ele><time>2026-04-18T08:39:54Z</time></trkpt><trkpt lat="50.275698434231266" lon="5.2976578345485805"><ele>251.28571428571428</ele><time>2026-04-18T08:39:58Z</time></trkpt><trkpt lat="50.275633994167585" lon="5.297621737742677"><ele>251.1428571428571</ele><time>2026-04-18T08:40:04Z</time></trkpt><trkpt lat="50.275566694753486" lon="5.297618305754426"><ele>250.99999999999997</ele><time>2026-04-18T08:40:09Z</time></trkpt><trkpt lat="50.275496474885735" lon="5.297612495872792"><ele>251.85714285714283</ele><time>2026-04-18T08:40:14Z</time></trkpt><trkpt lat="50.27543104175474" lon="5.297619378007657"><ele>252.71428571428572</ele><time>2026-04-18T08:40:19Z</time></trkpt><trkpt lat="50.27536392528131" lon="5.297649178164984"><ele>253.57142857142856</ele><time>2026-04-18T08:40:25Z</time></trkpt><trkpt lat="50.275303556790334" lon="5.297678089759893"><ele>254.42857142857142</ele><time>2026-04-18T08:40:30Z</time></trkpt><trkpt lat="50.27523510818537" lon="5.297686355076192"><ele>255.28571428571428</ele><time>2026-04-18T08:40:37Z</time></trkpt><trkpt lat="50.2751689827859" lon="5.297664147902974"><ele>256.1428571428571</ele><time>2026-04-18T08:40:43Z</time></trkpt><trkpt lat="50.275109850720625" lon="5.2977107607277985"><ele>257.0</ele><time>2026-04-18T08:40:50Z</time></trkpt><trkpt lat="50.275037699867305" lon="5.297735994538392"><ele>257.0</ele><time>2026-04-18T08:40:56Z</time></trkpt><trkpt lat="50.27497201737997" lon="5.2977519102689286"><ele>257.0</ele><time>2026-04-18T08:41:02Z</time></trkpt><trkpt lat="50.27490116865853" lon="5.297762853995478"><ele>257.0</ele><time>2026-04-18T08:41:08Z</time></trkpt><trkpt lat="50.2748347700389" lon="5.297777382738272"><ele>257.0</ele><time>2026-04-18T08:41:15Z</time></trkpt><trkpt lat="50.27476027613398" lon="5.297778099508851"><ele>257.0</ele><time>2026-04-18T08:41:22.001Z</time></trkpt><trkpt lat="50.27469714168211" lon="5.297825309398661"><ele>257.0</ele><time>2026-04-18T08:41:29.001Z</time></trkpt><trkpt lat="50.27463251204195" lon="5.297840268809143"><ele>257.0</ele><time>2026-04-18T08:41:35.001Z</time></trkpt><trkpt lat="50.2745923447981" lon="5.297934191946528"><ele>257.85714285714283</ele><time>2026-04-18T08:41:39.001Z</time></trkpt><trkpt lat="50.2745291496854" lon="5.297952623191211"><ele>258.7142857142857</ele><time>2026-04-18T08:41:46Z</time></trkpt><trkpt lat="50.27446332882066" lon="5.297961217859558"><ele>259.57142857142856</ele><time>2026-04-18T08:41:51Z</time></trkpt><trkpt lat="50.2743923549364" lon="5.297960518111985"><ele>260.42857142857144</ele><time>2026-04-18T08:41:57Z</time></trkpt><trkpt lat="50.274328990559304" lon="5.297970447653823"><ele>261.2857142857143</ele><time>2026-04-18T08:42:04Z</time></trkpt><trkpt lat="50.27426507731091" lon="5.297989210624582"><ele>262.1428571428571</ele><time>2026-04-18T08:42:10Z</time></trkpt><trkpt lat="50.27420171327609" lon="5.2979719387124025"><ele>263.0</ele><time>2026-04-18T08:42:16Z</time></trkpt><trkpt lat="50.27412673321647" lon="5.29798569318757"><ele>263.0</ele><time>2026-04-18T08:42:23Z</time></trkpt><trkpt lat="50.274053058250075" lon="5.297977601420723"><ele>263.0</ele><time>2026-04-18T08:42:30Z</time></trkpt><trkpt lat="50.27398059577357" lon="5.297995213423395"><ele>263.0</ele><time>2026-04-18T08:42:37Z</time></trkpt><trkpt lat="50.27391708861217" lon="5.297972847287077"><ele>263.0</ele><time>2026-04-18T08:42:45Z</time></trkpt><trkpt lat="50.273849749329266" lon="5.297951995715172"><ele>263.0</ele><time>2026-04-18T08:42:53Z</time></trkpt><trkpt lat="50.27378293084479" lon="5.297952157253868"><ele>263.0</ele><time>2026-04-18T08:42:59Z</time></trkpt><trkpt lat="50.27371338641911" lon="5.297964490396544"><ele>263.0</ele><time>2026-04-18T08:43:05Z</time></trkpt><trkpt lat="50.27364186903717" lon="5.297969610672369"><ele>263.85714285714283</ele><time>2026-04-18T08:43:12Z</time></trkpt><trkpt lat="50.27357798776636" lon="5.2979493898492365"><ele>264.71428571428567</ele><time>2026-04-18T08:43:17Z</time></trkpt><trkpt lat="50.27351351694817" lon="5.297929985214491"><ele>265.57142857142856</ele><time>2026-04-18T08:43:22Z</time></trkpt><trkpt lat="50.27344595301577" lon="5.297927977857836"><ele>266.42857142857144</ele><time>2026-04-18T08:43:29Z</time></trkpt><trkpt lat="50.27337381087203" lon="5.297912818017891"><ele>267.28571428571433</ele><time>2026-04-18T08:43:37.001Z</time></trkpt><trkpt lat="50.273299552664355" lon="5.297898972687755"><ele>268.14285714285717</ele><time>2026-04-18T08:43:44.001Z</time></trkpt><trkpt lat="50.27322235749602" lon="5.297872117485829"><ele>269.0</ele><time>2026-04-18T08:43:50.001Z</time></trkpt><trkpt lat="50.27315538199688" lon="5.297870275035067"><ele>269.57142857142856</ele><time>2026-04-18T08:43:56.001Z</time></trkpt><trkpt lat="50.273090232780234" lon="5.297865481187685"><ele>270.14285714285717</ele><time>2026-04-18T08:44:02Z</time></trkpt><trkpt lat="50.273024509240656" lon="5.297840577594118"><ele>270.7142857142857</ele><time>2026-04-18T08:44:08Z</time></trkpt><trkpt lat="50.27295971876842" lon="5.2978737169110595"><ele>271.2857142857143</ele><time>2026-04-18T08:44:14Z</time></trkpt><trkpt lat="50.27289339168928" lon="5.297871598848666"><ele>271.8571428571429</ele><time>2026-04-18T08:44:20Z</time></trkpt><trkpt lat="50.27282910403834" lon="5.297861822848467"><ele>272.42857142857144</ele><time>2026-04-18T08:44:25Z</time></trkpt><trkpt lat="50.27276094419647" lon="5.297866193741662"><ele>273.0</ele><time>2026-04-18T08:44:31Z</time></trkpt><trkpt lat="50.27268829400854" lon="5.2978665294740255"><ele>273.0</ele><time>2026-04-18T08:44:37Z</time></trkpt><trkpt lat="50.27262060441856" lon="5.297895811819068"><ele>273.0</ele><time>2026-04-18T08:44:43Z</time></trkpt><trkpt lat="50.27255700695342" lon="5.297897910236095"><ele>273.0</ele><time>2026-04-18T08:44:49Z</time></trkpt><trkpt lat="50.27248031567728" lon="5.297920285153341"><ele>273.0</ele><time>2026-04-18T08:44:56Z</time></trkpt><trkpt lat="50.27241254383075" lon="5.297904732061085"><ele>273.0</ele><time>2026-04-18T08:45:02Z</time></trkpt><trkpt lat="50.272346091510364" lon="5.297896708362523"><ele>273.0</ele><time>2026-04-18T08:45:07Z</time></trkpt><trkpt lat="50.272274076321196" lon="5.297913664144199"><ele>273.0</ele><time>2026-04-18T08:45:14Z</time></trkpt><trkpt lat="50.272201187061235" lon="5.297933424183813"><ele>273.57142857142856</ele><time>2026-04-18T08:45:20Z</time></trkpt><trkpt lat="50.27213821374932" lon="5.2979291512974145"><ele>274.1428571428571</ele><time>2026-04-18T08:45:26Z</time></trkpt><trkpt lat="50.27207371704885" lon="5.297948497170419"><ele>274.7142857142857</ele><time>2026-04-18T08:45:33Z</time></trkpt><trkpt lat="50.27200850926311" lon="5.297959820239912"><ele>275.2857142857143</ele><time>2026-04-18T08:45:39Z</time></trkpt><trkpt lat="50.27194901741942" lon="5.297999679110583"><ele>275.85714285714283</ele><time>2026-04-18T08:45:45.001Z</time></trkpt><trkpt lat="50.27188290395939" lon="5.298047724599313"><ele>276.42857142857144</ele><time>2026-04-18T08:45:51.001Z</time></trkpt><trkpt lat="50.271820055376615" lon="5.2980737380335405"><ele>277.0</ele><time>2026-04-18T08:45:56Z</time></trkpt><trkpt lat="50.271761175709216" lon="5.298109964890839"><ele>277.42857142857144</ele><time>2026-04-18T08:46:03Z</time></trkpt><trkpt lat="50.27168685292707" lon="5.298118821570578"><ele>277.85714285714283</ele><time>2026-04-18T08:46:09Z</time></trkpt><trkpt lat="50.27162075535183" lon="5.29815446763306"><ele>278.2857142857143</ele><time>2026-04-18T08:46:16Z</time></trkpt><trkpt lat="50.27155362777534" lon="5.2981810149128385"><ele>278.7142857142857</ele><time>2026-04-18T08:46:22Z</time></trkpt><trkpt lat="50.27148019533395" lon="5.298188332773679"><ele>279.1428571428571</ele><time>2026-04-18T08:46:29Z</time></trkpt><trkpt lat="50.27141823955648" lon="5.298212175724138"><ele>279.57142857142856</ele><time>2026-04-18T08:46:35Z</time></trkpt><trkpt lat="50.27134575952436" lon="5.2982466207363625"><ele>280.0</ele><time>2026-04-18T08:46:44Z</time></trkpt><trkpt lat="50.271278192477936" lon="5.298269907548517"><ele>280.42857142857144</ele><time>2026-04-18T08:46:49Z</time></trkpt><trkpt lat="50.271206664080665" lon="5.298304776644418"><ele>280.8571428571429</ele><time>2026-04-18T08:46:55Z</time></trkpt><trkpt lat="50.27113494798911" lon="5.298321784057696"><ele>281.2857142857143</ele><time>2026-04-18T08:47:02Z</time></trkpt><trkpt lat="50.271060380423634" lon="5.298330780308782"><ele>281.7142857142857</ele><time>2026-04-18T08:47:08Z</time></trkpt><trkpt lat="50.27099379082297" lon="5.298352116865011"><ele>282.14285714285717</ele><time>2026-04-18T08:47:15Z</time></trkpt><trkpt lat="50.27092407775396" lon="5.2983651493582515"><ele>282.57142857142856</ele><time>2026-04-18T08:47:21Z</time></trkpt><trkpt lat="50.27086843616807" lon="5.298426075506766"><ele>283.0</ele><time>2026-04-18T08:47:27Z</time></trkpt><trkpt lat="50.270805045853635" lon="5.298443537624523"><ele>283.0</ele><time>2026-04-18T08:47:32Z</time></trkpt><trkpt lat="50.2707459248932" lon="5.298484893702601"><ele>283.0</ele><time>2026-04-18T08:47:38Z</time></trkpt><trkpt lat="50.27068640932595" lon="5.298519058163202"><ele>283.0</ele><time>2026-04-18T08:47:45Z</time></trkpt><trkpt lat="50.27061871300432" lon="5.29855913060011"><ele>283.0</ele><time>2026-04-18T08:47:52Z</time></trkpt><trkpt lat="50.27055287528483" lon="5.298557852959179"><ele>283.0</ele><time>2026-04-18T08:47:57Z</time></trkpt><trkpt lat="50.27048296852669" lon="5.298554761281768"><ele>283.0</ele><time>2026-04-18T08:48:03Z</time></trkpt><trkpt lat="50.27041644484515" lon="5.298595889841714"><ele>283.0</ele><time>2026-04-18T08:48:09Z</time></trkpt><trkpt lat="50.27036001859555" lon="5.298642526253711"><ele>282.14285714285717</ele><time>2026-04-18T08:48:13Z</time></trkpt><trkpt lat="50.27029440783949" lon="5.298683508224907"><ele>281.28571428571433</ele><time>2026-04-18T08:48:18Z</time></trkpt><trkpt lat="50.27021607710444" lon="5.298736236774154"><ele>280.42857142857144</ele><time>2026-04-18T08:48:47Z</time></trkpt><trkpt lat="50.27014999599179" lon="5.298756608698734"><ele>279.57142857142856</ele><time>2026-04-18T08:48:53Z</time></trkpt><trkpt lat="50.270078885852016" lon="5.2987937909911835"><ele>278.71428571428567</ele><time>2026-04-18T08:48:59Z</time></trkpt><trkpt lat="50.27001562835444" lon="5.298792295529707"><ele>277.85714285714283</ele><time>2026-04-18T08:49:06Z</time></trkpt><trkpt lat="50.269958988104996" lon="5.298844191220108"><ele>277.0</ele><time>2026-04-18T08:49:14Z</time></trkpt><trkpt lat="50.269890043207916" lon="5.29885772634722"><ele>277.0</ele><time>2026-04-18T08:49:20Z</time></trkpt><trkpt lat="50.26981694251645" lon="5.298902337142887"><ele>277.0</ele><time>2026-04-18T08:49:26Z</time></trkpt><trkpt lat="50.269734976342164" lon="5.298944849073924"><ele>277.0</ele><time>2026-04-18T08:49:32Z</time></trkpt><trkpt lat="50.26967281470013" lon="5.29898953775885"><ele>277.0</ele><time>2026-04-18T08:49:38Z</time></trkpt><trkpt lat="50.26961497861902" lon="5.2990319161166655"><ele>277.0</ele><time>2026-04-18T08:49:43Z</time></trkpt><trkpt lat="50.2695496875018" lon="5.299050481558283"><ele>277.0</ele><time>2026-04-18T08:49:49Z</time></trkpt><trkpt lat="50.269486021227564" lon="5.299058599705715"><ele>277.0</ele><time>2026-04-18T08:49:54Z</time></trkpt><trkpt lat="50.26942237196197" lon="5.299083194831144"><ele>275.85714285714283</ele><time>2026-04-18T08:49:58Z</time></trkpt><trkpt lat="50.269367503400694" lon="5.299135651134062"><ele>274.71428571428567</ele><time>2026-04-18T08:50:03Z</time></trkpt><trkpt lat="50.269304715152245" lon="5.299180281899458"><ele>273.57142857142856</ele><time>2026-04-18T08:50:08Z</time></trkpt><trkpt lat="50.269244913353745" lon="5.299211741600678"><ele>272.42857142857144</ele><time>2026-04-18T08:50:14Z</time></trkpt><trkpt lat="50.269179412099795" lon="5.299240098616049"><ele>271.28571428571433</ele><time>2026-04-18T08:50:18Z</time></trkpt><trkpt lat="50.26911196696945" lon="5.29928645097403"><ele>270.14285714285717</ele><time>2026-04-18T08:50:24Z</time></trkpt><trkpt lat="50.269049802159785" lon="5.299311691762921"><ele>269.0</ele><time>2026-04-18T08:50:29Z</time></trkpt><trkpt lat="50.26898572989205" lon="5.299354353756878"><ele>268.57142857142856</ele><time>2026-04-18T08:50:34Z</time></trkpt><trkpt lat="50.26892099325753" lon="5.299384190563573"><ele>268.14285714285717</ele><time>2026-04-18T08:50:40Z</time></trkpt><trkpt lat="50.268858626360974" lon="5.299401629340991"><ele>267.7142857142857</ele><time>2026-04-18T08:50:45Z</time></trkpt><trkpt lat="50.26880382392734" lon="5.299462577832159"><ele>267.2857142857143</ele><time>2026-04-18T08:50:50Z</time></trkpt><trkpt lat="50.268741389811964" lon="5.299512672531531"><ele>266.8571428571429</ele><time>2026-04-18T08:50:55Z</time></trkpt><trkpt lat="50.268674302421125" lon="5.299530073600032"><ele>266.42857142857144</ele><time>2026-04-18T08:51:02Z</time></trkpt><trkpt lat="50.2686130204528" lon="5.29957047026592"><ele>266.0</ele><time>2026-04-18T08:51:07Z</time></trkpt><trkpt lat="50.26854312552331" lon="5.2995819190904925"><ele>266.0</ele><time>2026-04-18T08:51:11Z</time></trkpt><trkpt lat="50.26848338561786" lon="5.299628696369836"><ele>266.0</ele><time>2026-04-18T08:51:16Z</time></trkpt><trkpt lat="50.2684180642584" lon="5.299671787369314"><ele>266.0</ele><time>2026-04-18T08:51:21Z</time></trkpt><trkpt lat="50.26835392530948" lon="5.2996725453208695"><ele>266.0</ele><time>2026-04-18T08:51:25Z</time></trkpt><trkpt lat="50.26829295639318" lon="5.299724133303613"><ele>266.0</ele><time>2026-04-18T08:51:29Z</time></trkpt><trkpt lat="50.26823595031078" lon="5.299768443013541"><ele>266.0</ele><time>2026-04-18T08:51:36Z</time></trkpt><trkpt lat="50.26817131112724" lon="5.299809245763149"><ele>266.0</ele><time>2026-04-18T08:51:41Z</time></trkpt><trkpt lat="50.26811204581377" lon="5.299846106858816"><ele>264.7142857142857</ele><time>2026-04-18T08:51:46Z</time></trkpt><trkpt lat="50.26804753103215" lon="5.299873454988852"><ele>263.42857142857144</ele><time>2026-04-18T08:51:51Z</time></trkpt><trkpt lat="50.267983077640544" lon="5.299901439906557"><ele>262.1428571428571</ele><time>2026-04-18T08:52:19.999Z</time></trkpt><trkpt lat="50.267915106827225" lon="5.299934339990323"><ele>260.8571428571429</ele><time>2026-04-18T08:52:25.999Z</time></trkpt><trkpt lat="50.26784001595973" lon="5.299971726185087"><ele>259.57142857142856</ele><time>2026-04-18T08:52:32.999Z</time></trkpt><trkpt lat="50.267777413329114" lon="5.300001075361832"><ele>258.2857142857143</ele><time>2026-04-18T08:52:37.999Z</time></trkpt><trkpt lat="50.2677166920739" lon="5.3000427628255435"><ele>257.0</ele><time>2026-04-18T08:52:42.999Z</time></trkpt><trkpt lat="50.26764405668295" lon="5.300091751760875"><ele>257.0</ele><time>2026-04-18T08:52:48.999Z</time></trkpt><trkpt lat="50.26757127644717" lon="5.300129294649314"><ele>257.0</ele><time>2026-04-18T08:52:54.999Z</time></trkpt><trkpt lat="50.26750746775037" lon="5.300163084726693"><ele>257.0</ele><time>2026-04-18T08:53:00.999Z</time></trkpt><trkpt lat="50.267434428716314" lon="5.300180676868039"><ele>257.0</ele><time>2026-04-18T08:53:08.999Z</time></trkpt><trkpt lat="50.26736692588372" lon="5.300205865998439"><ele>257.0</ele><time>2026-04-18T08:53:14.999Z</time></trkpt><trkpt lat="50.26730130440697" lon="5.300265121021416"><ele>257.0</ele><time>2026-04-18T08:53:19.999Z</time></trkpt><trkpt lat="50.26723453707635" lon="5.300297177641937"><ele>257.0</ele><time>2026-04-18T08:53:24.999Z</time></trkpt><trkpt lat="50.26716700109936" lon="5.300314740321536"><ele>256.7142857142857</ele><time>2026-04-18T08:53:29.999Z</time></trkpt><trkpt lat="50.26710281031472" lon="5.300357456750684"><ele>256.42857142857144</ele><time>2026-04-18T08:53:34.999Z</time></trkpt><trkpt lat="50.267039915565306" lon="5.300391714045184"><ele>256.14285714285717</ele><time>2026-04-18T08:53:40.999Z</time></trkpt><trkpt lat="50.2669712381847" lon="5.300419430880745"><ele>255.85714285714286</ele><time>2026-04-18T08:53:45.999Z</time></trkpt><trkpt lat="50.266898615225365" lon="5.300446481175133"><ele>255.5714285714286</ele><time>2026-04-18T08:53:50.999Z</time></trkpt><trkpt lat="50.26682470291743" lon="5.300475905145718"><ele>255.2857142857143</ele><time>2026-04-18T08:53:55.999Z</time></trkpt><trkpt lat="50.2667559255593" lon="5.3004905390121255"><ele>255.0</ele><time>2026-04-18T08:53:59.999Z</time></trkpt><trkpt lat="50.26669346927068" lon="5.300532787152669"><ele>255.0</ele><time>2026-04-18T08:54:04.998Z</time></trkpt><trkpt lat="50.26662186753654" lon="5.300544530386712"><ele>255.00000000000003</ele><time>2026-04-18T08:54:10.999Z</time></trkpt><trkpt lat="50.26655865231764" lon="5.300579619203849"><ele>255.0</ele><time>2026-04-18T08:54:15.999Z</time></trkpt><trkpt lat="50.26650113194699" lon="5.30063451910153"><ele>255.0</ele><time>2026-04-18T08:54:20.999Z</time></trkpt><trkpt lat="50.266438247301934" lon="5.300679664099253"><ele>255.00000000000003</ele><time>2026-04-18T08:54:25.999Z</time></trkpt><trkpt lat="50.26637349184607" lon="5.300711659391006"><ele>255.0</ele><time>2026-04-18T08:54:31.999Z</time></trkpt><trkpt lat="50.26631173470002" lon="5.3007324957675825"><ele>255.0</ele><time>2026-04-18T08:54:36.999Z</time></trkpt><trkpt lat="50.26624828285939" lon="5.300753304103042"><ele>254.14285714285717</ele><time>2026-04-18T08:54:42.999Z</time></trkpt><trkpt lat="50.26618392241046" lon="5.300764807072825"><ele>253.2857142857143</ele><time>2026-04-18T08:54:47.999Z</time></trkpt><trkpt lat="50.26612191619963" lon="5.300814250714213"><ele>252.42857142857144</ele><time>2026-04-18T08:54:51.999Z</time></trkpt><trkpt lat="50.26605619197051" lon="5.30087163684513"><ele>251.57142857142856</ele><time>2026-04-18T08:54:57Z</time></trkpt><trkpt lat="50.26599205090151" lon="5.300920269530475"><ele>250.7142857142857</ele><time>2026-04-18T08:55:02Z</time></trkpt><trkpt lat="50.265923359154314" lon="5.300959080066373"><ele>249.85714285714283</ele><time>2026-04-18T08:55:07Z</time></trkpt><trkpt lat="50.26584805147341" lon="5.300984150031101"><ele>249.0</ele><time>2026-04-18T08:55:15Z</time></trkpt><trkpt lat="50.26577893551173" lon="5.3010257429269245"><ele>249.0</ele><time>2026-04-18T08:55:21Z</time></trkpt><trkpt lat="50.265717915089866" lon="5.30108374989607"><ele>248.99999999999997</ele><time>2026-04-18T08:55:25Z</time></trkpt><trkpt lat="50.26565835278949" lon="5.301118055847262"><ele>249.0</ele><time>2026-04-18T08:55:29Z</time></trkpt><trkpt lat="50.265593933729875" lon="5.301134375585025"><ele>249.0</ele><time>2026-04-18T08:55:34Z</time></trkpt><trkpt lat="50.2655318009955" lon="5.301164453820957"><ele>248.99999999999997</ele><time>2026-04-18T08:55:39Z</time></trkpt><trkpt lat="50.265464683230334" lon="5.301199035810295"><ele>249.0</ele><time>2026-04-18T08:55:45Z</time></trkpt><trkpt lat="50.26539159706087" lon="5.301234016574416"><ele>249.0</ele><time>2026-04-18T08:55:52Z</time></trkpt><trkpt lat="50.265332657945414" lon="5.301277665338231"><ele>248.28571428571428</ele><time>2026-04-18T08:55:57Z</time></trkpt><trkpt lat="50.265257065598504" lon="5.301299342334124"><ele>247.57142857142856</ele><time>2026-04-18T08:56:02Z</time></trkpt><trkpt lat="50.265195576136314" lon="5.301348212772613"><ele>246.85714285714283</ele><time>2026-04-18T08:56:07Z</time></trkpt><trkpt lat="50.26513092789503" lon="5.301387005685495"><ele>246.1428571428571</ele><time>2026-04-18T08:56:11Z</time></trkpt><trkpt lat="50.26506878684082" lon="5.301420162957307"><ele>245.42857142857142</ele><time>2026-04-18T08:56:17Z</time></trkpt><trkpt lat="50.265000884090426" lon="5.301467994450859"><ele>244.71428571428567</ele><time>2026-04-18T08:56:22Z</time></trkpt><trkpt lat="50.26495232509275" lon="5.301532255510841"><ele>243.99999999999997</ele><time>2026-04-18T08:56:26Z</time></trkpt><trkpt lat="50.26489274062761" lon="5.301578110118871"><ele>243.28571428571425</ele><time>2026-04-18T08:56:32Z</time></trkpt><trkpt lat="50.26482782750256" lon="5.301610457328723"><ele>242.57142857142856</ele><time>2026-04-18T08:56:37Z</time></trkpt><trkpt lat="50.264764686713505" lon="5.301675336227882"><ele>241.85714285714286</ele><time>2026-04-18T08:56:41Z</time></trkpt><trkpt lat="50.26470839848067" lon="5.301738464992111"><ele>241.14285714285714</ele><time>2026-04-18T08:56:46Z</time></trkpt><trkpt lat="50.2646411828039" lon="5.3017486912776635"><ele>240.42857142857144</ele><time>2026-04-18T08:56:51Z</time></trkpt><trkpt lat="50.26457616433632" lon="5.301779801915589"><ele>239.71428571428575</ele><time>2026-04-18T08:56:56Z</time></trkpt><trkpt lat="50.264507393520844" lon="5.301797703872684"><ele>239.00000000000003</ele><time>2026-04-18T08:57:02Z</time></trkpt><trkpt lat="50.26444237495762" lon="5.30183084045778"><ele>238.14285714285717</ele><time>2026-04-18T08:57:06Z</time></trkpt><trkpt lat="50.26437290604057" lon="5.30186044868534"><ele>237.28571428571428</ele><time>2026-04-18T08:57:11Z</time></trkpt><trkpt lat="50.26430325276669" lon="5.301873751387179"><ele>236.42857142857144</ele><time>2026-04-18T08:57:16Z</time></trkpt><trkpt lat="50.264233880396766" lon="5.301903005664936"><ele>235.57142857142858</ele><time>2026-04-18T08:57:23Z</time></trkpt><trkpt lat="50.264159500447214" lon="5.301927715585449"><ele>234.71428571428572</ele><time>2026-04-18T08:57:28Z</time></trkpt><trkpt lat="50.26409132677058" lon="5.3019661125076025"><ele>233.85714285714286</ele><time>2026-04-18T08:57:33Z</time></trkpt><trkpt lat="50.264021916629936" lon="5.3019665395023186"><ele>233.0</ele><time>2026-04-18T08:57:38Z</time></trkpt><trkpt lat="50.263954437326916" lon="5.301990087420844"><ele>232.0</ele><time>2026-04-18T08:57:43Z</time></trkpt><trkpt lat="50.26388886891736" lon="5.3020087601130435"><ele>231.0</ele><time>2026-04-18T08:57:48Z</time></trkpt><trkpt lat="50.26382325604503" lon="5.302026084049587"><ele>230.0</ele><time>2026-04-18T08:57:53Z</time></trkpt><trkpt lat="50.26375621747915" lon="5.30201997930176"><ele>229.0</ele><time>2026-04-18T08:57:58Z</time></trkpt><trkpt lat="50.263682680324415" lon="5.302025228670472"><ele>228.0</ele><time>2026-04-18T08:58:04Z</time></trkpt><trkpt lat="50.26361754820001" lon="5.302027269831712"><ele>227.0</ele><time>2026-04-18T08:58:09Z</time></trkpt><trkpt lat="50.26355469927266" lon="5.302020286107657"><ele>226.0</ele><time>2026-04-18T08:58:14Z</time></trkpt><trkpt lat="50.26347871872602" lon="5.302013635857984"><ele>226.0</ele><time>2026-04-18T08:58:20Z</time></trkpt><trkpt lat="50.26339659229757" lon="5.301998526300952"><ele>226.0</ele><time>2026-04-18T08:58:25Z</time></trkpt><trkpt lat="50.263327463653" lon="5.301954157837252"><ele>226.0</ele><time>2026-04-18T08:58:30Z</time></trkpt><trkpt lat="50.26326646221491" lon="5.301926045290148"><ele>226.0</ele><time>2026-04-18T08:58:35Z</time></trkpt><trkpt lat="50.2632047511134" lon="5.301899446619282"><ele>226.0</ele><time>2026-04-18T08:58:40Z</time></trkpt><trkpt lat="50.26313422509036" lon="5.301873376809577"><ele>226.0</ele><time>2026-04-18T08:58:46Z</time></trkpt><trkpt lat="50.26307288818278" lon="5.301829143338778"><ele>226.0</ele><time>2026-04-18T08:58:51Z</time></trkpt><trkpt lat="50.26300156292819" lon="5.301828291440615"><ele>225.0</ele><time>2026-04-18T08:58:57Z</time></trkpt><trkpt lat="50.2629323360733" lon="5.301815144514517"><ele>224.0</ele><time>2026-04-18T08:59:02Z</time></trkpt><trkpt lat="50.262864021552176" lon="5.301807404825404"><ele>223.0</ele><time>2026-04-18T08:59:07Z</time></trkpt><trkpt lat="50.26278550127799" lon="5.3017878497583695"><ele>222.0</ele><time>2026-04-18T08:59:12Z</time></trkpt><trkpt lat="50.26272470729954" lon="5.3017409812235075"><ele>221.0</ele><time>2026-04-18T08:59:17Z</time></trkpt><trkpt lat="50.26265463753334" lon="5.30173006033528"><ele>220.0</ele><time>2026-04-18T08:59:23Z</time></trkpt><trkpt lat="50.26258751569717" lon="5.30170149526018"><ele>219.0</ele><time>2026-04-18T08:59:28Z</time></trkpt><trkpt lat="50.262517405964054" lon="5.301692243614843"><ele>219.0</ele><time>2026-04-18T08:59:33Z</time></trkpt><trkpt lat="50.26245358548091" lon="5.301674930200729"><ele>219.0</ele><time>2026-04-18T08:59:39Z</time></trkpt><trkpt lat="50.262382167662224" lon="5.301649298789779"><ele>219.0</ele><time>2026-04-18T08:59:45Z</time></trkpt><trkpt lat="50.26231069212295" lon="5.301623094601695"><ele>219.0</ele><time>2026-04-18T08:59:51Z</time></trkpt><trkpt lat="50.262246016586055" lon="5.301602092960828"><ele>219.0</ele><time>2026-04-18T08:59:57Z</time></trkpt><trkpt lat="50.26217726996037" lon="5.301569168429316"><ele>219.0</ele><time>2026-04-18T09:00:03Z</time></trkpt><trkpt lat="50.26210826809906" lon="5.301568197393563"><ele>219.0</ele><time>2026-04-18T09:00:08Z</time></trkpt><trkpt lat="50.2620648453859" lon="5.301483266206975"><ele>218.42857142857144</ele><time>2026-04-18T09:00:14Z</time></trkpt><trkpt lat="50.262009784089294" lon="5.30142379477462"><ele>217.85714285714283</ele><time>2026-04-18T09:00:20Z</time></trkpt><trkpt lat="50.26193450045203" lon="5.301434875611403"><ele>217.28571428571428</ele><time>2026-04-18T09:00:33Z</time></trkpt><trkpt lat="50.2618760068407" lon="5.30150458900864"><ele>216.71428571428572</ele><time>2026-04-18T09:00:42Z</time></trkpt><trkpt lat="50.261814433301275" lon="5.301570412790945"><ele>216.14285714285717</ele><time>2026-04-18T09:00:47Z</time></trkpt><trkpt lat="50.261752672487496" lon="5.301624416400426"><ele>215.57142857142856</ele><time>2026-04-18T09:00:53Z</time></trkpt><trkpt lat="50.26170043069764" lon="5.301690601080075"><ele>215.0</ele><time>2026-04-18T09:00:58Z</time></trkpt><trkpt lat="50.261651706268374" lon="5.301760204029986"><ele>215.0</ele><time>2026-04-18T09:01:03Z</time></trkpt><trkpt lat="50.261608873461206" lon="5.301835724680558"><ele>215.0</ele><time>2026-04-18T09:01:09Z</time></trkpt><trkpt lat="50.26155627230296" lon="5.301917400520472"><ele>215.0</ele><time>2026-04-18T09:01:14Z</time></trkpt><trkpt lat="50.26151147537995" lon="5.302005306931958"><ele>215.0</ele><time>2026-04-18T09:01:19Z</time></trkpt><trkpt lat="50.26147382192999" lon="5.302104084138447"><ele>215.0</ele><time>2026-04-18T09:01:24Z</time></trkpt><trkpt lat="50.26142419150071" lon="5.302191575078047"><ele>215.0</ele><time>2026-04-18T09:01:31Z</time></trkpt><trkpt lat="50.26138147347708" lon="5.302286542817129"><ele>215.0</ele><time>2026-04-18T09:01:37Z</time></trkpt><trkpt lat="50.26131954566652" lon="5.302353554139196"><ele>214.0</ele><time>2026-04-18T09:01:42Z</time></trkpt><trkpt lat="50.26128162951723" lon="5.3024392133171645"><ele>213.0</ele><time>2026-04-18T09:01:47Z</time></trkpt><trkpt lat="50.26122968680794" lon="5.302513356566909"><ele>212.0</ele><time>2026-04-18T09:01:52Z</time></trkpt><trkpt lat="50.261186198918615" lon="5.302587703181451"><ele>211.0</ele><time>2026-04-18T09:01:56Z</time></trkpt><trkpt lat="50.261151217332134" lon="5.302685925073055"><ele>210.0</ele><time>2026-04-18T09:02:01Z</time></trkpt><trkpt lat="50.261109376312284" lon="5.302765142098109"><ele>209.0</ele><time>2026-04-18T09:02:06Z</time></trkpt><trkpt lat="50.26106900598768" lon="5.302854773910722"><ele>208.0</ele><time>2026-04-18T09:02:13Z</time></trkpt><trkpt lat="50.26102903190188" lon="5.302939065484286"><ele>208.0</ele><time>2026-04-18T09:02:20Z</time></trkpt><trkpt lat="50.261009552746756" lon="5.303046688151739"><ele>208.0</ele><time>2026-04-18T09:02:25Z</time></trkpt><trkpt lat="50.26096460818416" lon="5.303135624420095"><ele>208.0</ele><time>2026-04-18T09:02:31Z</time></trkpt><trkpt lat="50.260915673338516" lon="5.30319759337531"><ele>208.0</ele><time>2026-04-18T09:02:35Z</time></trkpt><trkpt lat="50.26090732879419" lon="5.303309095000447"><ele>208.0</ele><time>2026-04-18T09:02:39Z</time></trkpt><trkpt lat="50.2608892347568" lon="5.303411963130756"><ele>208.0</ele><time>2026-04-18T09:02:44Z</time></trkpt><trkpt lat="50.26085069405042" lon="5.303507686488172"><ele>208.0</ele><time>2026-04-18T09:02:50Z</time></trkpt><trkpt lat="50.26079973320819" lon="5.3035705589425595"><ele>207.7142857142857</ele><time>2026-04-18T09:02:56Z</time></trkpt><trkpt lat="50.26074063643057" lon="5.303653175280642"><ele>207.42857142857144</ele><time>2026-04-18T09:03:01Z</time></trkpt><trkpt lat="50.260700822299725" lon="5.3037404923494025"><ele>207.14285714285714</ele><time>2026-04-18T09:03:06Z</time></trkpt><trkpt lat="50.260658277946554" lon="5.303828384534824"><ele>206.85714285714283</ele><time>2026-04-18T09:03:11Z</time></trkpt><trkpt lat="50.260623008729645" lon="5.303928165927283"><ele>206.57142857142856</ele><time>2026-04-18T09:03:16Z</time></trkpt><trkpt lat="50.26057775853638" lon="5.304010872122535"><ele>206.28571428571428</ele><time>2026-04-18T09:03:21Z</time></trkpt><trkpt lat="50.26051605630509" lon="5.304072519659439"><ele>206.0</ele><time>2026-04-18T09:03:26Z</time></trkpt><trkpt lat="50.260464163581695" lon="5.3041410429321845"><ele>205.42857142857142</ele><time>2026-04-18T09:03:32Z</time></trkpt><trkpt lat="50.26044096745074" lon="5.304246755989725"><ele>204.85714285714286</ele><time>2026-04-18T09:03:36Z</time></trkpt><trkpt lat="50.26039322665383" lon="5.30432237020194"><ele>204.28571428571428</ele><time>2026-04-18T09:03:41Z</time></trkpt><trkpt lat="50.260346912563975" lon="5.3042399560120606"><ele>203.71428571428572</ele><time>2026-04-18T09:03:46Z</time></trkpt><trkpt lat="50.260322201550906" lon="5.30413829209143"><ele>203.14285714285714</ele><time>2026-04-18T09:03:52Z</time></trkpt><trkpt lat="50.26033184312209" lon="5.304032199481083"><ele>202.57142857142856</ele><time>2026-04-18T09:03:57Z</time></trkpt><trkpt lat="50.260301800921575" lon="5.303942716495015"><ele>202.0</ele><time>2026-04-18T09:04:02Z</time></trkpt><trkpt lat="50.26026095995015" lon="5.303859969555456"><ele>202.0</ele><time>2026-04-18T09:04:08Z</time></trkpt><trkpt lat="50.260234576316165" lon="5.303759002099684"><ele>202.0</ele><time>2026-04-18T09:04:13Z</time></trkpt><trkpt lat="50.260209889221976" lon="5.30365586049702"><ele>202.0</ele><time>2026-04-18T09:04:18Z</time></trkpt><trkpt lat="50.26015509685942" lon="5.303586549250804"><ele>202.0</ele><time>2026-04-18T09:04:24Z</time></trkpt><trkpt lat="50.2601186004953" lon="5.303487276307676"><ele>202.0</ele><time>2026-04-18T09:04:29Z</time></trkpt><trkpt lat="50.26008826699899" lon="5.303394875458614"><ele>202.0</ele><time>2026-04-18T09:04:33Z</time></trkpt><trkpt lat="50.26005613925164" lon="5.303301039249332"><ele>202.0</ele><time>2026-04-18T09:04:37Z</time></trkpt><trkpt lat="50.26001997372987" lon="5.30320602542773"><ele>202.0</ele><time>2026-04-18T09:04:42Z</time></trkpt><trkpt lat="50.2599888563485" lon="5.303109830416146"><ele>202.0</ele><time>2026-04-18T09:04:48Z</time></trkpt><trkpt lat="50.25998910362642" lon="5.302998785549744"><ele>202.0</ele><time>2026-04-18T09:04:54Z</time></trkpt><trkpt lat="50.25997830889107" lon="5.302867648607467"><ele>202.0</ele><time>2026-04-18T09:05:01Z</time></trkpt><trkpt lat="50.259983569368025" lon="5.302756973863699"><ele>202.0</ele><time>2026-04-18T09:05:06Z</time></trkpt><trkpt lat="50.25996068889378" lon="5.302662452571699"><ele>202.0</ele><time>2026-04-18T09:05:13Z</time></trkpt><trkpt lat="50.25995209086222" lon="5.302561261591619"><ele>202.0</ele><time>2026-04-18T09:05:18Z</time></trkpt><trkpt lat="50.259941739154435" lon="5.3024486462138665"><ele>202.28571428571428</ele><time>2026-04-18T09:05:23Z</time></trkpt><trkpt lat="50.25993193213862" lon="5.302347901371225"><ele>202.57142857142856</ele><time>2026-04-18T09:05:28Z</time></trkpt><trkpt lat="50.25991860121941" lon="5.302239135532724"><ele>202.85714285714286</ele><time>2026-04-18T09:05:34Z</time></trkpt><trkpt lat="50.25991408954268" lon="5.302115038531066"><ele>203.14285714285714</ele><time>2026-04-18T09:05:40Z</time></trkpt><trkpt lat="50.25990939141015" lon="5.302009554280866"><ele>203.42857142857144</ele><time>2026-04-18T09:05:45Z</time></trkpt><trkpt lat="50.25990464450552" lon="5.301885534587774"><ele>203.71428571428572</ele><time>2026-04-18T09:05:51Z</time></trkpt><trkpt lat="50.25989750480588" lon="5.301784834773971"><ele>204.0</ele><time>2026-04-18T09:05:56Z</time></trkpt><trkpt lat="50.25990986032808" lon="5.301670966204532"><ele>204.14285714285714</ele><time>2026-04-18T09:06:01Z</time></trkpt><trkpt lat="50.25991266290448" lon="5.3015600222701655"><ele>204.28571428571428</ele><time>2026-04-18T09:06:06Z</time></trkpt><trkpt lat="50.259903769233624" lon="5.301455401562575"><ele>204.42857142857144</ele><time>2026-04-18T09:06:11Z</time></trkpt><trkpt lat="50.25987932302638" lon="5.301354763334951"><ele>204.57142857142856</ele><time>2026-04-18T09:06:17Z</time></trkpt><trkpt lat="50.25986061218903" lon="5.301252071171846"><ele>204.7142857142857</ele><time>2026-04-18T09:06:22Z</time></trkpt><trkpt lat="50.259849779583746" lon="5.301153220996722"><ele>204.85714285714286</ele><time>2026-04-18T09:06:27.999Z</time></trkpt><trkpt lat="50.25985167513035" lon="5.30105314561429"><ele>205.0</ele><time>2026-04-18T09:06:32.999Z</time></trkpt><trkpt lat="50.25985160848594" lon="5.3009477144090535"><ele>205.0</ele><time>2026-04-18T09:06:36.999Z</time></trkpt><trkpt lat="50.259851168017406" lon="5.300824857770248"><ele>205.0</ele><time>2026-04-18T09:06:43Z</time></trkpt><trkpt lat="50.259843974224644" lon="5.300709566650978"><ele>205.0</ele><time>2026-04-18T09:06:49Z</time></trkpt><trkpt lat="50.259836024459354" lon="5.300588158505466"><ele>205.0</ele><time>2026-04-18T09:06:55Z</time></trkpt><trkpt lat="50.25982905250118" lon="5.300481138629898"><ele>205.0</ele><time>2026-04-18T09:07:00Z</time></trkpt><trkpt lat="50.25984082786075" lon="5.300367170599649"><ele>205.0</ele><time>2026-04-18T09:07:05Z</time></trkpt><trkpt lat="50.259840290904826" lon="5.300266530504953"><ele>205.0</ele><time>2026-04-18T09:07:10Z</time></trkpt><trkpt lat="50.25982200428442" lon="5.300167731085435"><ele>205.14285714285714</ele><time>2026-04-18T09:07:15Z</time></trkpt><trkpt lat="50.25980168589838" lon="5.300056659971854"><ele>205.28571428571428</ele><time>2026-04-18T09:07:21Z</time></trkpt><trkpt lat="50.259801249173535" lon="5.299932149182971"><ele>205.42857142857142</ele><time>2026-04-18T09:07:27Z</time></trkpt><trkpt lat="50.259792686604065" lon="5.299815565098215"><ele>205.57142857142856</ele><time>2026-04-18T09:07:32Z</time></trkpt><trkpt lat="50.25976303522687" lon="5.299710542788827"><ele>205.71428571428572</ele><time>2026-04-18T09:07:37Z</time></trkpt><trkpt lat="50.259753090990934" lon="5.2996034621546935"><ele>205.85714285714283</ele><time>2026-04-18T09:07:42Z</time></trkpt><trkpt lat="50.259739420041264" lon="5.299486346014029"><ele>206.0</ele><time>2026-04-18T09:07:48Z</time></trkpt><trkpt lat="50.25970690209682" lon="5.299367078165947"><ele>205.85714285714283</ele><time>2026-04-18T09:07:54Z</time></trkpt><trkpt lat="50.25967824004695" lon="5.299255350095538"><ele>205.71428571428572</ele><time>2026-04-18T09:08:01Z</time></trkpt><trkpt lat="50.25964015039425" lon="5.299174196558963"><ele>205.57142857142856</ele><time>2026-04-18T09:08:06Z</time></trkpt><trkpt lat="50.25959205828079" lon="5.2990825669583606"><ele>205.42857142857142</ele><time>2026-04-18T09:08:12Z</time></trkpt><trkpt lat="50.25953592868602" lon="5.299012962003105"><ele>205.28571428571428</ele><time>2026-04-18T09:08:17Z</time></trkpt><trkpt lat="50.25949290332002" lon="5.298909998615835"><ele>205.14285714285714</ele><time>2026-04-18T09:08:22.999Z</time></trkpt><trkpt lat="50.25944570715813" lon="5.298827725563308"><ele>205.0</ele><time>2026-04-18T09:08:28.999Z</time></trkpt><trkpt lat="50.25939983263308" lon="5.298732437598411"><ele>205.0</ele><time>2026-04-18T09:08:33.999Z</time></trkpt><trkpt lat="50.259339430082704" lon="5.298670059509297"><ele>205.0</ele><time>2026-04-18T09:08:38.999Z</time></trkpt><trkpt lat="50.259290167034585" lon="5.298600676659562"><ele>205.0</ele><time>2026-04-18T09:08:43.999Z</time></trkpt><trkpt lat="50.25925384577373" lon="5.298504019145151"><ele>205.0</ele><time>2026-04-18T09:08:49Z</time></trkpt><trkpt lat="50.2592000242741" lon="5.298425865653743"><ele>205.0</ele><time>2026-04-18T09:08:55Z</time></trkpt><trkpt lat="50.25914999891962" lon="5.298354718536067"><ele>205.0</ele><time>2026-04-18T09:09:00Z</time></trkpt><trkpt lat="50.25910654429053" lon="5.298271389652787"><ele>205.0</ele><time>2026-04-18T09:09:05Z</time></trkpt><trkpt lat="50.25906974010298" lon="5.298186448727479"><ele>205.0</ele><time>2026-04-18T09:09:10Z</time></trkpt><trkpt lat="50.25902993880579" lon="5.298105917098049"><ele>205.0</ele><time>2026-04-18T09:09:15Z</time></trkpt><trkpt lat="50.25897087997683" lon="5.298048923069743"><ele>205.0</ele><time>2026-04-18T09:09:19.999Z</time></trkpt><trkpt lat="50.25893289885315" lon="5.297968866998105"><ele>205.0</ele><time>2026-04-18T09:09:24.999Z</time></trkpt><trkpt lat="50.25888162985112" lon="5.297884026002058"><ele>205.0</ele><time>2026-04-18T09:09:30.999Z</time></trkpt><trkpt lat="50.25883193088037" lon="5.297820636657868"><ele>205.0</ele><time>2026-04-18T09:09:35.999Z</time></trkpt><trkpt lat="50.25878847262213" lon="5.297732294797797"><ele>205.0</ele><time>2026-04-18T09:09:41.999Z</time></trkpt><trkpt lat="50.258745113256786" lon="5.2976414774158185"><ele>205.0</ele><time>2026-04-18T09:09:46.999Z</time></trkpt><trkpt lat="50.2586946777498" lon="5.297558914079241"><ele>205.0</ele><time>2026-04-18T09:09:51.999Z</time></trkpt><trkpt lat="50.258641185546686" lon="5.297496361048477"><ele>205.0</ele><time>2026-04-18T09:09:57.999Z</time></trkpt><trkpt lat="50.258594573852605" lon="5.29742491402069"><ele>205.0</ele><time>2026-04-18T09:10:03.999Z</time></trkpt><trkpt lat="50.25854570237222" lon="5.297336085474226"><ele>205.0</ele><time>2026-04-18T09:10:08.999Z</time></trkpt><trkpt lat="50.25848839706863" lon="5.29726567624515"><ele>205.0</ele><time>2026-04-18T09:10:13.999Z</time></trkpt><trkpt lat="50.258445763205486" lon="5.297190530472318"><ele>205.0</ele><time>2026-04-18T09:10:18.999Z</time></trkpt><trkpt lat="50.25839758394359" lon="5.29710181572193"><ele>205.14285714285714</ele><time>2026-04-18T09:10:24.999Z</time></trkpt><trkpt lat="50.25835532372697" lon="5.297025040844005"><ele>205.28571428571428</ele><time>2026-04-18T09:10:29.999Z</time></trkpt><trkpt lat="50.258309282515135" lon="5.296944403910834"><ele>205.42857142857142</ele><time>2026-04-18T09:10:35.999Z</time></trkpt><trkpt lat="50.25827351246122" lon="5.29685982483659"><ele>205.57142857142856</ele><time>2026-04-18T09:10:40.999Z</time></trkpt><trkpt lat="50.25822166092118" lon="5.296777986286468"><ele>205.71428571428572</ele><time>2026-04-18T09:10:45.999Z</time></trkpt><trkpt lat="50.25818489556211" lon="5.296694722773635"><ele>205.85714285714283</ele><time>2026-04-18T09:10:51Z</time></trkpt><trkpt lat="50.258134896103094" lon="5.296620473774568"><ele>206.0</ele><time>2026-04-18T09:10:56Z</time></trkpt><trkpt lat="50.25808178466479" lon="5.296554951314238"><ele>205.99999999999997</ele><time>2026-04-18T09:11:01Z</time></trkpt><trkpt lat="50.25803071506801" lon="5.29647523617423"><ele>206.0</ele><time>2026-04-18T09:11:06Z</time></trkpt><trkpt lat="50.25798076034489" lon="5.296388621197216"><ele>206.0</ele><time>2026-04-18T09:11:12Z</time></trkpt><trkpt lat="50.257939241522976" lon="5.296294682982291"><ele>206.0</ele><time>2026-04-18T09:11:17Z</time></trkpt><trkpt lat="50.25789044423622" lon="5.2962278581968185"><ele>206.0</ele><time>2026-04-18T09:11:22Z</time></trkpt><trkpt lat="50.25785270217167" lon="5.296132020898612"><ele>205.99999999999997</ele><time>2026-04-18T09:11:27.999Z</time></trkpt><trkpt lat="50.25781532922624" lon="5.296050541500317"><ele>206.0</ele><time>2026-04-18T09:11:32.999Z</time></trkpt><trkpt lat="50.25776401486148" lon="5.295985743184652"><ele>205.99999999999997</ele><time>2026-04-18T09:11:36.999Z</time></trkpt><trkpt lat="50.25771034689191" lon="5.295924395153748"><ele>206.0</ele><time>2026-04-18T09:11:42.999Z</time></trkpt><trkpt lat="50.257706166452266" lon="5.295819667109916"><ele>206.0</ele><time>2026-04-18T09:11:51.999Z</time></trkpt><trkpt lat="50.257760246990024" lon="5.295737183057766"><ele>206.0</ele><time>2026-04-18T09:11:59.999Z</time></trkpt><trkpt lat="50.257797613758754" lon="5.295656718409693"><ele>206.0</ele><time>2026-04-18T09:12:06.999Z</time></trkpt><trkpt lat="50.25784170825807" lon="5.295578945047753"><ele>205.99999999999997</ele><time>2026-04-18T09:12:12.999Z</time></trkpt><trkpt lat="50.257889832770346" lon="5.295494050495377"><ele>206.0</ele><time>2026-04-18T09:12:17.999Z</time></trkpt><trkpt lat="50.25792634318306" lon="5.295391116407257"><ele>205.99999999999997</ele><time>2026-04-18T09:12:22.999Z</time></trkpt><trkpt lat="50.2579485436295" lon="5.295279611279946"><ele>206.0</ele><time>2026-04-18T09:12:27.999Z</time></trkpt><trkpt lat="50.25798531363155" lon="5.295185548857793"><ele>206.0</ele><time>2026-04-18T09:12:36.999Z</time></trkpt><trkpt lat="50.25802612900637" lon="5.2950872406492895"><ele>206.0</ele><time>2026-04-18T09:12:42.999Z</time></trkpt><trkpt lat="50.25806751659742" lon="5.294989761166008"><ele>206.0</ele><time>2026-04-18T09:12:51Z</time></trkpt><trkpt lat="50.2580967855058" lon="5.294900735162382"><ele>205.99999999999997</ele><time>2026-04-18T09:12:56Z</time></trkpt><trkpt lat="50.25813021209354" lon="5.294814016530504"><ele>206.0</ele><time>2026-04-18T09:13:01Z</time></trkpt><trkpt lat="50.25815871262647" lon="5.29472023309993"><ele>206.99999999999997</ele><time>2026-04-18T09:13:07Z</time></trkpt><trkpt lat="50.258189191722636" lon="5.294617309230513"><ele>208.0</ele><time>2026-04-18T09:13:13Z</time></trkpt><trkpt lat="50.25821558397468" lon="5.294516755103714"><ele>209.0</ele><time>2026-04-18T09:13:19Z</time></trkpt><trkpt lat="50.258252767184906" lon="5.294415990991324"><ele>210.0</ele><time>2026-04-18T09:13:25Z</time></trkpt><trkpt lat="50.25828693628589" lon="5.29433255723877"><ele>211.0</ele><time>2026-04-18T09:13:31Z</time></trkpt><trkpt lat="50.258321686426804" lon="5.294241135240989"><ele>211.99999999999997</ele><time>2026-04-18T09:13:36Z</time></trkpt><trkpt lat="50.25836842107083" lon="5.294150580436038"><ele>213.0</ele><time>2026-04-18T09:13:42Z</time></trkpt><trkpt lat="50.258407572912546" lon="5.294065408071511"><ele>212.99999999999997</ele><time>2026-04-18T09:13:47Z</time></trkpt><trkpt lat="50.25845706882416" lon="5.293976148983063"><ele>213.0</ele><time>2026-04-18T09:13:53Z</time></trkpt><trkpt lat="50.25849417733422" lon="5.293890743156024"><ele>213.0</ele><time>2026-04-18T09:13:58Z</time></trkpt><trkpt lat="50.25853775975619" lon="5.293799136950875"><ele>213.0</ele><time>2026-04-18T09:14:04Z</time></trkpt><trkpt lat="50.2585841937597" lon="5.2937200869968075"><ele>213.0</ele><time>2026-04-18T09:14:10Z</time></trkpt><trkpt lat="50.258633158820835" lon="5.29365466684853"><ele>212.99999999999997</ele><time>2026-04-18T09:14:17Z</time></trkpt><trkpt lat="50.25868783159865" lon="5.293583682557107"><ele>213.0</ele><time>2026-04-18T09:14:22Z</time></trkpt><trkpt lat="50.25873844218695" lon="5.2934893324716485"><ele>213.14285714285714</ele><time>2026-04-18T09:14:27Z</time></trkpt><trkpt lat="50.258788227371106" lon="5.293419075958246"><ele>213.28571428571428</ele><time>2026-04-18T09:14:32Z</time></trkpt><trkpt lat="50.25883793456008" lon="5.2933500528064465"><ele>213.42857142857144</ele><time>2026-04-18T09:14:37Z</time></trkpt><trkpt lat="50.25890256768611" lon="5.293322306168193"><ele>213.57142857142856</ele><time>2026-04-18T09:14:44Z</time></trkpt><trkpt lat="50.2589589093031" lon="5.293243903957614"><ele>213.71428571428572</ele><time>2026-04-18T09:14:49Z</time></trkpt><trkpt lat="50.259011825490305" lon="5.293151907590479"><ele>213.85714285714286</ele><time>2026-04-18T09:14:55Z</time></trkpt><trkpt lat="50.259033806361714" lon="5.293051141760435"><ele>214.0</ele><time>2026-04-18T09:15:01Z</time></trkpt><trkpt lat="50.259072727207005" lon="5.292965717899724"><ele>215.14285714285717</ele><time>2026-04-18T09:15:07Z</time></trkpt><trkpt lat="50.25913040909722" lon="5.292924922935493"><ele>216.28571428571428</ele><time>2026-04-18T09:15:13Z</time></trkpt><trkpt lat="50.25920339460764" lon="5.292916578082084"><ele>217.42857142857144</ele><time>2026-04-18T09:15:19Z</time></trkpt><trkpt lat="50.25927827920305" lon="5.292909564819364"><ele>218.57142857142858</ele><time>2026-04-18T09:15:26Z</time></trkpt><trkpt lat="50.259344218414945" lon="5.292897781496152"><ele>219.71428571428572</ele><time>2026-04-18T09:15:31Z</time></trkpt><trkpt lat="50.25942070447493" lon="5.292868629521512"><ele>220.85714285714286</ele><time>2026-04-18T09:15:38Z</time></trkpt><trkpt lat="50.25947995622647" lon="5.292808596940819"><ele>222.0</ele><time>2026-04-18T09:15:45Z</time></trkpt><trkpt lat="50.25954323113441" lon="5.292780500749261"><ele>222.0</ele><time>2026-04-18T09:15:53Z</time></trkpt><trkpt lat="50.259611422572064" lon="5.292732647266747"><ele>222.0</ele><time>2026-04-18T09:16:00Z</time></trkpt><trkpt lat="50.25966750609332" lon="5.292665870329715"><ele>222.0</ele><time>2026-04-18T09:16:06Z</time></trkpt><trkpt lat="50.2597285852917" lon="5.292604180729913"><ele>222.0</ele><time>2026-04-18T09:16:11Z</time></trkpt><trkpt lat="50.25977981636431" lon="5.292525551940017"><ele>222.0</ele><time>2026-04-18T09:16:16Z</time></trkpt><trkpt lat="50.25983533642046" lon="5.292476360233578"><ele>222.0</ele><time>2026-04-18T09:16:25Z</time></trkpt><trkpt lat="50.25989030125875" lon="5.2924216186906765"><ele>222.0</ele><time>2026-04-18T09:16:32Z</time></trkpt><trkpt lat="50.25994135011971" lon="5.292357257542929"><ele>222.42857142857142</ele><time>2026-04-18T09:16:39Z</time></trkpt><trkpt lat="50.25999682151199" lon="5.2923100539632415"><ele>222.8571428571429</ele><time>2026-04-18T09:16:45Z</time></trkpt><trkpt lat="50.26006264582568" lon="5.292287741955646"><ele>223.2857142857143</ele><time>2026-04-18T09:16:52Z</time></trkpt><trkpt lat="50.2601276792781" lon="5.292244328285481"><ele>223.71428571428572</ele><time>2026-04-18T09:17:00Z</time></trkpt><trkpt lat="50.26017888605129" lon="5.292177554758362"><ele>224.14285714285717</ele><time>2026-04-18T09:17:07Z</time></trkpt><trkpt lat="50.260250548139254" lon="5.292154950102733"><ele>224.5714285714286</ele><time>2026-04-18T09:17:13Z</time></trkpt><trkpt lat="50.26029454655574" lon="5.2920717737816725"><ele>225.00000000000003</ele><time>2026-04-18T09:17:46Z</time></trkpt><trkpt lat="50.26035992051152" lon="5.292036649707672"><ele>225.00000000000003</ele><time>2026-04-18T09:17:53Z</time></trkpt><trkpt lat="50.26041735370569" lon="5.2919766582873935"><ele>225.0</ele><time>2026-04-18T09:18:00Z</time></trkpt><trkpt lat="50.26043916455085" lon="5.291879023474918"><ele>225.00000000000003</ele><time>2026-04-18T09:18:07Z</time></trkpt><trkpt lat="50.260398060901196" lon="5.291788567909087"><ele>225.00000000000003</ele><time>2026-04-18T09:18:13Z</time></trkpt><trkpt lat="50.260368524332904" lon="5.291688439215424"><ele>225.0</ele><time>2026-04-18T09:18:20Z</time></trkpt><trkpt lat="50.260341499960084" lon="5.291591261088736"><ele>225.00000000000003</ele><time>2026-04-18T09:18:26Z</time></trkpt><trkpt lat="50.26031816301985" lon="5.291491340682783"><ele>225.00000000000003</ele><time>2026-04-18T09:18:32Z</time></trkpt><trkpt lat="50.26030122243873" lon="5.291394716824079"><ele>225.00000000000003</ele><time>2026-04-18T09:18:38Z</time></trkpt><trkpt lat="50.26029627070098" lon="5.2912931155478"><ele>225.0</ele><time>2026-04-18T09:18:44Z</time></trkpt><trkpt lat="50.26028106518182" lon="5.291195451133583"><ele>225.00000000000003</ele><time>2026-04-18T09:18:50Z</time></trkpt><trkpt lat="50.2602585171549" lon="5.291098034130004"><ele>225.00000000000003</ele><time>2026-04-18T09:18:56Z</time></trkpt><trkpt lat="50.26021595113489" lon="5.2910198824673875"><ele>225.0</ele><time>2026-04-18T09:19:02Z</time></trkpt><trkpt lat="50.26020630187919" lon="5.290920836463265"><ele>225.00000000000003</ele><time>2026-04-18T09:19:09Z</time></trkpt><trkpt lat="50.26023960358606" lon="5.290825781181005"><ele>225.00000000000003</ele><time>2026-04-18T09:19:18Z</time></trkpt><trkpt lat="50.260290393965185" lon="5.290756410819086"><ele>225.00000000000003</ele><time>2026-04-18T09:19:28Z</time></trkpt><trkpt lat="50.2603295358899" lon="5.2906696857814905"><ele>225.0</ele><time>2026-04-18T09:19:47Z</time></trkpt><trkpt lat="50.260371014219274" lon="5.290580958211592"><ele>225.00000000000003</ele><time>2026-04-18T09:19:55Z</time></trkpt><trkpt lat="50.260398790232585" lon="5.290488398878709"><ele>225.00000000000003</ele><time>2026-04-18T09:20:02Z</time></trkpt><trkpt lat="50.2604486528003" lon="5.290397719050569"><ele>225.0</ele><time>2026-04-18T09:20:11Z</time></trkpt><trkpt lat="50.260499773070336" lon="5.290328248927444"><ele>225.00000000000003</ele><time>2026-04-18T09:20:20Z</time></trkpt><trkpt lat="50.260546533772825" lon="5.290257727079714"><ele>225.00000000000003</ele><time>2026-04-18T09:20:28Z</time></trkpt><trkpt lat="50.26058929870786" lon="5.290177155206672"><ele>226.00000000000003</ele><time>2026-04-18T09:20:36Z</time></trkpt><trkpt lat="50.260627318742095" lon="5.290092563526351"><ele>227.0</ele><time>2026-04-18T09:20:45Z</time></trkpt><trkpt lat="50.26067525899908" lon="5.290013442217508"><ele>228.00000000000003</ele><time>2026-04-18T09:20:53Z</time></trkpt><trkpt lat="50.2607300881386" lon="5.2899409882289765"><ele>229.00000000000003</ele><time>2026-04-18T09:21:11Z</time></trkpt><trkpt lat="50.26076696932958" lon="5.289856953039883"><ele>230.0</ele><time>2026-04-18T09:21:20Z</time></trkpt><trkpt lat="50.26081255850021" lon="5.28978250981745"><ele>231.00000000000003</ele><time>2026-04-18T09:21:29Z</time></trkpt><trkpt lat="50.260849875852436" lon="5.289690034009571"><ele>232.00000000000003</ele><time>2026-04-18T09:21:40Z</time></trkpt><trkpt lat="50.26090108288201" lon="5.289619051525512"><ele>232.42857142857144</ele><time>2026-04-18T09:21:48Z</time></trkpt><trkpt lat="50.260941801011214" lon="5.289539975435802"><ele>232.85714285714286</ele><time>2026-04-18T09:21:56Z</time></trkpt><trkpt lat="50.26098215868752" lon="5.2894490734609345"><ele>233.28571428571428</ele><time>2026-04-18T09:22:05Z</time></trkpt><trkpt lat="50.26101963570349" lon="5.289355626951785"><ele>233.71428571428572</ele><time>2026-04-18T09:22:14Z</time></trkpt><trkpt lat="50.26106560472544" lon="5.289285522098429"><ele>234.1428571428571</ele><time>2026-04-18T09:22:23Z</time></trkpt><trkpt lat="50.26110231745276" lon="5.2891954157164145"><ele>234.57142857142856</ele><time>2026-04-18T09:22:31Z</time></trkpt><trkpt lat="50.26114656600352" lon="5.289121683285777"><ele>235.0</ele><time>2026-04-18T09:24:21Z</time></trkpt><trkpt lat="50.26116844358506" lon="5.2890250247867705"><ele>235.85714285714283</ele><time>2026-04-18T09:24:28Z</time></trkpt><trkpt lat="50.261191795621905" lon="5.2889197430229435"><ele>236.7142857142857</ele><time>2026-04-18T09:24:34Z</time></trkpt><trkpt lat="50.26121993006279" lon="5.288830872559916"><ele>237.57142857142856</ele><time>2026-04-18T09:24:41Z</time></trkpt><trkpt lat="50.261240183822586" lon="5.288737452849241"><ele>238.42857142857144</ele><time>2026-04-18T09:24:49Z</time></trkpt><trkpt lat="50.261268292846175" lon="5.288640400822091"><ele>239.2857142857143</ele><time>2026-04-18T09:24:58Z</time></trkpt><trkpt lat="50.26130085989689" lon="5.288540329260161"><ele>240.14285714285717</ele><time>2026-04-18T09:25:06Z</time></trkpt><trkpt lat="50.261342278553556" lon="5.288463668222769"><ele>241.0</ele><time>2026-04-18T09:25:14Z</time></trkpt><trkpt lat="50.26136750024877" lon="5.288370846500092"><ele>241.0</ele><time>2026-04-18T09:25:24Z</time></trkpt><trkpt lat="50.26140013975251" lon="5.288285062234905"><ele>241.00000000000003</ele><time>2026-04-18T09:25:31Z</time></trkpt><trkpt lat="50.26142451562987" lon="5.288193516687862"><ele>241.0</ele><time>2026-04-18T09:25:38.001Z</time></trkpt><trkpt lat="50.26145963962929" lon="5.2880892284383485"><ele>241.0</ele><time>2026-04-18T09:25:45.001Z</time></trkpt><trkpt lat="50.261491162554634" lon="5.288001042179543"><ele>241.00000000000003</ele><time>2026-04-18T09:25:52Z</time></trkpt><trkpt lat="50.26152510986964" lon="5.287914943218718"><ele>241.0</ele><time>2026-04-18T09:25:58Z</time></trkpt><trkpt lat="50.26155220633235" lon="5.28782353211773"><ele>241.0</ele><time>2026-04-18T09:26:04Z</time></trkpt><trkpt lat="50.26157635865365" lon="5.287727466214882"><ele>242.2857142857143</ele><time>2026-04-18T09:26:11Z</time></trkpt><trkpt lat="50.26160101150185" lon="5.287633054375618"><ele>243.5714285714286</ele><time>2026-04-18T09:26:17Z</time></trkpt><trkpt lat="50.261619557101156" lon="5.287531419229556"><ele>244.85714285714286</ele><time>2026-04-18T09:26:24Z</time></trkpt><trkpt lat="50.261641225662" lon="5.28743637986809"><ele>246.14285714285717</ele><time>2026-04-18T09:26:32Z</time></trkpt><trkpt lat="50.26167677878594" lon="5.287338769825029"><ele>247.42857142857144</ele><time>2026-04-18T09:26:40Z</time></trkpt><trkpt lat="50.261705442404164" lon="5.287234009761056"><ele>248.71428571428572</ele><time>2026-04-18T09:26:45Z</time></trkpt><trkpt lat="50.26171432541927" lon="5.287120898342364"><ele>250.0</ele><time>2026-04-18T09:26:52.001Z</time></trkpt><trkpt lat="50.26173308006783" lon="5.287017881828181"><ele>250.14285714285714</ele><time>2026-04-18T09:26:59.001Z</time></trkpt><trkpt lat="50.26176115682763" lon="5.286922268572107"><ele>250.28571428571428</ele><time>2026-04-18T09:27:07.001Z</time></trkpt><trkpt lat="50.26179493933923" lon="5.286829741965306"><ele>250.42857142857142</ele><time>2026-04-18T09:27:12.001Z</time></trkpt><trkpt lat="50.261816505100214" lon="5.286726489494974"><ele>250.57142857142856</ele><time>2026-04-18T09:27:22.001Z</time></trkpt><trkpt lat="50.26183451073632" lon="5.286625719976163"><ele>250.71428571428572</ele><time>2026-04-18T09:27:27.001Z</time></trkpt><trkpt lat="50.26186285569791" lon="5.286532107027998"><ele>250.85714285714283</ele><time>2026-04-18T09:27:33.001Z</time></trkpt><trkpt lat="50.26189730489965" lon="5.286441268569353"><ele>250.99999999999997</ele><time>2026-04-18T09:27:39.001Z</time></trkpt><trkpt lat="50.26191135843335" lon="5.286343728146433"><ele>250.99999999999997</ele><time>2026-04-18T09:27:45.001Z</time></trkpt><trkpt lat="50.26194019056954" lon="5.286244958562293"><ele>251.0</ele><time>2026-04-18T09:27:55.001Z</time></trkpt><trkpt lat="50.26195449667185" lon="5.286139200805323"><ele>250.99999999999997</ele><time>2026-04-18T09:28:02.001Z</time></trkpt><trkpt lat="50.261992887155905" lon="5.286045863917016"><ele>250.99999999999997</ele><time>2026-04-18T09:28:10Z</time></trkpt><trkpt lat="50.26199524912864" lon="5.285947329667301"><ele>251.0</ele><time>2026-04-18T09:28:31Z</time></trkpt><trkpt lat="50.26203390219471" lon="5.285866696375136"><ele>250.99999999999997</ele><time>2026-04-18T09:28:38Z</time></trkpt><trkpt lat="50.26204620766498" lon="5.285755317784226"><ele>250.99999999999997</ele><time>2026-04-18T09:28:46Z</time></trkpt><trkpt lat="50.26206030263549" lon="5.285658680975992"><ele>251.1428571428571</ele><time>2026-04-18T09:28:52Z</time></trkpt><trkpt lat="50.26207397379379" lon="5.285548723608687"><ele>251.28571428571428</ele><time>2026-04-18T09:29:01Z</time></trkpt><trkpt lat="50.2621079044557" lon="5.2854453120800855"><ele>251.42857142857142</ele><time>2026-04-18T09:29:11Z</time></trkpt><trkpt lat="50.262132502368964" lon="5.285335699165085"><ele>251.57142857142856</ele><time>2026-04-18T09:29:17.001Z</time></trkpt><trkpt lat="50.26214825817509" lon="5.285229676394375"><ele>251.71428571428572</ele><time>2026-04-18T09:29:30.001Z</time></trkpt><trkpt lat="50.2621773409652" lon="5.285119946368661"><ele>251.85714285714286</ele><time>2026-04-18T09:29:36.001Z</time></trkpt><trkpt lat="50.26218842043667" lon="5.2850226256172625"><ele>252.0</ele><time>2026-04-18T09:29:45Z</time></trkpt><trkpt lat="50.26220747805592" lon="5.2849109939398184"><ele>252.0</ele><time>2026-04-18T09:29:52Z</time></trkpt><trkpt lat="50.2622322201564" lon="5.284811186179821"><ele>252.0</ele><time>2026-04-18T09:30:04Z</time></trkpt><trkpt lat="50.262261060690754" lon="5.284706394899468"><ele>252.0</ele><time>2026-04-18T09:30:09Z</time></trkpt><trkpt lat="50.26228744229987" lon="5.284598240242783"><ele>252.0</ele><time>2026-04-18T09:30:17Z</time></trkpt><trkpt lat="50.26232999869345" lon="5.284515977966482"><ele>252.0</ele><time>2026-04-18T09:30:23Z</time></trkpt><trkpt lat="50.262376996230174" lon="5.284443079574016"><ele>252.0</ele><time>2026-04-18T09:30:29Z</time></trkpt><trkpt lat="50.26240739584479" lon="5.284355943300885"><ele>252.0</ele><time>2026-04-18T09:30:38Z</time></trkpt><trkpt lat="50.26243224423042" lon="5.284252010089929"><ele>254.14285714285714</ele><time>2026-04-18T09:30:45Z</time></trkpt><trkpt lat="50.262459312956466" lon="5.284149776968501"><ele>256.2857142857143</ele><time>2026-04-18T09:30:52Z</time></trkpt><trkpt lat="50.262476325355394" lon="5.284053351308891"><ele>258.42857142857144</ele><time>2026-04-18T09:30:58Z</time></trkpt><trkpt lat="50.26250116435077" lon="5.283949968100226"><ele>260.57142857142856</ele><time>2026-04-18T09:31:06Z</time></trkpt><trkpt lat="50.26250734190506" lon="5.283849591649536"><ele>262.7142857142857</ele><time>2026-04-18T09:31:14Z</time></trkpt><trkpt lat="50.26252175024372" lon="5.28374993142672"><ele>264.8571428571429</ele><time>2026-04-18T09:31:22Z</time></trkpt><trkpt lat="50.26251457247554" lon="5.2836499667747825"><ele>267.0</ele><time>2026-04-18T09:31:34Z</time></trkpt><trkpt lat="50.2625435247506" lon="5.283548252043808"><ele>267.42857142857144</ele><time>2026-04-18T09:31:40Z</time></trkpt><trkpt lat="50.26255553009176" lon="5.283439703272184"><ele>267.8571428571429</ele><time>2026-04-18T09:31:46Z</time></trkpt><trkpt lat="50.26255756397113" lon="5.283326416763736"><ele>268.2857142857143</ele><time>2026-04-18T09:31:53Z</time></trkpt><trkpt lat="50.262569751864476" lon="5.283219021311139"><ele>268.7142857142857</ele><time>2026-04-18T09:32:00Z</time></trkpt><trkpt lat="50.262548350645616" lon="5.283108426354754"><ele>269.1428571428571</ele><time>2026-04-18T09:32:08Z</time></trkpt><trkpt lat="50.26254829478764" lon="5.2830095800891765"><ele>269.57142857142856</ele><time>2026-04-18T09:32:15Z</time></trkpt><trkpt lat="50.26255097501194" lon="5.282902463915921"><ele>270.0</ele><time>2026-04-18T09:32:23Z</time></trkpt><trkpt lat="50.26256122482303" lon="5.282794185840687"><ele>270.57142857142856</ele><time>2026-04-18T09:32:32Z</time></trkpt><trkpt lat="50.26253476014727" lon="5.282694155354947"><ele>271.1428571428571</ele><time>2026-04-18T09:32:42Z</time></trkpt><trkpt lat="50.262549548302175" lon="5.282592366001709"><ele>271.7142857142857</ele><time>2026-04-18T09:32:49Z</time></trkpt><trkpt lat="50.26255379074561" lon="5.282491410029508"><ele>272.2857142857143</ele><time>2026-04-18T09:32:56Z</time></trkpt><trkpt lat="50.26256376102519" lon="5.282392988636015"><ele>272.8571428571429</ele><time>2026-04-18T09:33:04Z</time></trkpt><trkpt lat="50.2625901002202" lon="5.282298142961735"><ele>273.42857142857144</ele><time>2026-04-18T09:33:21Z</time></trkpt><trkpt lat="50.262605254252584" lon="5.282196501352857"><ele>274.0</ele><time>2026-04-18T09:33:28Z</time></trkpt><trkpt lat="50.26261686237684" lon="5.282090395082244"><ele>274.42857142857144</ele><time>2026-04-18T09:33:34Z</time></trkpt><trkpt lat="50.262630009258416" lon="5.281982548501736"><ele>274.8571428571429</ele><time>2026-04-18T09:33:42Z</time></trkpt><trkpt lat="50.262639928278496" lon="5.281871996404772"><ele>275.2857142857143</ele><time>2026-04-18T09:33:48Z</time></trkpt><trkpt lat="50.26266112280717" lon="5.281769305606843"><ele>275.7142857142857</ele><time>2026-04-18T09:33:55Z</time></trkpt><trkpt lat="50.2626647346185" lon="5.281667262504479"><ele>276.1428571428571</ele><time>2026-04-18T09:34:02Z</time></trkpt><trkpt lat="50.26269125213002" lon="5.281564672280489"><ele>276.57142857142856</ele><time>2026-04-18T09:34:08Z</time></trkpt><trkpt lat="50.262715900104794" lon="5.281457802824117"><ele>277.0</ele><time>2026-04-18T09:34:14Z</time></trkpt><trkpt lat="50.26272594049764" lon="5.281339245440088"><ele>277.2857142857143</ele><time>2026-04-18T09:34:22Z</time></trkpt><trkpt lat="50.26276161709461" lon="5.281252244852752"><ele>277.57142857142856</ele><time>2026-04-18T09:34:26Z</time></trkpt><trkpt lat="50.262776370680236" lon="5.281132154132515"><ele>277.85714285714283</ele><time>2026-04-18T09:34:36Z</time></trkpt><trkpt lat="50.26279223138054" lon="5.281032043356426"><ele>278.1428571428571</ele><time>2026-04-18T09:34:42Z</time></trkpt><trkpt lat="50.26280581237598" lon="5.280917997649931"><ele>278.42857142857144</ele><time>2026-04-18T09:34:49Z</time></trkpt><trkpt lat="50.26281929613517" lon="5.280816078393824"><ele>278.71428571428567</ele><time>2026-04-18T09:34:55Z</time></trkpt><trkpt lat="50.26284895585029" lon="5.280722926952535"><ele>279.0</ele><time>2026-04-18T09:35:01Z</time></trkpt><trkpt lat="50.262876590998616" lon="5.280621608488268"><ele>279.4285714285714</ele><time>2026-04-18T09:35:06Z</time></trkpt><trkpt lat="50.26289045942743" lon="5.280517942320294"><ele>279.85714285714283</ele><time>2026-04-18T09:35:13Z</time></trkpt><trkpt lat="50.262891907484324" lon="5.280415326353255"><ele>280.2857142857143</ele><time>2026-04-18T09:35:18Z</time></trkpt><trkpt lat="50.262886434315575" lon="5.280316911302484"><ele>280.71428571428567</ele><time>2026-04-18T09:35:24Z</time></trkpt><trkpt lat="50.26288504732773" lon="5.280206294174955"><ele>281.1428571428571</ele><time>2026-04-18T09:35:29Z</time></trkpt><trkpt lat="50.26289961795957" lon="5.280091134422403"><ele>281.57142857142856</ele><time>2026-04-18T09:35:35Z</time></trkpt><trkpt lat="50.262912118636265" lon="5.279983151479571"><ele>282.0</ele><time>2026-04-18T09:35:41Z</time></trkpt><trkpt lat="50.262928242440275" lon="5.279879288147976"><ele>282.0</ele><time>2026-04-18T09:35:47Z</time></trkpt><trkpt lat="50.26293573538116" lon="5.279775028428328"><ele>282.0</ele><time>2026-04-18T09:35:56Z</time></trkpt><trkpt lat="50.262929161443886" lon="5.279663784791873"><ele>282.0</ele><time>2026-04-18T09:36:03Z</time></trkpt><trkpt lat="50.26293787833821" lon="5.279564979786747"><ele>282.0</ele><time>2026-04-18T09:36:09Z</time></trkpt><trkpt lat="50.26290214456261" lon="5.279479052247662"><ele>282.0</ele><time>2026-04-18T09:36:17Z</time></trkpt><trkpt lat="50.262886143253766" lon="5.279370168619086"><ele>282.0</ele><time>2026-04-18T09:36:24Z</time></trkpt><trkpt lat="50.26288738137543" lon="5.279256118170586"><ele>282.0</ele><time>2026-04-18T09:36:30Z</time></trkpt><trkpt lat="50.262890693964096" lon="5.279156352778141"><ele>282.0</ele><time>2026-04-18T09:36:36Z</time></trkpt><trkpt lat="50.262897088046984" lon="5.279050577601318"><ele>282.0</ele><time>2026-04-18T09:36:43Z</time></trkpt><trkpt lat="50.26287340731011" lon="5.27894834160979"><ele>282.0</ele><time>2026-04-18T09:36:48Z</time></trkpt><trkpt lat="50.262892811514625" lon="5.278833380960301"><ele>282.0</ele><time>2026-04-18T09:36:56Z</time></trkpt><trkpt lat="50.262898768390635" lon="5.278732810015811"><ele>282.0</ele><time>2026-04-18T09:37:02Z</time></trkpt><trkpt lat="50.26290459631901" lon="5.278628628419199"><ele>282.0</ele><time>2026-04-18T09:37:07Z</time></trkpt><trkpt lat="50.262901340261486" lon="5.27851718236708"><ele>282.0</ele><time>2026-04-18T09:37:12Z</time></trkpt><trkpt lat="50.26288957390066" lon="5.2784098128015335"><ele>282.14285714285717</ele><time>2026-04-18T09:37:20Z</time></trkpt><trkpt lat="50.262908777448175" lon="5.278301052790622"><ele>282.2857142857143</ele><time>2026-04-18T09:37:27Z</time></trkpt><trkpt lat="50.262904229225875" lon="5.278193448699098"><ele>282.42857142857144</ele><time>2026-04-18T09:37:34Z</time></trkpt><trkpt lat="50.26291049505972" lon="5.278091137317005"><ele>282.57142857142856</ele><time>2026-04-18T09:37:40Z</time></trkpt><trkpt lat="50.26293831520811" lon="5.277989116859949"><ele>282.7142857142857</ele><time>2026-04-18T09:37:47Z</time></trkpt><trkpt lat="50.262939380595974" lon="5.277886147883942"><ele>282.8571428571429</ele><time>2026-04-18T09:37:54Z</time></trkpt><trkpt lat="50.26294834208643" lon="5.277786032033992"><ele>283.0</ele><time>2026-04-18T09:38:00Z</time></trkpt><trkpt lat="50.26297219893888" lon="5.277692924107187"><ele>283.57142857142856</ele><time>2026-04-18T09:38:09Z</time></trkpt><trkpt lat="50.26300909402423" lon="5.277609379566212"><ele>284.14285714285717</ele><time>2026-04-18T09:38:18Z</time></trkpt><trkpt lat="50.263047684948276" lon="5.277521257030921"><ele>284.7142857142857</ele><time>2026-04-18T09:38:23Z</time></trkpt><trkpt lat="50.263098972838" lon="5.277424965874033"><ele>285.2857142857143</ele><time>2026-04-18T09:38:32Z</time></trkpt><trkpt lat="50.26315727962541" lon="5.277384086405215"><ele>285.8571428571429</ele><time>2026-04-18T09:38:38Z</time></trkpt><trkpt lat="50.26319519698391" lon="5.2773018216871845"><ele>286.42857142857144</ele><time>2026-04-18T09:38:45Z</time></trkpt><trkpt lat="50.263257102707186" lon="5.277269329710447"><ele>287.0</ele><time>2026-04-18T09:38:51Z</time></trkpt><trkpt lat="50.26332299146433" lon="5.2772299546182895"><ele>289.42857142857144</ele><time>2026-04-18T09:38:57Z</time></trkpt><trkpt lat="50.263380146342996" lon="5.277168112995496"><ele>291.8571428571429</ele><time>2026-04-18T09:39:01Z</time></trkpt><trkpt lat="50.26343965987539" lon="5.277112411979464"><ele>294.2857142857143</ele><time>2026-04-18T09:39:11Z</time></trkpt><trkpt lat="50.26349705202005" lon="5.277021593074428"><ele>296.7142857142857</ele><time>2026-04-18T09:39:45Z</time></trkpt><trkpt lat="50.26352929068302" lon="5.2769365120588745"><ele>299.14285714285717</ele><time>2026-04-18T09:39:52Z</time></trkpt><trkpt lat="50.26356613164693" lon="5.276846819309437"><ele>301.57142857142856</ele><time>2026-04-18T09:39:59Z</time></trkpt><trkpt lat="50.26362768885711" lon="5.276800743885157"><ele>304.0</ele><time>2026-04-18T09:40:06Z</time></trkpt><trkpt lat="50.26366654249905" lon="5.276717881837712"><ele>304.0</ele><time>2026-04-18T09:40:10Z</time></trkpt><trkpt lat="50.2637280729647" lon="5.27667876478268"><ele>304.0</ele><time>2026-04-18T09:40:18Z</time></trkpt><trkpt lat="50.26379167750519" lon="5.276656752736747"><ele>304.0</ele><time>2026-04-18T09:40:27Z</time></trkpt><trkpt lat="50.26384150849398" lon="5.2765849916870415"><ele>304.0</ele><time>2026-04-18T09:40:32Z</time></trkpt><trkpt lat="50.2638885704529" lon="5.2765132577405085"><ele>304.0</ele><time>2026-04-18T09:40:40Z</time></trkpt><trkpt lat="50.26395569492671" lon="5.276506444287952"><ele>304.0</ele><time>2026-04-18T09:40:47Z</time></trkpt><trkpt lat="50.263989637340764" lon="5.276418111488255"><ele>304.0</ele><time>2026-04-18T09:40:52Z</time></trkpt><trkpt lat="50.26399851289423" lon="5.276295844803259"><ele>304.1428571428571</ele><time>2026-04-18T09:40:57Z</time></trkpt><trkpt lat="50.26399336491667" lon="5.276191296307787"><ele>304.28571428571433</ele><time>2026-04-18T09:41:02Z</time></trkpt><trkpt lat="50.26399307269534" lon="5.276082535349251"><ele>304.42857142857144</ele><time>2026-04-18T09:41:10Z</time></trkpt><trkpt lat="50.26395644271068" lon="5.275986126640722"><ele>304.57142857142856</ele><time>2026-04-18T09:41:16Z</time></trkpt><trkpt lat="50.26393396543635" lon="5.2758885597381635"><ele>304.71428571428567</ele><time>2026-04-18T09:41:22Z</time></trkpt><trkpt lat="50.263894562316544" lon="5.275788740082588"><ele>304.8571428571429</ele><time>2026-04-18T09:41:28Z</time></trkpt><trkpt lat="50.26387465903297" lon="5.275689392832178"><ele>305.0</ele><time>2026-04-18T09:41:33Z</time></trkpt><trkpt lat="50.26385371509312" lon="5.2755730784987"><ele>304.7142857142857</ele><time>2026-04-18T09:41:40Z</time></trkpt><trkpt lat="50.26384088103856" lon="5.275464359928187"><ele>304.4285714285714</ele><time>2026-04-18T09:41:47Z</time></trkpt><trkpt lat="50.26381321224884" lon="5.275368531944907"><ele>304.1428571428571</ele><time>2026-04-18T09:41:54Z</time></trkpt><trkpt lat="50.263794442480595" lon="5.275270851512172"><ele>303.8571428571429</ele><time>2026-04-18T09:42:00Z</time></trkpt><trkpt lat="50.26379756961492" lon="5.275163518229825"><ele>303.57142857142856</ele><time>2026-04-18T09:42:06Z</time></trkpt><trkpt lat="50.263788153146756" lon="5.275047875438676"><ele>303.2857142857143</ele><time>2026-04-18T09:42:12Z</time></trkpt><trkpt lat="50.263773049475034" lon="5.274948206127428"><ele>303.0</ele><time>2026-04-18T09:42:18Z</time></trkpt><trkpt lat="50.263757201739516" lon="5.274838803143964"><ele>302.42857142857144</ele><time>2026-04-18T09:42:24Z</time></trkpt><trkpt lat="50.26374166296556" lon="5.274740307779327"><ele>301.85714285714283</ele><time>2026-04-18T09:42:32Z</time></trkpt><trkpt lat="50.263690934558554" lon="5.274671649845476"><ele>301.2857142857143</ele><time>2026-04-18T09:42:39Z</time></trkpt><trkpt lat="50.26366472349283" lon="5.274565841400119"><ele>300.7142857142857</ele><time>2026-04-18T09:42:46Z</time></trkpt><trkpt lat="50.26363237657163" lon="5.274470370223483"><ele>300.14285714285717</ele><time>2026-04-18T09:42:53Z</time></trkpt><trkpt lat="50.26360789008558" lon="5.274378897045394"><ele>299.57142857142856</ele><time>2026-04-18T09:43:06Z</time></trkpt><trkpt lat="50.263601460539036" lon="5.274273067763558"><ele>299.0</ele><time>2026-04-18T09:43:13Z</time></trkpt><trkpt lat="50.26356204655466" lon="5.274192365446696"><ele>299.0</ele><time>2026-04-18T09:43:18Z</time></trkpt><trkpt lat="50.26354379716377" lon="5.274097575538991"><ele>299.0</ele><time>2026-04-18T09:43:25Z</time></trkpt><trkpt lat="50.26350634170727" lon="5.274013743699321"><ele>299.0</ele><time>2026-04-18T09:43:30Z</time></trkpt><trkpt lat="50.26345801278051" lon="5.273937814362178"><ele>299.0</ele><time>2026-04-18T09:43:36Z</time></trkpt><trkpt lat="50.26342293169252" lon="5.27383893011442"><ele>299.0</ele><time>2026-04-18T09:43:43Z</time></trkpt><trkpt lat="50.26338673149231" lon="5.273751273917612"><ele>299.0</ele><time>2026-04-18T09:43:49Z</time></trkpt><trkpt lat="50.26336154980689" lon="5.273646571242707"><ele>299.0</ele><time>2026-04-18T09:43:55Z</time></trkpt><trkpt lat="50.263331800103046" lon="5.273557220166974"><ele>299.1428571428571</ele><time>2026-04-18T09:44:01Z</time></trkpt><trkpt lat="50.263298291233" lon="5.273464648745362"><ele>299.2857142857143</ele><time>2026-04-18T09:44:07Z</time></trkpt><trkpt lat="50.263305887431855" lon="5.273366667237837"><ele>299.42857142857144</ele><time>2026-04-18T09:44:14Z</time></trkpt><trkpt lat="50.26329058363888" lon="5.273249905226858"><ele>299.57142857142856</ele><time>2026-04-18T09:44:22Z</time></trkpt><trkpt lat="50.26327417414922" lon="5.273148541729388"><ele>299.7142857142857</ele><time>2026-04-18T09:44:27Z</time></trkpt><trkpt lat="50.26325274417586" lon="5.273036679509235"><ele>299.85714285714283</ele><time>2026-04-18T09:44:34Z</time></trkpt><trkpt lat="50.26321908337599" lon="5.272938278372402"><ele>300.0</ele><time>2026-04-18T09:44:40Z</time></trkpt><trkpt lat="50.26319679010487" lon="5.2728392676771145"><ele>300.1428571428571</ele><time>2026-04-18T09:44:47Z</time></trkpt><trkpt lat="50.263160242197074" lon="5.272740975985789"><ele>300.2857142857143</ele><time>2026-04-18T09:44:53Z</time></trkpt><trkpt lat="50.26313608006022" lon="5.272642760909267"><ele>300.42857142857144</ele><time>2026-04-18T09:44:59Z</time></trkpt><trkpt lat="50.26311638035273" lon="5.272534556264282"><ele>300.57142857142856</ele><time>2026-04-18T09:45:06Z</time></trkpt><trkpt lat="50.263087833745075" lon="5.272434271717481"><ele>300.7142857142857</ele><time>2026-04-18T09:45:13Z</time></trkpt><trkpt lat="50.2630673065479" lon="5.272328669390674"><ele>300.85714285714283</ele><time>2026-04-18T09:45:19Z</time></trkpt><trkpt lat="50.2630345294256" lon="5.272233662842927"><ele>301.0</ele><time>2026-04-18T09:45:26Z</time></trkpt><trkpt lat="50.262999267654564" lon="5.272144859876949"><ele>301.57142857142856</ele><time>2026-04-18T09:45:31Z</time></trkpt><trkpt lat="50.26296740897844" lon="5.272041258939192"><ele>302.1428571428571</ele><time>2026-04-18T09:45:38Z</time></trkpt><trkpt lat="50.262940492202" lon="5.27192201784663"><ele>302.7142857142857</ele><time>2026-04-18T09:45:45Z</time></trkpt><trkpt lat="50.26290711788443" lon="5.27182350823071"><ele>303.2857142857143</ele><time>2026-04-18T09:45:51Z</time></trkpt><trkpt lat="50.26287969365752" lon="5.271732856784483"><ele>303.85714285714283</ele><time>2026-04-18T09:45:56Z</time></trkpt><trkpt lat="50.26282918955729" lon="5.271659398908852"><ele>304.42857142857144</ele><time>2026-04-18T09:46:02Z</time></trkpt><trkpt lat="50.26275705283161" lon="5.271666757021557"><ele>305.0</ele><time>2026-04-18T09:46:08Z</time></trkpt><trkpt lat="50.26269113209233" lon="5.271700474017149"><ele>305.0</ele><time>2026-04-18T09:46:13Z</time></trkpt><trkpt lat="50.26263131713615" lon="5.2717542739630465"><ele>305.0</ele><time>2026-04-18T09:46:18Z</time></trkpt><trkpt lat="50.262571977704724" lon="5.271811504540892"><ele>305.0</ele><time>2026-04-18T09:46:24Z</time></trkpt><trkpt lat="50.262506067994146" lon="5.271869437477562"><ele>305.0</ele><time>2026-04-18T09:46:29Z</time></trkpt><trkpt lat="50.262449333208224" lon="5.271918420527553"><ele>305.0</ele><time>2026-04-18T09:46:36Z</time></trkpt><trkpt lat="50.26240016326253" lon="5.271991522767809"><ele>305.0</ele><time>2026-04-18T09:46:42Z</time></trkpt><trkpt lat="50.2623436490062" lon="5.272062195727311"><ele>305.0</ele><time>2026-04-18T09:46:49Z</time></trkpt><trkpt lat="50.262290416344314" lon="5.272123964483202"><ele>304.5714285714286</ele><time>2026-04-18T09:46:56Z</time></trkpt><trkpt lat="50.262221280677146" lon="5.27214903514682"><ele>304.1428571428571</ele><time>2026-04-18T09:47:01Z</time></trkpt><trkpt lat="50.26216992424057" lon="5.2722263829041704"><ele>303.7142857142857</ele><time>2026-04-18T09:47:07Z</time></trkpt><trkpt lat="50.26210537334075" lon="5.272276586957377"><ele>303.28571428571433</ele><time>2026-04-18T09:47:13Z</time></trkpt><trkpt lat="50.262040849043466" lon="5.272336318592838"><ele>302.8571428571429</ele><time>2026-04-18T09:47:19Z</time></trkpt><trkpt lat="50.26199161749165" lon="5.272410422864678"><ele>302.42857142857144</ele><time>2026-04-18T09:47:32Z</time></trkpt><trkpt lat="50.26193743453861" lon="5.2724700414544925"><ele>302.0</ele><time>2026-04-18T09:47:39Z</time></trkpt><trkpt lat="50.26187678752395" lon="5.272531959419322"><ele>301.5714285714286</ele><time>2026-04-18T09:47:47Z</time></trkpt><trkpt lat="50.26181279080382" lon="5.272564770511572"><ele>301.14285714285717</ele><time>2026-04-18T09:47:52Z</time></trkpt><trkpt lat="50.261757234680815" lon="5.272632550831855"><ele>300.7142857142857</ele><time>2026-04-18T09:47:58Z</time></trkpt><trkpt lat="50.261693789843505" lon="5.272672152296472"><ele>300.28571428571433</ele><time>2026-04-18T09:48:06Z</time></trkpt><trkpt lat="50.261625935332574" lon="5.272677275740849"><ele>299.8571428571429</ele><time>2026-04-18T09:48:13Z</time></trkpt><trkpt lat="50.261562106376424" lon="5.2726826811393535"><ele>299.42857142857144</ele><time>2026-04-18T09:48:17Z</time></trkpt><trkpt lat="50.261499032656914" lon="5.272710791371749"><ele>299.0</ele><time>2026-04-18T09:48:22Z</time></trkpt><trkpt lat="50.261432846125054" lon="5.2726932582853445"><ele>298.1428571428571</ele><time>2026-04-18T09:48:27Z</time></trkpt><trkpt lat="50.26136657380239" lon="5.272728626630807"><ele>297.2857142857143</ele><time>2026-04-18T09:48:33Z</time></trkpt><trkpt lat="50.261300806918854" lon="5.27272875250631"><ele>296.42857142857144</ele><time>2026-04-18T09:48:39Z</time></trkpt><trkpt lat="50.26123948827648" lon="5.272693458611654"><ele>295.57142857142856</ele><time>2026-04-18T09:48:45Z</time></trkpt><trkpt lat="50.261167459272016" lon="5.272693667718867"><ele>294.7142857142857</ele><time>2026-04-18T09:48:50Z</time></trkpt><trkpt lat="50.26110152503474" lon="5.272695728439637"><ele>293.85714285714283</ele><time>2026-04-18T09:48:56Z</time></trkpt><trkpt lat="50.26103898338594" lon="5.272672370436768"><ele>293.0</ele><time>2026-04-18T09:49:02Z</time></trkpt><trkpt lat="50.26097334723457" lon="5.272680966238427"><ele>292.99999999999994</ele><time>2026-04-18T09:49:08Z</time></trkpt><trkpt lat="50.26089721615573" lon="5.272667546073162"><ele>293.0</ele><time>2026-04-18T09:49:14Z</time></trkpt><trkpt lat="50.26084087192377" lon="5.272714294511202"><ele>293.0</ele><time>2026-04-18T09:49:19Z</time></trkpt><trkpt lat="50.26077824660652" lon="5.272768734463237"><ele>293.0</ele><time>2026-04-18T09:49:23Z</time></trkpt><trkpt lat="50.260725746653094" lon="5.272824355275568"><ele>293.0</ele><time>2026-04-18T09:49:31Z</time></trkpt><trkpt lat="50.26070356882897" lon="5.272923572507332"><ele>292.99999999999994</ele><time>2026-04-18T09:49:37Z</time></trkpt><trkpt lat="50.26069921774275" lon="5.273021896406575"><ele>293.0</ele><time>2026-04-18T09:49:45Z</time></trkpt><trkpt lat="50.260716601601985" lon="5.273124193848491"><ele>292.2857142857143</ele><time>2026-04-18T09:49:51Z</time></trkpt><trkpt lat="50.26073738802029" lon="5.273231901233157"><ele>291.57142857142856</ele><time>2026-04-18T09:49:56Z</time></trkpt><trkpt lat="50.26075045703277" lon="5.273346996220357"><ele>290.8571428571429</ele><time>2026-04-18T09:50:02Z</time></trkpt><trkpt lat="50.260764012803094" lon="5.273449917728578"><ele>290.1428571428571</ele><time>2026-04-18T09:50:07Z</time></trkpt><trkpt lat="50.26078104736774" lon="5.273554037321597"><ele>289.42857142857144</ele><time>2026-04-18T09:50:12Z</time></trkpt><trkpt lat="50.26073185481789" lon="5.273622580377539"><ele>288.7142857142857</ele><time>2026-04-18T09:50:23Z</time></trkpt><trkpt lat="50.2606638084221" lon="5.273586572257439"><ele>288.0</ele><time>2026-04-18T09:50:28Z</time></trkpt><trkpt lat="50.26060991867595" lon="5.273532270582792"><ele>286.7142857142857</ele><time>2026-04-18T09:50:35Z</time></trkpt><trkpt lat="50.26054188134681" lon="5.273516711448113"><ele>285.42857142857144</ele><time>2026-04-18T09:50:39Z</time></trkpt><trkpt lat="50.260476216631055" lon="5.273496909825784"><ele>284.1428571428571</ele><time>2026-04-18T09:50:48Z</time></trkpt><trkpt lat="50.26041361321851" lon="5.273471046705841"><ele>282.8571428571429</ele><time>2026-04-18T09:50:53Z</time></trkpt><trkpt lat="50.2603481258751" lon="5.273436092750914"><ele>281.57142857142856</ele><time>2026-04-18T09:50:58Z</time></trkpt><trkpt lat="50.26029015307933" lon="5.2733974853735175"><ele>280.2857142857143</ele><time>2026-04-18T09:51:03Z</time></trkpt><trkpt lat="50.26022438765474" lon="5.27337517467497"><ele>279.0</ele><time>2026-04-18T09:51:08Z</time></trkpt><trkpt lat="50.2601524328262" lon="5.273348935432043"><ele>278.99999999999994</ele><time>2026-04-18T09:51:13Z</time></trkpt><trkpt lat="50.26007659146715" lon="5.273338855935133"><ele>279.0</ele><time>2026-04-18T09:51:18Z</time></trkpt><trkpt lat="50.26000963045064" lon="5.273314975926989"><ele>279.0</ele><time>2026-04-18T09:51:24Z</time></trkpt><trkpt lat="50.25994364969382" lon="5.273308922090281"><ele>279.0</ele><time>2026-04-18T09:51:30Z</time></trkpt><trkpt lat="50.259880640430026" lon="5.2732771142885"><ele>279.0</ele><time>2026-04-18T09:51:35Z</time></trkpt><trkpt lat="50.25981695266133" lon="5.273253293084911"><ele>278.99999999999994</ele><time>2026-04-18T09:51:41Z</time></trkpt><trkpt lat="50.25974370833176" lon="5.2732297834987385"><ele>279.0</ele><time>2026-04-18T09:51:47Z</time></trkpt><trkpt lat="50.259679504321205" lon="5.273226355555341"><ele>277.57142857142856</ele><time>2026-04-18T09:51:52Z</time></trkpt><trkpt lat="50.25961066436397" lon="5.273208164137506"><ele>276.1428571428571</ele><time>2026-04-18T09:51:58Z</time></trkpt><trkpt lat="50.25953724319613" lon="5.273197161204791"><ele>274.7142857142857</ele><time>2026-04-18T09:52:04Z</time></trkpt><trkpt lat="50.259472890236104" lon="5.273208831552987"><ele>273.2857142857143</ele><time>2026-04-18T09:52:09Z</time></trkpt><trkpt lat="50.2594035452246" lon="5.273197513046972"><ele>271.8571428571429</ele><time>2026-04-18T09:52:16Z</time></trkpt><trkpt lat="50.25933236863128" lon="5.27318990179532"><ele>270.42857142857144</ele><time>2026-04-18T09:52:22Z</time></trkpt><trkpt lat="50.25925798543946" lon="5.273184501091193"><ele>269.0</ele><time>2026-04-18T09:52:28Z</time></trkpt><trkpt lat="50.25919079045568" lon="5.273192345391136"><ele>269.0</ele><time>2026-04-18T09:52:33Z</time></trkpt><trkpt lat="50.25910914875123" lon="5.273184425820172"><ele>269.0</ele><time>2026-04-18T09:52:40Z</time></trkpt><trkpt lat="50.25903977708422" lon="5.2731861168866265"><ele>269.0</ele><time>2026-04-18T09:52:46Z</time></trkpt><trkpt lat="50.25896690953012" lon="5.273184399694955"><ele>269.0</ele><time>2026-04-18T09:52:52Z</time></trkpt><trkpt lat="50.25889905710329" lon="5.273181757397092"><ele>269.0</ele><time>2026-04-18T09:52:58Z</time></trkpt><trkpt lat="50.25882589700472" lon="5.27318130926247"><ele>269.0</ele><time>2026-04-18T09:53:04Z</time></trkpt><trkpt lat="50.258761071131374" lon="5.273176806754235"><ele>269.0</ele><time>2026-04-18T09:53:09Z</time></trkpt><trkpt lat="50.258687474328056" lon="5.273175625656538"><ele>268.57142857142856</ele><time>2026-04-18T09:53:15Z</time></trkpt><trkpt lat="50.25862440600885" lon="5.273172501152287"><ele>268.14285714285717</ele><time>2026-04-18T09:53:20Z</time></trkpt><trkpt lat="50.25855678143041" lon="5.273192469152065"><ele>267.7142857142857</ele><time>2026-04-18T09:53:26Z</time></trkpt><trkpt lat="50.25848481568231" lon="5.273196962398507"><ele>267.2857142857143</ele><time>2026-04-18T09:53:36Z</time></trkpt><trkpt lat="50.25841768814463" lon="5.273192973231701"><ele>266.8571428571429</ele><time>2026-04-18T09:53:43Z</time></trkpt><trkpt lat="50.25835385709631" lon="5.2731950305924"><ele>266.42857142857144</ele><time>2026-04-18T09:53:48Z</time></trkpt><trkpt lat="50.25828137934479" lon="5.273204614938377"><ele>266.0</ele><time>2026-04-18T09:53:56Z</time></trkpt><trkpt lat="50.25821149163253" lon="5.273209023549872"><ele>266.0</ele><time>2026-04-18T09:54:02Z</time></trkpt><trkpt lat="50.258140877265106" lon="5.273219110865455"><ele>266.0</ele><time>2026-04-18T09:54:08Z</time></trkpt><trkpt lat="50.25807368154689" lon="5.273242112535833"><ele>266.0</ele><time>2026-04-18T09:54:13Z</time></trkpt><trkpt lat="50.258017982527996" lon="5.273288343547996"><ele>266.0</ele><time>2026-04-18T09:54:18Z</time></trkpt><trkpt lat="50.25796303488408" lon="5.273349263355291"><ele>266.0</ele><time>2026-04-18T09:54:23Z</time></trkpt><trkpt lat="50.25791458884243" lon="5.273415204017453"><ele>266.0</ele><time>2026-04-18T09:54:28Z</time></trkpt><trkpt lat="50.25786491810172" lon="5.273492050413198"><ele>266.0</ele><time>2026-04-18T09:54:33Z</time></trkpt><trkpt lat="50.257818408967324" lon="5.273584840119857"><ele>265.7142857142857</ele><time>2026-04-18T09:54:40Z</time></trkpt><trkpt lat="50.257775545204" lon="5.273678974314893"><ele>265.42857142857144</ele><time>2026-04-18T09:54:46Z</time></trkpt><trkpt lat="50.25773289287185" lon="5.273752000533014"><ele>265.1428571428571</ele><time>2026-04-18T09:54:52Z</time></trkpt><trkpt lat="50.257678994818306" lon="5.273809155455342"><ele>264.8571428571429</ele><time>2026-04-18T09:54:56.999Z</time></trkpt><trkpt lat="50.25762566159006" lon="5.273866090057934"><ele>264.57142857142856</ele><time>2026-04-18T09:55:01.999Z</time></trkpt><trkpt lat="50.257584422783566" lon="5.273950112585867"><ele>264.2857142857143</ele><time>2026-04-18T09:55:06.999Z</time></trkpt><trkpt lat="50.25753083514673" lon="5.274027117349874"><ele>264.0</ele><time>2026-04-18T09:55:13.999Z</time></trkpt><trkpt lat="50.25746538611267" lon="5.274094276822296"><ele>263.57142857142856</ele><time>2026-04-18T09:55:20.999Z</time></trkpt><trkpt lat="50.257413931955185" lon="5.274176776568768"><ele>263.14285714285717</ele><time>2026-04-18T09:55:26.999Z</time></trkpt><trkpt lat="50.257365864870515" lon="5.274255965090182"><ele>262.7142857142857</ele><time>2026-04-18T09:55:33Z</time></trkpt><trkpt lat="50.257319605601964" lon="5.274326705067347"><ele>262.2857142857143</ele><time>2026-04-18T09:55:39Z</time></trkpt><trkpt lat="50.25726871984028" lon="5.27440052347661"><ele>261.85714285714283</ele><time>2026-04-18T09:55:44Z</time></trkpt><trkpt lat="50.257213842786335" lon="5.274462429354327"><ele>261.42857142857144</ele><time>2026-04-18T09:55:50Z</time></trkpt><trkpt lat="50.25715011517913" lon="5.2745049499329655"><ele>261.0</ele><time>2026-04-18T09:56:02Z</time></trkpt><trkpt lat="50.25709809671209" lon="5.2745923387109315"><ele>260.57142857142856</ele><time>2026-04-18T09:56:10Z</time></trkpt><trkpt lat="50.257034219521955" lon="5.274654519739685"><ele>260.1428571428571</ele><time>2026-04-18T09:56:16Z</time></trkpt><trkpt lat="50.25698587009154" lon="5.274717738115293"><ele>259.71428571428567</ele><time>2026-04-18T09:56:21Z</time></trkpt><trkpt lat="50.25692742451452" lon="5.274790472537848"><ele>259.2857142857143</ele><time>2026-04-18T09:56:27Z</time></trkpt><trkpt lat="50.25687169826425" lon="5.274859475861037"><ele>258.85714285714283</ele><time>2026-04-18T09:56:32Z</time></trkpt><trkpt lat="50.25682041155024" lon="5.274922559164994"><ele>258.4285714285714</ele><time>2026-04-18T09:56:37Z</time></trkpt><trkpt lat="50.25676947863429" lon="5.2749838275139815"><ele>258.0</ele><time>2026-04-18T09:56:42Z</time></trkpt><trkpt lat="50.25671665232493" lon="5.275046801561252"><ele>257.4285714285714</ele><time>2026-04-18T09:56:48Z</time></trkpt><trkpt lat="50.25666583031268" lon="5.275105851686973"><ele>256.85714285714283</ele><time>2026-04-18T09:56:54Z</time></trkpt><trkpt lat="50.256605929216875" lon="5.275169591125581"><ele>256.2857142857143</ele><time>2026-04-18T09:57:00Z</time></trkpt><trkpt lat="50.25654839608899" lon="5.275236317205261"><ele>255.7142857142857</ele><time>2026-04-18T09:57:07Z</time></trkpt><trkpt lat="50.25649211934554" lon="5.275297899812683"><ele>255.1428571428571</ele><time>2026-04-18T09:57:13Z</time></trkpt><trkpt lat="50.2564431183335" lon="5.27536443439329"><ele>254.57142857142858</ele><time>2026-04-18T09:57:18Z</time></trkpt><trkpt lat="50.25638786249297" lon="5.275421235124092"><ele>254.0</ele><time>2026-04-18T09:57:23Z</time></trkpt><trkpt lat="50.25633379932527" lon="5.275478434613649"><ele>253.42857142857144</ele><time>2026-04-18T09:57:28Z</time></trkpt><trkpt lat="50.25629116168253" lon="5.275552547878242"><ele>252.85714285714283</ele><time>2026-04-18T09:57:33Z</time></trkpt><trkpt lat="50.256221437876086" lon="5.275608567047106"><ele>252.28571428571428</ele><time>2026-04-18T09:57:39Z</time></trkpt><trkpt lat="50.256165724855954" lon="5.275660241997197"><ele>251.71428571428572</ele><time>2026-04-18T09:57:44Z</time></trkpt><trkpt lat="50.25609945920772" lon="5.275723958906423"><ele>251.14285714285717</ele><time>2026-04-18T09:57:50Z</time></trkpt><trkpt lat="50.25604377424679" lon="5.275789648718928"><ele>250.57142857142856</ele><time>2026-04-18T09:57:56Z</time></trkpt><trkpt lat="50.255984401226655" lon="5.275860721445626"><ele>250.0</ele><time>2026-04-18T09:58:03Z</time></trkpt><trkpt lat="50.25592519380072" lon="5.275914627160465"><ele>249.71428571428572</ele><time>2026-04-18T09:58:09Z</time></trkpt><trkpt lat="50.25586648874582" lon="5.275983885583192"><ele>249.42857142857144</ele><time>2026-04-18T09:58:15Z</time></trkpt><trkpt lat="50.25580715223607" lon="5.2760533775214435"><ele>249.14285714285717</ele><time>2026-04-18T09:58:21Z</time></trkpt><trkpt lat="50.25574961049639" lon="5.276118503011538"><ele>248.85714285714286</ele><time>2026-04-18T09:58:26Z</time></trkpt><trkpt lat="50.255689914062295" lon="5.276189783604193"><ele>248.5714285714286</ele><time>2026-04-18T09:58:31Z</time></trkpt><trkpt lat="50.2556341850634" lon="5.276253499255866"><ele>248.2857142857143</ele><time>2026-04-18T09:58:37Z</time></trkpt><trkpt lat="50.25557585087546" lon="5.276296431394878"><ele>248.0</ele><time>2026-04-18T09:58:41Z</time></trkpt><trkpt lat="50.255533340553306" lon="5.276379694764827"><ele>247.14285714285717</ele><time>2026-04-18T09:58:48Z</time></trkpt><trkpt lat="50.255477736520724" lon="5.276428895611397"><ele>246.2857142857143</ele><time>2026-04-18T09:58:54Z</time></trkpt><trkpt lat="50.25541975261342" lon="5.276482692312191"><ele>245.42857142857144</ele><time>2026-04-18T09:59:00Z</time></trkpt><trkpt lat="50.25536386984831" lon="5.276537924922682"><ele>244.57142857142856</ele><time>2026-04-18T09:59:05Z</time></trkpt><trkpt lat="50.25532161132441" lon="5.2766139114142865"><ele>243.7142857142857</ele><time>2026-04-18T09:59:11Z</time></trkpt><trkpt lat="50.25525843952846" lon="5.276664631453632"><ele>242.85714285714283</ele><time>2026-04-18T09:59:16Z</time></trkpt><trkpt lat="50.255201884456326" lon="5.276716165971631"><ele>242.0</ele><time>2026-04-18T09:59:20Z</time></trkpt><trkpt lat="50.2551337539753" lon="5.276770582984997"><ele>241.28571428571428</ele><time>2026-04-18T09:59:26Z</time></trkpt><trkpt lat="50.25506885821048" lon="5.276817913391777"><ele>240.57142857142856</ele><time>2026-04-18T09:59:32Z</time></trkpt><trkpt lat="50.2550140212061" lon="5.276880183585209"><ele>239.85714285714283</ele><time>2026-04-18T09:59:36Z</time></trkpt><trkpt lat="50.254955749556075" lon="5.276921163511026"><ele>239.1428571428571</ele><time>2026-04-18T09:59:45Z</time></trkpt><trkpt lat="50.25489557745914" lon="5.276959707339792"><ele>238.42857142857142</ele><time>2026-04-18T09:59:50Z</time></trkpt><trkpt lat="50.25482895307806" lon="5.277013645554367"><ele>237.71428571428567</ele><time>2026-04-18T09:59:56Z</time></trkpt><trkpt lat="50.25476746660263" lon="5.277078159927022"><ele>236.99999999999997</ele><time>2026-04-18T10:00:01Z</time></trkpt><trkpt lat="50.25473810042345" lon="5.277179407343499"><ele>236.71428571428567</ele><time>2026-04-18T10:00:06Z</time></trkpt><trkpt lat="50.25469572007269" lon="5.277271380727859"><ele>236.42857142857142</ele><time>2026-04-18T10:00:12Z</time></trkpt><trkpt lat="50.254668809736195" lon="5.277361965095392"><ele>236.1428571428571</ele><time>2026-04-18T10:00:17Z</time></trkpt><trkpt lat="50.25465419784803" lon="5.277465048972679"><ele>235.85714285714283</ele><time>2026-04-18T10:00:21Z</time></trkpt><trkpt lat="50.254625240567094" lon="5.277555670147909"><ele>235.57142857142856</ele><time>2026-04-18T10:00:26Z</time></trkpt><trkpt lat="50.254590071182385" lon="5.277642426228111"><ele>235.28571428571428</ele><time>2026-04-18T10:00:32Z</time></trkpt><trkpt lat="50.25453798257517" lon="5.277719741632175"><ele>235.0</ele><time>2026-04-18T10:00:37Z</time></trkpt><trkpt lat="50.25448618191714" lon="5.277779684959476"><ele>235.0</ele><time>2026-04-18T10:00:43Z</time></trkpt><trkpt lat="50.25441466462501" lon="5.277834044840908"><ele>234.99999999999997</ele><time>2026-04-18T10:00:50Z</time></trkpt><trkpt lat="50.254348673346904" lon="5.277896629300069"><ele>235.0</ele><time>2026-04-18T10:00:56Z</time></trkpt><trkpt lat="50.2542890154442" lon="5.277956887341399"><ele>235.0</ele><time>2026-04-18T10:01:02Z</time></trkpt><trkpt lat="50.25422676493705" lon="5.27800274254374"><ele>234.99999999999997</ele><time>2026-04-18T10:01:08Z</time></trkpt><trkpt lat="50.25417272020523" lon="5.278057982800905"><ele>235.0</ele><time>2026-04-18T10:01:13Z</time></trkpt><trkpt lat="50.25410946359087" lon="5.278117664509889"><ele>235.0</ele><time>2026-04-18T10:01:20Z</time></trkpt><trkpt lat="50.25404827855718" lon="5.278169390495959"><ele>234.85714285714283</ele><time>2026-04-18T10:01:26Z</time></trkpt><trkpt lat="50.25397518732219" lon="5.278215397861845"><ele>234.7142857142857</ele><time>2026-04-18T10:01:33Z</time></trkpt><trkpt lat="50.25391034655598" lon="5.27825219567983"><ele>234.57142857142856</ele><time>2026-04-18T10:01:39Z</time></trkpt><trkpt lat="50.253842891989606" lon="5.278286387344098"><ele>234.42857142857144</ele><time>2026-04-18T10:01:45Z</time></trkpt><trkpt lat="50.25377708062542" lon="5.278314344990383"><ele>234.2857142857143</ele><time>2026-04-18T10:01:50Z</time></trkpt><trkpt lat="50.25371428123414" lon="5.278343510240393"><ele>234.14285714285717</ele><time>2026-04-18T10:01:55Z</time></trkpt><trkpt lat="50.25363964470127" lon="5.278342586903577"><ele>234.0</ele><time>2026-04-18T10:02:00Z</time></trkpt><trkpt lat="50.25357393411854" lon="5.278350651593157"><ele>233.71428571428572</ele><time>2026-04-18T10:02:06Z</time></trkpt><trkpt lat="50.25350695783793" lon="5.278385353997116"><ele>233.42857142857144</ele><time>2026-04-18T10:02:11Z</time></trkpt><trkpt lat="50.25344661149407" lon="5.278416014022856"><ele>233.14285714285717</ele><time>2026-04-18T10:02:16Z</time></trkpt><trkpt lat="50.25337960357025" lon="5.278440822613273"><ele>232.8571428571429</ele><time>2026-04-18T10:02:23Z</time></trkpt><trkpt lat="50.2533081498088" lon="5.278456163203385"><ele>232.57142857142858</ele><time>2026-04-18T10:02:28Z</time></trkpt><trkpt lat="50.25324202411952" lon="5.278464062079187"><ele>232.28571428571433</ele><time>2026-04-18T10:02:34Z</time></trkpt><trkpt lat="50.25317800624115" lon="5.278500148803412"><ele>232.00000000000003</ele><time>2026-04-18T10:02:40Z</time></trkpt><trkpt lat="50.25310661390818" lon="5.278502489083463"><ele>232.00000000000003</ele><time>2026-04-18T10:02:46Z</time></trkpt><trkpt lat="50.25304098873105" lon="5.2785103910188695"><ele>232.0</ele><time>2026-04-18T10:02:51Z</time></trkpt><trkpt lat="50.25296598979514" lon="5.278531906996742"><ele>232.00000000000003</ele><time>2026-04-18T10:02:57Z</time></trkpt><trkpt lat="50.25289362325167" lon="5.278544109004398"><ele>232.00000000000003</ele><time>2026-04-18T10:03:04Z</time></trkpt><trkpt lat="50.25282108931478" lon="5.278553984707847"><ele>232.0</ele><time>2026-04-18T10:03:10Z</time></trkpt><trkpt lat="50.25274939693948" lon="5.278574188905493"><ele>232.00000000000003</ele><time>2026-04-18T10:03:15Z</time></trkpt><trkpt lat="50.2526772133574" lon="5.278591155414183"><ele>232.00000000000003</ele><time>2026-04-18T10:03:21Z</time></trkpt><trkpt lat="50.2526131171432" lon="5.278579374361945"><ele>232.00000000000003</ele><time>2026-04-18T10:03:27Z</time></trkpt><trkpt lat="50.252547266608474" lon="5.278604595399026"><ele>232.0</ele><time>2026-04-18T10:03:32Z</time></trkpt><trkpt lat="50.25247853435207" lon="5.278596509076985"><ele>232.00000000000003</ele><time>2026-04-18T10:03:36Z</time></trkpt><trkpt lat="50.25240736233086" lon="5.278611748410052"><ele>232.00000000000003</ele><time>2026-04-18T10:03:43Z</time></trkpt><trkpt lat="50.25233807355514" lon="5.278638845225942"><ele>232.0</ele><time>2026-04-18T10:03:48Z</time></trkpt><trkpt lat="50.25228319111431" lon="5.278714743340993"><ele>232.00000000000003</ele><time>2026-04-18T10:03:53Z</time></trkpt><trkpt lat="50.25222746402192" lon="5.278789097605423"><ele>232.00000000000003</ele><time>2026-04-18T10:03:58Z</time></trkpt><trkpt lat="50.25217826890974" lon="5.27885562331393"><ele>231.5714285714286</ele><time>2026-04-18T10:04:03Z</time></trkpt><trkpt lat="50.25212875004772" lon="5.278923042218946"><ele>231.14285714285717</ele><time>2026-04-18T10:04:08Z</time></trkpt><trkpt lat="50.252100540885806" lon="5.279013877145858"><ele>230.71428571428572</ele><time>2026-04-18T10:04:12Z</time></trkpt><trkpt lat="50.252054750222236" lon="5.279085740646743"><ele>230.2857142857143</ele><time>2026-04-18T10:04:17Z</time></trkpt><trkpt lat="50.25201896950822" lon="5.279176364839636"><ele>229.8571428571429</ele><time>2026-04-18T10:04:23Z</time></trkpt><trkpt lat="50.25197189174347" lon="5.279252885981441"><ele>229.42857142857142</ele><time>2026-04-18T10:04:28Z</time></trkpt><trkpt lat="50.25192821881698" lon="5.279328603983738"><ele>229.0</ele><time>2026-04-18T10:04:33Z</time></trkpt><trkpt lat="50.25188362513006" lon="5.279401993942518"><ele>228.85714285714283</ele><time>2026-04-18T10:04:38Z</time></trkpt><trkpt lat="50.251841769059766" lon="5.279486571373018"><ele>228.71428571428572</ele><time>2026-04-18T10:04:43Z</time></trkpt><trkpt lat="50.251798022684476" lon="5.279566028330763"><ele>228.57142857142856</ele><time>2026-04-18T10:04:48Z</time></trkpt><trkpt lat="50.25175422817337" lon="5.279663071691861"><ele>228.42857142857142</ele><time>2026-04-18T10:04:54Z</time></trkpt><trkpt lat="50.251720257217784" lon="5.279761388967339"><ele>228.28571428571428</ele><time>2026-04-18T10:05:00Z</time></trkpt><trkpt lat="50.251695873934345" lon="5.279876724023331"><ele>228.14285714285714</ele><time>2026-04-18T10:05:06Z</time></trkpt><trkpt lat="50.25164831727263" lon="5.279941654323601"><ele>228.0</ele><time>2026-04-18T10:05:12Z</time></trkpt><trkpt lat="50.25160543873403" lon="5.280021950155617"><ele>227.85714285714283</ele><time>2026-04-18T10:05:17Z</time></trkpt><trkpt lat="50.251546777381726" lon="5.280080801173987"><ele>227.7142857142857</ele><time>2026-04-18T10:05:22Z</time></trkpt><trkpt lat="50.251500439713666" lon="5.280162490669413"><ele>227.57142857142856</ele><time>2026-04-18T10:05:27Z</time></trkpt><trkpt lat="50.251462572656855" lon="5.280246402603542"><ele>227.42857142857144</ele><time>2026-04-18T10:05:32Z</time></trkpt><trkpt lat="50.25140992019037" lon="5.28030937795182"><ele>227.2857142857143</ele><time>2026-04-18T10:05:37Z</time></trkpt><trkpt lat="50.25137514239007" lon="5.280397623378308"><ele>227.14285714285717</ele><time>2026-04-18T10:05:42Z</time></trkpt><trkpt lat="50.25132321095646" lon="5.280464363783874"><ele>227.0</ele><time>2026-04-18T10:05:48Z</time></trkpt><trkpt lat="50.25127952840673" lon="5.280551670257444"><ele>226.0</ele><time>2026-04-18T10:05:54Z</time></trkpt><trkpt lat="50.251236808470594" lon="5.2806248171960535"><ele>225.00000000000003</ele><time>2026-04-18T10:05:59Z</time></trkpt><trkpt lat="50.25118968964054" lon="5.280705253680607"><ele>224.0</ele><time>2026-04-18T10:06:03Z</time></trkpt><trkpt lat="50.2511451205262" lon="5.280785931234214"><ele>223.0</ele><time>2026-04-18T10:06:09Z</time></trkpt><trkpt lat="50.251095272780226" lon="5.280876132747895"><ele>222.0</ele><time>2026-04-18T10:06:15Z</time></trkpt><trkpt lat="50.25104111789989" lon="5.280944542053649"><ele>221.0</ele><time>2026-04-18T10:06:21Z</time></trkpt><trkpt lat="50.25098911707773" lon="5.281001254091179"><ele>220.0</ele><time>2026-04-18T10:06:26Z</time></trkpt><trkpt lat="50.25094796313386" lon="5.281095328956328"><ele>219.99999999999997</ele><time>2026-04-18T10:06:32Z</time></trkpt><trkpt lat="50.25092581027915" lon="5.281198512281216"><ele>220.0</ele><time>2026-04-18T10:06:37Z</time></trkpt><trkpt lat="50.25090281913804" lon="5.2812995357617725"><ele>220.0</ele><time>2026-04-18T10:06:43Z</time></trkpt><trkpt lat="50.25092090713673" lon="5.281397247337899"><ele>220.0</ele><time>2026-04-18T10:06:49Z</time></trkpt><trkpt lat="50.250946670440705" lon="5.2814958929997955"><ele>220.0</ele><time>2026-04-18T10:06:52Z</time></trkpt><trkpt lat="50.25096342098401" lon="5.281602530034662"><ele>219.99999999999997</ele><time>2026-04-18T10:06:58Z</time></trkpt><trkpt lat="50.250960667243895" lon="5.2817081480045385"><ele>220.0</ele><time>2026-04-18T10:07:03Z</time></trkpt><trkpt lat="50.25099792614484" lon="5.28181037518324"><ele>219.85714285714283</ele><time>2026-04-18T10:07:09Z</time></trkpt><trkpt lat="50.25102960400546" lon="5.281909727614415"><ele>219.71428571428572</ele><time>2026-04-18T10:07:14Z</time></trkpt><trkpt lat="50.25107514093361" lon="5.281994014191122"><ele>219.57142857142856</ele><time>2026-04-18T10:07:20Z</time></trkpt><trkpt lat="50.25108418860851" lon="5.282102007769937"><ele>219.42857142857142</ele><time>2026-04-18T10:07:26Z</time></trkpt><trkpt lat="50.25106589593082" lon="5.282202189619186"><ele>219.28571428571428</ele><time>2026-04-18T10:07:33Z</time></trkpt><trkpt lat="50.25100334630523" lon="5.282277934007546"><ele>219.14285714285714</ele><time>2026-04-18T10:07:39Z</time></trkpt><trkpt lat="50.25093075969652" lon="5.282330224783331"><ele>219.0</ele><time>2026-04-18T10:07:45Z</time></trkpt><trkpt lat="50.25086709536453" lon="5.282388427870077"><ele>218.85714285714286</ele><time>2026-04-18T10:07:51Z</time></trkpt><trkpt lat="50.250808657490175" lon="5.2824435421894975"><ele>218.7142857142857</ele><time>2026-04-18T10:07:57Z</time></trkpt><trkpt lat="50.25075261638799" lon="5.282494418270586"><ele>218.57142857142856</ele><time>2026-04-18T10:08:02Z</time></trkpt><trkpt lat="50.250703000339264" lon="5.282556390012414"><ele>218.42857142857144</ele><time>2026-04-18T10:08:08Z</time></trkpt><trkpt lat="50.25063321596604" lon="5.282618105435198"><ele>218.28571428571428</ele><time>2026-04-18T10:08:15Z</time></trkpt><trkpt lat="50.25057096122458" lon="5.282658160047206"><ele>218.14285714285714</ele><time>2026-04-18T10:08:20Z</time></trkpt><trkpt lat="50.25050432038761" lon="5.282712451767989"><ele>218.0</ele><time>2026-04-18T10:08:26Z</time></trkpt><trkpt lat="50.2504386396878" lon="5.282768127092822"><ele>217.71428571428572</ele><time>2026-04-18T10:08:32Z</time></trkpt><trkpt lat="50.25037426942508" lon="5.282826136895209"><ele>217.42857142857144</ele><time>2026-04-18T10:08:38Z</time></trkpt><trkpt lat="50.25030963820346" lon="5.282852060279452"><ele>217.14285714285714</ele><time>2026-04-18T10:08:44Z</time></trkpt><trkpt lat="50.25024071740499" lon="5.282883976529873"><ele>216.85714285714286</ele><time>2026-04-18T10:08:50Z</time></trkpt><trkpt lat="50.25017198622688" lon="5.282895209618331"><ele>216.57142857142856</ele><time>2026-04-18T10:08:57Z</time></trkpt><trkpt lat="50.25010322806534" lon="5.282887352411938"><ele>216.28571428571428</ele><time>2026-04-18T10:09:02Z</time></trkpt><trkpt lat="50.25003215154679" lon="5.282849126514221"><ele>216.0</ele><time>2026-04-18T10:09:08Z</time></trkpt><trkpt lat="50.24996979278857" lon="5.282807075064059"><ele>216.0</ele><time>2026-04-18T10:09:14Z</time></trkpt><trkpt lat="50.249913797249185" lon="5.282747846189262"><ele>216.0</ele><time>2026-04-18T10:09:20Z</time></trkpt><trkpt lat="50.24985662466114" lon="5.282682780881799"><ele>216.0</ele><time>2026-04-18T10:09:25Z</time></trkpt><trkpt lat="50.24981328767191" lon="5.282600867773165"><ele>216.0</ele><time>2026-04-18T10:09:31Z</time></trkpt><trkpt lat="50.24976385562287" lon="5.282521458054609"><ele>216.0</ele><time>2026-04-18T10:09:37Z</time></trkpt><trkpt lat="50.249729863075345" lon="5.28243349847556"><ele>216.0</ele><time>2026-04-18T10:09:42Z</time></trkpt><trkpt lat="50.24968150344819" lon="5.282355064406882"><ele>216.0</ele><time>2026-04-18T10:09:48Z</time></trkpt><trkpt lat="50.24963814763557" lon="5.282261423837858"><ele>216.14285714285714</ele><time>2026-04-18T10:09:53Z</time></trkpt><trkpt lat="50.24960077143298" lon="5.282178264590589"><ele>216.28571428571428</ele><time>2026-04-18T10:09:58Z</time></trkpt><trkpt lat="50.249559578959676" lon="5.28208640342136"><ele>216.42857142857144</ele><time>2026-04-18T10:10:02Z</time></trkpt><trkpt lat="50.24951434969873" lon="5.28200737954811"><ele>216.57142857142856</ele><time>2026-04-18T10:10:08Z</time></trkpt><trkpt lat="50.249459103417514" lon="5.2819300500572295"><ele>216.71428571428572</ele><time>2026-04-18T10:10:14Z</time></trkpt><trkpt lat="50.24941398110678" lon="5.281853920241703"><ele>216.85714285714286</ele><time>2026-04-18T10:10:19Z</time></trkpt><trkpt lat="50.2493695408986" lon="5.281770753954939"><ele>217.0</ele><time>2026-04-18T10:10:24Z</time></trkpt><trkpt lat="50.24932755400639" lon="5.281688875993519"><ele>217.0</ele><time>2026-04-18T10:10:30Z</time></trkpt><trkpt lat="50.249288364178675" lon="5.281599723417043"><ele>217.0</ele><time>2026-04-18T10:10:35Z</time></trkpt><trkpt lat="50.2492416858689" lon="5.2815219500347235"><ele>217.0</ele><time>2026-04-18T10:10:40Z</time></trkpt><trkpt lat="50.24918724899611" lon="5.281466094076766"><ele>217.0</ele><time>2026-04-18T10:10:57Z</time></trkpt><trkpt lat="50.24916180481417" lon="5.281373387263148"><ele>217.0</ele><time>2026-04-18T10:11:01.999Z</time></trkpt><trkpt lat="50.24911161109585" lon="5.281287314022398"><ele>217.0</ele><time>2026-04-18T10:11:10.999Z</time></trkpt><trkpt lat="50.24907156465495" lon="5.281184571374091"><ele>217.0</ele><time>2026-04-18T10:11:15.999Z</time></trkpt><trkpt lat="50.249045838655235" lon="5.281081437395549"><ele>217.42857142857142</ele><time>2026-04-18T10:11:21.999Z</time></trkpt><trkpt lat="50.24904897120265" lon="5.280973461793312"><ele>217.85714285714286</ele><time>2026-04-18T10:11:28.999Z</time></trkpt><trkpt lat="50.24905166748272" lon="5.280852209194201"><ele>218.28571428571428</ele><time>2026-04-18T10:11:38.999Z</time></trkpt><trkpt lat="50.24905273667689" lon="5.280739333098101"><ele>218.71428571428572</ele><time>2026-04-18T10:11:45.999Z</time></trkpt><trkpt lat="50.24905530840752" lon="5.28063005700275"><ele>219.14285714285714</ele><time>2026-04-18T10:11:52Z</time></trkpt><trkpt lat="50.24902847653234" lon="5.280531194096212"><ele>219.57142857142856</ele><time>2026-04-18T10:11:57Z</time></trkpt><trkpt lat="50.24899381810339" lon="5.280433635579298"><ele>220.0</ele><time>2026-04-18T10:12:01Z</time></trkpt><trkpt lat="50.2489615977429" lon="5.280322208237417"><ele>219.99999999999997</ele><time>2026-04-18T10:12:06Z</time></trkpt><trkpt lat="50.248925207144566" lon="5.280226885930841"><ele>220.0</ele><time>2026-04-18T10:12:13Z</time></trkpt><trkpt lat="50.24896830920897" lon="5.2801376922969725"><ele>220.0</ele><time>2026-04-18T10:12:20.999Z</time></trkpt><trkpt lat="50.249011808798905" lon="5.280040054999924"><ele>220.0</ele><time>2026-04-18T10:12:24.999Z</time></trkpt><trkpt lat="50.24905622909854" lon="5.279969721606549"><ele>220.0</ele><time>2026-04-18T10:12:27.999Z</time></trkpt><trkpt lat="50.249116813902624" lon="5.2799187327755375"><ele>219.99999999999997</ele><time>2026-04-18T10:12:33.999Z</time></trkpt><trkpt lat="50.24913420465642" lon="5.279813970833405"><ele>220.0</ele><time>2026-04-18T10:12:39.999Z</time></trkpt><trkpt lat="50.249134123471485" lon="5.279704616865055"><ele>220.42857142857142</ele><time>2026-04-18T10:12:43.999Z</time></trkpt><trkpt lat="50.24908775722702" lon="5.2796375956148704"><ele>220.85714285714286</ele><time>2026-04-18T10:12:47.999Z</time></trkpt><trkpt lat="50.249043331162945" lon="5.279552037934856"><ele>221.28571428571428</ele><time>2026-04-18T10:12:52.999Z</time></trkpt><trkpt lat="50.24902258797944" lon="5.27945670653351"><ele>221.71428571428572</ele><time>2026-04-18T10:12:57.999Z</time></trkpt><trkpt lat="50.24896335431301" lon="5.279395741363937"><ele>222.14285714285714</ele><time>2026-04-18T10:13:02.999Z</time></trkpt><trkpt lat="50.248942788054556" lon="5.2792958364259475"><ele>222.57142857142856</ele><time>2026-04-18T10:13:06.999Z</time></trkpt><trkpt lat="50.24890492743518" lon="5.279191124280938"><ele>223.0</ele><time>2026-04-18T10:13:13.999Z</time></trkpt><trkpt lat="50.24888845565981" lon="5.279084776659109"><ele>223.0</ele><time>2026-04-18T10:13:19.999Z</time></trkpt><trkpt lat="50.248846406504455" lon="5.2789905153402925"><ele>223.0</ele><time>2026-04-18T10:13:24.999Z</time></trkpt><trkpt lat="50.248809307664665" lon="5.278889297428299"><ele>223.0</ele><time>2026-04-18T10:13:29.999Z</time></trkpt><trkpt lat="50.248779305339994" lon="5.278777385348643"><ele>223.0</ele><time>2026-04-18T10:13:34.999Z</time></trkpt><trkpt lat="50.248760341601695" lon="5.278668184178254"><ele>223.0</ele><time>2026-04-18T10:13:39.999Z</time></trkpt><trkpt lat="50.248720807440684" lon="5.278573822135692"><ele>223.0</ele><time>2026-04-18T10:13:44.999Z</time></trkpt><trkpt lat="50.248667201505334" lon="5.278493059175553"><ele>223.0</ele><time>2026-04-18T10:13:51Z</time></trkpt><trkpt lat="50.24863985177432" lon="5.278404364221248"><ele>223.42857142857142</ele><time>2026-04-18T10:13:55Z</time></trkpt><trkpt lat="50.24858999773455" lon="5.278328474539187"><ele>223.85714285714283</ele><time>2026-04-18T10:14:00Z</time></trkpt><trkpt lat="50.24854383452729" lon="5.278255560763748"><ele>224.28571428571428</ele><time>2026-04-18T10:14:05Z</time></trkpt><trkpt lat="50.24850537679381" lon="5.278174597550223"><ele>224.71428571428572</ele><time>2026-04-18T10:14:11Z</time></trkpt><trkpt lat="50.24844391878166" lon="5.278113328255147"><ele>225.14285714285714</ele><time>2026-04-18T10:14:16Z</time></trkpt><trkpt lat="50.248395557734575" lon="5.278030520890081"><ele>225.57142857142858</ele><time>2026-04-18T10:14:21Z</time></trkpt><trkpt lat="50.24834824270787" lon="5.277962402449094"><ele>226.0</ele><time>2026-04-18T10:14:26Z</time></trkpt><trkpt lat="50.248304428479706" lon="5.277877133197957"><ele>226.33333333333331</ele><time>2026-04-18T10:14:32Z</time></trkpt><trkpt lat="50.2482610643106" lon="5.277782846559778"><ele>226.66666666666666</ele><time>2026-04-18T10:14:38Z</time></trkpt><trkpt lat="50.24823923886038" lon="5.2776749853422595"><ele>227.0</ele><time>2026-04-18T10:14:44Z</time></trkpt><trkpt lat="50.248214726109154" lon="5.277583331528968"><ele>227.33333333333331</ele><time>2026-04-18T10:14:53Z</time></trkpt><trkpt lat="50.24822337910541" lon="5.277481602539881"><ele>227.66666666666666</ele><time>2026-04-18T10:14:57Z</time></trkpt><trkpt lat="50.24824537820788" lon="5.277371111620092"><ele>228.0</ele><time>2026-04-18T10:15:01Z</time></trkpt><trkpt lat="50.24814959541994" lon="5.27751691200042"><ele>228.0</ele><time>2026-04-18T10:15:36Z</time></trkpt></trkseg></trk></gpx>